[[{"header":{"parameterUnit":"m.s-1","parameterCategory":1,"la1":30.6,"la2":28.766,"lo1":-90.7593,"lo2":-88.6598,"dy":0.0162,"dx":0.0183,"nx":116,"ny":114,"refTime":"2024-02-07T18:00:00:Z","depth":0,"parameterNumber":2,"parameterNumberName":"U-component_of_WINDS"},"data":[0.0,0.0,0.0,0.0,0.0,0.0,0.0,0.0,0.0,0.0,0.0,0.0,0.0,0.0,0.0,0.0,0.0,0.0,0.0,0.0,0.0,0.0,0.0,0.0,0.0,0.0,0.0,0.0,0.0,0.0,0.0,0.0,0.0,0.0,0.0,0.0,0.0,0.0,0.0,0.0,0.0,0.0,0.0,0.0,0.0,0.0,0.0,0.0,0.0,0.0,0.0,0.0,0.0,0.0,0.0,0.0,0.0,0.0,0.0,0.0,0.0,0.0,0.0,0.0,0.0,0.0,0.0,0.0,0.0,0.0,0.0,0.0,0.0,0.0,0.0,0.0,0.0,0.0,0.0,0.0,0.0,0.0,0.0,0.0,0.0,0.0,0.0,0.0,0.0,0.0,0.0,0.0,0.0,0.0,0.0,0.0,0.0,0.0,0.0,0.0,0.0,0.0,0.0,0.0,0.0,0.0,0.0,0.0,0.0,0.0,0.0,0.0,0.0,0.0,0.0,0.0,0.0,0.0,0.0,0.0,0.0,0.0,0.0,0.0,0.0,0.0,0.0,0.0,0.0,0.0,0.0,0.0,0.0,0.0,0.0,0.0,0.0,0.0,0.0,0.0,0.0,0.0,0.0,0.0,0.0,0.0,0.0,0.0,0.0,0.0,0.0,0.0,0.0,0.0,0.0,0.0,0.0,0.0,0.0,0.0,0.0,0.0,0.0,0.0,0.0,0.0,0.0,0.0,0.0,0.0,0.0,0.0,0.0,0.0,0.0,0.0,0.0,0.0,0.0,0.0,0.0,0.0,0.0,0.0,0.0,0.0,0.0,0.0,0.0,0.0,0.0,0.0,0.0,0.0,0.0,0.0,0.0,0.0,0.0,0.0,0.0,0.0,0.0,0.0,0.0,0.0,0.0,0.0,0.0,0.0,0.0,0.0,0.0,0.0,0.0,0.0,0.0,0.0,0.0,0.0,0.0,0.0,0.0,0.0,0.0,0.0,0.0,0.0,0.0,0.0,0.0,0.0,0.0,0.0,0.0,0.0,0.0,0.0,0.0,0.0,0.0,0.0,0.0,0.0,0.0,0.0,0.0,0.0,0.0,0.0,0.0,0.0,0.0,0.0,0.0,0.0,0.0,0.0,0.0,0.0,0.0,0.0,0.0,0.0,0.0,0.0,0.0,0.0,0.0,0.0,0.0,0.0,0.0,0.0,0.0,0.0,0.0,0.0,0.0,0.0,0.0,0.0,0.0,0.0,0.0,0.0,0.0,0.0,0.0,0.0,0.0,0.0,0.0,0.0,0.0,0.0,0.0,0.0,0.0,0.0,0.0,0.0,0.0,0.0,0.0,0.0,0.0,0.0,0.0,0.0,0.0,0.0,0.0,0.0,0.0,0.0,0.0,0.0,0.0,0.0,0.0,0.0,0.0,0.0,0.0,0.0,0.0,0.0,0.0,0.0,0.0,0.0,0.0,0.0,0.0,0.0,0.0,0.0,0.0,0.0,0.0,0.0,0.0,0.0,0.0,0.0,0.0,0.0,0.0,0.0,0.0,0.0,0.0,0.0,0.0,0.0,0.0,0.0,0.0,0.0,0.0,0.0,0.0,0.0,0.0,0.0,0.0,0.0,0.0,0.0,0.0,0.0,0.0,0.0,0.0,0.0,0.0,0.0,0.0,0.0,0.0,0.0,0.0,0.0,0.0,0.0,0.0,0.0,0.0,0.0,0.0,0.0,0.0,0.0,0.0,0.0,0.0,0.0,0.0,0.0,0.0,0.0,0.0,0.0,0.0,0.0,0.0,0.0,0.0,0.0,0.0,0.0,0.0,0.0,0.0,0.0,0.0,0.0,0.0,0.0,0.0,0.0,0.0,0.0,0.0,0.0,0.0,0.0,0.0,0.0,0.0,0.0,0.0,0.0,0.0,0.0,0.0,0.0,0.0,0.0,0.0,0.0,0.0,0.0,0.0,0.0,0.0,0.0,0.0,0.0,0.0,0.0,0.0,0.0,0.0,0.0,0.0,0.0,0.0,0.0,0.0,0.0,0.0,0.0,0.0,0.0,0.0,0.0,0.0,0.0,0.0,0.0,0.0,0.0,0.0,0.0,0.0,0.0,0.0,0.0,0.0,0.0,0.0,0.0,0.0,0.0,0.0,0.0,0.0,0.0,0.0,0.0,0.0,0.0,0.0,0.0,0.0,0.0,0.0,0.0,0.0,0.0,0.0,0.0,0.0,0.0,0.0,0.0,0.0,0.0,0.0,0.0,0.0,0.0,0.0,0.0,0.0,0.0,0.0,0.0,0.0,0.0,0.0,0.0,0.0,0.0,0.0,0.0,0.0,0.0,0.0,0.0,0.0,0.0,0.0,0.0,0.0,0.0,0.0,0.0,0.0,0.0,0.0,0.0,0.0,0.0,0.0,0.0,0.0,0.0,0.0,0.0,0.0,0.0,0.0,0.0,0.0,0.0,0.0,0.0,0.0,0.0,0.0,0.0,0.0,0.0,0.0,0.0,0.0,0.0,0.0,0.0,0.0,0.0,0.0,0.0,0.0,0.0,0.0,0.0,0.0,0.0,0.0,0.0,0.0,0.0,0.0,0.0,0.0,0.0,0.0,0.0,0.0,0.0,0.0,0.0,0.0,0.0,0.0,0.0,0.0,0.0,0.0,0.0,0.0,0.0,0.0,0.0,0.0,0.0,0.0,0.0,0.0,0.0,0.0,0.0,0.0,0.0,0.0,0.0,0.0,0.0,0.0,0.0,0.0,0.0,0.0,0.0,0.0,0.0,0.0,0.0,0.0,0.0,0.0,0.0,0.0,0.0,0.0,0.0,0.0,0.0,0.0,0.0,0.0,0.0,0.0,0.0,0.0,0.0,0.0,0.0,0.0,0.0,0.0,0.0,0.0,0.0,0.0,0.0,0.0,0.0,0.0,0.0,0.0,0.0,0.0,0.0,0.0,0.0,0.0,0.0,0.0,0.0,0.0,0.0,0.0,0.0,0.0,0.0,0.0,0.0,0.0,0.0,0.0,0.0,0.0,0.0,0.0,0.0,0.0,0.0,0.0,0.0,0.0,0.0,0.0,0.0,0.0,0.0,0.0,0.0,0.0,0.0,0.0,0.0,0.0,0.0,0.0,0.0,0.0,0.0,0.0,0.0,0.0,0.0,0.0,0.0,0.0,0.0,0.0,0.0,0.0,0.0,0.0,0.0,0.0,0.0,0.0,0.0,0.0,0.0,0.0,0.0,0.0,0.0,0.0,0.0,0.0,0.0,0.0,0.0,0.0,0.0,0.0,0.0,0.0,0.0,0.0,0.0,0.0,0.0,0.0,0.0,0.0,0.0,0.0,0.0,0.0,0.0,0.0,0.0,0.0,0.0,0.0,0.0,0.0,0.0,0.0,0.0,0.0,0.0,0.0,0.0,0.0,0.0,0.0,0.0,0.0,0.0,0.0,0.0,0.0,0.0,0.0,0.0,0.0,0.0,0.0,0.0,0.0,0.0,0.0,0.0,0.0,0.0,0.0,0.0,0.0,0.0,0.0,0.0,0.0,0.0,0.0,0.0,0.0,0.0,0.0,0.0,0.0,0.0,0.0,0.0,0.0,0.0,0.0,0.0,0.0,0.0,0.0,0.0,0.0,0.0,0.0,0.0,0.0,0.0,0.0,0.0,0.0,0.0,0.0,0.0,0.0,0.0,0.0,0.0,0.0,0.0,0.0,0.0,0.0,0.0,0.0,0.0,0.0,0.0,0.0,0.0,0.0,0.0,0.0,0.0,0.0,0.0,0.0,0.0,0.0,0.0,0.0,0.0,0.0,0.0,0.0,0.0,0.0,0.0,0.0,0.0,0.0,0.0,0.0,0.0,0.0,0.0,0.0,0.0,0.0,0.0,0.0,0.0,0.0,0.0,0.0,0.0,0.0,0.0,0.0,0.0,0.0,0.0,0.0,0.0,0.0,0.0,0.0,0.0,0.0,0.0,0.0,0.0,0.0,0.0,0.0,0.0,0.0,0.0,0.0,0.0,0.0,0.0,0.0,0.0,0.0,0.0,0.0,0.0,0.0,0.0,0.0,0.0,0.0,0.0,0.0,0.0,0.0,0.0,0.0,0.0,0.0,0.0,0.0,0.0,0.0,0.0,0.0,0.0,0.0,0.0,0.0,0.0,0.0,0.0,0.0,0.0,0.0,0.0,0.0,0.0,0.0,0.0,0.0,0.0,0.0,0.0,0.0,0.0,0.0,0.0,0.0,0.0,0.0,0.0,0.0,0.0,0.0,0.0,0.0,0.0,0.0,0.0,0.0,0.0,0.0,0.0,0.0,0.0,0.0,0.0,0.0,0.0,0.0,0.0,0.0,0.0,0.0,0.0,0.0,0.0,0.0,0.0,0.0,0.0,0.0,0.0,0.0,0.0,0.0,0.0,0.0,0.0,0.0,0.0,0.0,0.0,0.0,0.0,0.0,0.0,0.0,0.0,0.0,0.0,0.0,0.0,0.0,0.0,0.0,0.0,0.0,0.0,0.0,0.0,0.0,0.0,0.0,0.0,0.0,0.0,0.0,0.0,0.0,0.0,0.0,0.0,0.0,0.0,0.0,0.0,0.0,0.0,0.0,0.0,0.0,0.0,0.0,0.0,0.0,0.0,0.0,0.0,0.0,0.0,0.0,0.0,0.0,0.0,0.0,0.0,0.0,0.0,0.0,0.0,0.0,0.0,0.0,0.0,0.0,0.0,0.0,0.0,0.0,0.0,0.0,0.0,0.0,0.0,0.0,0.0,0.0,0.0,0.0,0.0,0.0,0.0,0.0,0.0,0.0,0.0,0.0,0.0,0.0,0.0,0.0,0.0,0.0,0.0,0.0,0.0,0.0,0.0,0.0,0.0,0.0,0.0,0.0,0.0,0.0,0.0,0.0,0.0,0.0,0.0,0.0,0.0,0.0,0.0,0.0,0.0,0.0,0.0,0.0,0.0,0.0,0.0,0.0,0.0,0.0,0.0,0.0,0.0,0.0,0.0,0.0,0.0,0.0,0.0,0.0,0.0,0.0,0.0,0.0,0.0,0.0,0.0,0.0,0.0,0.0,0.0,0.0,0.0,0.0,0.0,0.0,0.0,0.0,0.0,0.0,0.0,0.0,0.0,0.0,0.0,0.0,0.0,0.0,0.0,0.0,0.0,0.0,0.0,0.0,0.0,0.0,0.0,0.0,0.0,0.0,0.0,0.0,0.0,0.0,0.0,0.0,0.0,0.0,0.0,0.0,0.0,0.0,0.0,0.0,0.0,0.0,0.0,0.0,0.0,0.0,0.0,0.0,0.0,0.0,0.0,0.0,0.0,0.0,0.0,0.0,0.0,0.0,0.0,0.0,0.0,0.0,0.0,0.0,0.0,0.0,0.0,0.0,0.0,0.0,0.0,0.0,0.0,0.0,0.0,0.0,0.0,0.0,0.0,0.0,0.0,0.0,0.0,0.0,0.0,0.0,0.0,0.0,0.0,0.0,0.0,0.0,0.0,0.0,0.0,0.0,0.0,0.0,0.0,0.0,0.0,0.0,0.0,0.0,0.0,0.0,0.0,0.0,0.0,0.0,0.0,0.0,0.0,0.0,0.0,0.0,0.0,0.0,0.0,0.0,0.0,0.0,0.0,0.0,0.0,0.0,0.0,0.0,0.0,0.0,0.0,0.0,0.0,0.0,0.0,0.0,0.0,0.0,0.0,0.0,0.0,0.0,0.0,0.0,0.0,0.0,0.0,0.0,0.0,0.0,0.0,0.0,0.0,0.0,0.0,0.0,0.0,0.0,0.0,0.0,0.0,0.0,0.0,0.0,0.0,0.0,0.0,0.0,0.0,0.0,0.0,0.0,0.0,0.0,0.0,0.0,0.0,0.0,0.0,0.0,0.0,0.0,0.0,0.0,0.0,0.0,0.0,0.0,0.0,0.0,0.0,0.0,0.0,0.0,0.0,0.0,0.0,0.0,0.0,0.0,0.0,0.0,0.0,0.0,0.0,0.0,0.0,0.0,0.0,0.0,0.0,0.0,0.0,0.0,0.0,0.0,0.0,0.0,0.0,0.0,0.0,0.0,0.0,0.0,0.0,0.0,0.0,-3.2959,0.0,0.0,0.0,0.0,0.0,0.0,0.0,0.0,0.0,0.0,0.0,0.0,0.0,0.0,0.0,0.0,0.0,0.0,0.0,0.0,0.0,0.0,0.0,0.0,0.0,0.0,0.0,0.0,0.0,0.0,0.0,0.0,0.0,0.0,0.0,-3.4908,-3.4908,-3.4908,-3.4908,-3.4908,-3.5097,-3.5514,-3.5931,-3.6585,-3.742,0.0,0.0,0.0,0.0,0.0,0.0,0.0,0.0,0.0,0.0,0.0,0.0,0.0,0.0,0.0,0.0,0.0,0.0,0.0,0.0,0.0,0.0,0.0,0.0,0.0,0.0,0.0,0.0,0.0,0.0,0.0,0.0,0.0,0.0,0.0,0.0,0.0,0.0,0.0,0.0,0.0,0.0,0.0,0.0,0.0,0.0,0.0,0.0,0.0,0.0,0.0,0.0,0.0,0.0,0.0,0.0,0.0,0.0,0.0,0.0,0.0,0.0,0.0,0.0,0.0,0.0,0.0,0.0,0.0,0.0,0.0,-3.4602,0.0,0.0,0.0,0.0,0.0,0.0,0.0,0.0,0.0,0.0,0.0,0.0,0.0,0.0,0.0,0.0,0.0,0.0,0.0,0.0,0.0,0.0,0.0,-3.4908,-3.4908,-3.4908,-3.4908,-3.4908,0.0,0.0,0.0,0.0,-3.3922,-3.3771,-3.4453,-3.4605,-3.468,-3.468,-3.5135,-3.5855,-3.6841,-3.7675,-3.8509,-3.9315,-3.8281,0.0,0.0,0.0,0.0,0.0,0.0,0.0,0.0,0.0,0.0,0.0,0.0,0.0,0.0,0.0,0.0,0.0,0.0,0.0,0.0,0.0,0.0,0.0,0.0,0.0,0.0,0.0,0.0,0.0,0.0,0.0,0.0,0.0,0.0,0.0,0.0,0.0,0.0,0.0,0.0,0.0,0.0,0.0,0.0,0.0,0.0,0.0,0.0,0.0,0.0,0.0,0.0,0.0,0.0,0.0,0.0,0.0,0.0,0.0,0.0,0.0,0.0,0.0,-3.4411,-3.4678,-3.4158,-3.5975,-3.6485,-3.5915,-3.569,-3.5765,-3.6081,0.0,0.0,0.0,0.0,0.0,0.0,0.0,0.0,0.0,0.0,0.0,0.0,0.0,0.0,0.0,0.0,0.0,0.0,0.0,0.0,0.0,0.0,-3.4908,-3.4908,-3.4908,-3.4908,-3.4908,-3.4908,-3.415,-3.3733,-3.3847,-3.3051,-3.2625,-3.2747,-3.3468,-3.3847,-3.3847,-3.6007,-3.7864,-3.9445,-4.029,-4.1113,-4.1844,-4.0279,-3.9635,-3.9635,0.0,0.0,0.0,0.0,0.0,0.0,0.0,0.0,0.0,0.0,0.0,0.0,0.0,0.0,0.0,0.0,0.0,0.0,0.0,0.0,0.0,0.0,0.0,0.0,0.0,0.0,0.0,0.0,0.0,0.0,0.0,0.0,0.0,0.0,0.0,0.0,0.0,0.0,0.0,0.0,0.0,-3.274,-3.3431,0.0,0.0,0.0,0.0,0.0,0.0,0.0,0.0,0.0,0.0,0.0,0.0,0.0,-3.4074,-3.3507,-3.5405,-3.6382,-3.6377,-3.6409,-3.6733,-3.7303,-3.7522,-3.7198,-3.6482,-3.7846,0.0,-3.6847,-3.6758,0.0,0.0,0.0,0.0,0.0,0.0,0.0,0.0,0.0,0.0,0.0,0.0,0.0,0.0,0.0,0.0,0.0,0.0,0.0,0.0,0.0,-3.5325,-3.5438,-3.4946,-3.6196,-3.6424,-3.4984,-3.4567,-3.4188,-3.3733,-3.2444,-3.1943,-3.2397,-3.324,-3.4377,-3.578,-3.7826,-3.9673,-4.1302,-4.2223,-4.3019,-4.3739,-4.2564,-4.101,-3.9191,-3.8443,0.0,0.0,0.0,0.0,0.0,0.0,0.0,0.0,0.0,0.0,0.0,0.0,0.0,0.0,0.0,0.0,0.0,0.0,0.0,0.0,0.0,0.0,0.0,0.0,0.0,0.0,0.0,0.0,0.0,0.0,0.0,0.0,0.0,0.0,0.0,0.0,0.0,0.0,0.0,-3.2561,-3.2665,-3.3383,-3.328,-3.2937,0.0,0.0,0.0,0.0,0.0,0.0,0.0,0.0,0.0,-3.4278,-3.5457,-3.6362,-3.6955,-3.792,-3.8387,-3.8351,-3.8752,-3.8784,-3.847,-3.9239,-3.9239,-3.8591,-3.9187,-3.9328,-3.9027,-3.8247,-3.8258,-3.87,0.0,0.0,0.0,0.0,-3.9717,-3.9682,0.0,0.0,0.0,0.0,0.0,0.0,0.0,0.0,0.0,0.0,0.0,0.0,-3.5211,-3.6007,-3.6358,-3.5893,-3.742,-3.7571,-3.5666,-3.4756,-3.3998,-3.3392,-3.1753,-3.1147,-3.1753,-3.324,-3.5438,-3.8357,-4.0052,-4.1719,-4.3398,-4.427,-4.4952,-4.552,-4.4914,-4.3019,-4.0225,-3.9163,-3.7629,-3.5873,0.0,0.0,0.0,0.0,0.0,0.0,0.0,0.0,0.0,0.0,0.0,0.0,0.0,0.0,0.0,0.0,0.0,0.0,0.0,0.0,0.0,0.0,0.0,0.0,0.0,0.0,0.0,0.0,0.0,0.0,0.0,0.0,0.0,0.0,0.0,0.0,0.0,-3.2561,-3.3128,-3.3579,-3.3915,-3.3807,0.0,0.0,0.0,0.0,0.0,0.0,-3.4898,-3.4984,-3.5559,-3.6798,-3.7664,-3.8681,-3.9924,-4.015,-4.0326,-4.0516,-4.0854,-4.0673,-4.0016,-4.0982,-4.1092,-4.0525,-4.0539,-4.0667,-4.0785,-3.9537,-3.909,-3.9236,-3.9414,-3.9551,-3.9611,-3.9728,-3.9811,-3.9728,0.0,0.0,0.0,0.0,0.0,0.0,0.0,0.0,0.0,0.0,0.0,-3.5211,-3.6055,-3.6851,-3.7647,-3.8443,-3.7874,-3.742,-3.7268,-3.4301,-3.2511,-3.2473,-3.0844,-2.9972,-3.001,-3.3202,-3.6879,-4.0999,-4.2678,-4.4383,-4.6013,-4.6847,-4.7226,-4.7264,-4.7226,-4.6241,-4.4345,-4.0377,-3.9077,-3.9337,-3.5959,0.0,0.0,0.0,0.0,0.0,0.0,0.0,0.0,0.0,0.0,0.0,0.0,0.0,0.0,0.0,0.0,0.0,0.0,0.0,0.0,0.0,0.0,0.0,0.0,0.0,0.0,0.0,0.0,0.0,0.0,0.0,0.0,0.0,0.0,0.0,0.0,0.0,0.0,-3.4508,-3.5016,0.0,0.0,0.0,0.0,-3.5997,-3.6007,-3.6727,-3.8367,-3.8443,-3.8812,-3.9662,-4.0533,-4.1026,-4.1101,-4.1859,-4.2654,-4.3488,-4.236,-4.223,-4.298,-4.2716,-4.2188,-4.1467,-4.2218,-4.2158,-4.1347,-3.9691,-3.9351,-3.9845,-3.9599,-3.9647,-3.9856,-3.9611,-3.9526,-3.9452,0.0,0.0,0.0,0.0,0.0,0.0,0.0,0.0,-3.4908,-3.4908,-3.5401,-3.6282,-3.7647,-3.9039,-3.9987,-4.029,-4.0517,-3.9949,-3.8329,-3.559,-3.3998,-3.3998,-3.1741,-3.1478,-3.3644,-3.5154,-3.8328,-4.3186,-4.4149,-4.5709,-4.7878,-4.8717,-4.9054,-4.9054,-4.853,-4.7953,-4.7146,-4.3492,-4.0742,-3.8716,-3.6821,-3.5659,0.0,0.0,0.0,0.0,0.0,0.0,0.0,0.0,0.0,0.0,0.0,0.0,0.0,0.0,0.0,0.0,0.0,0.0,0.0,0.0,0.0,0.0,0.0,0.0,0.0,0.0,0.0,0.0,0.0,0.0,0.0,0.0,0.0,0.0,0.0,0.0,0.0,-3.6036,-3.7229,0.0,-3.7284,-3.7551,-3.7789,-3.7816,-3.8115,-3.8659,-3.9445,-3.9987,-4.0669,-4.1491,-4.2337,-4.3057,-4.3587,-4.3891,-4.4071,-4.4169,-4.3724,-4.3573,-4.3632,-4.3549,-4.3318,-4.3051,-4.3019,-4.2843,-4.2534,-4.1581,-4.108,-4.095,-4.1066,-4.104,-4.0948,-4.104,-4.0897,-4.0691,0.0,0.0,0.0,0.0,0.0,0.0,0.0,0.0,-3.4908,-3.4908,-3.5893,-3.723,-3.8925,-4.0858,-4.2261,-4.2829,-4.2602,-4.1544,-3.9547,-3.6257,-3.4224,-3.3843,-3.2343,-3.2921,-3.5984,-3.745,-4.0411,-4.4961,-4.5892,-4.7465,-4.9635,-5.0155,-5.0377,-5.0395,-4.9858,-4.9432,-4.9004,-4.6735,-4.3444,-3.9588,-3.7854,-3.6932,-3.6345,0.0,0.0,0.0,0.0,0.0,0.0,0.0,0.0,0.0,0.0,0.0,0.0,0.0,0.0,0.0,0.0,0.0,0.0,0.0,0.0,0.0,0.0,0.0,0.0,0.0,0.0,0.0,0.0,0.0,0.0,0.0,0.0,0.0,0.0,0.0,-3.6387,-3.7403,-3.8627,-3.9188,-3.8664,-3.9052,-3.9339,-3.9388,-3.9807,-4.0396,-4.115,-4.1719,-4.2412,-4.3208,-4.3815,-4.4345,-4.4876,-4.4914,-4.4789,-4.457,-4.4438,-4.4341,-4.4227,-4.4125,-4.4125,-4.4204,-4.3912,-4.3779,-4.3741,-4.3265,-4.2835,-4.2422,-4.2115,-4.1768,-4.1497,-4.1661,-4.159,-4.1445,0.0,0.0,0.0,0.0,0.0,0.0,0.0,-3.5514,-3.4946,-3.4946,-3.6386,-3.8092,-3.9824,-4.2261,-4.4421,-4.6089,-4.3891,-4.194,-4.0879,-3.613,-3.2858,-3.1801,-3.2548,-3.4154,-3.665,-3.9822,-4.3098,-4.6446,-4.8041,-4.9637,-5.1176,-5.1176,-5.1176,-5.1176,-5.1176,-5.0731,-4.9916,-4.9916,-4.7137,-4.2505,-3.9221,-3.8331,-3.8651,0.0,0.0,0.0,0.0,0.0,0.0,0.0,0.0,0.0,0.0,0.0,0.0,0.0,0.0,0.0,0.0,0.0,0.0,0.0,0.0,0.0,0.0,0.0,0.0,0.0,0.0,0.0,0.0,0.0,0.0,0.0,0.0,0.0,-3.5412,-3.6601,-3.7763,-3.848,-3.9137,-3.9305,-3.8685,-3.8958,-3.9602,-4.0677,-4.1113,-4.201,-4.3651,-4.3727,-4.408,-4.4876,-4.4914,-4.4914,-4.4914,-4.4914,-4.4914,-4.4914,-4.457,-4.4584,-4.4902,-4.457,-4.4597,-4.4914,-4.4914,-4.4902,-4.4839,-4.4544,-4.4383,-4.4219,-4.2592,-4.175,-4.1445,-4.1475,-4.146,-4.1533,0.0,0.0,0.0,0.0,0.0,0.0,-3.7078,-3.6358,-3.5817,-3.5817,-3.7306,-3.9429,-4.2337,-4.4383,-4.5937,-4.6961,-4.4194,-4.194,-4.0879,-3.5555,-3.2649,-3.3114,-3.4522,-3.7257,-4.1392,-4.2133,-4.4766,-4.9412,-4.9045,-4.9706,-5.1259,-5.1259,-5.1259,-5.1259,-5.1259,-5.1128,-5.0873,-5.0289,-4.8919,-4.6861,-4.348,-4.1571,-4.0488,0.0,0.0,0.0,0.0,0.0,0.0,0.0,0.0,0.0,0.0,0.0,0.0,0.0,0.0,0.0,0.0,0.0,0.0,0.0,0.0,0.0,0.0,0.0,0.0,0.0,0.0,0.0,0.0,0.0,0.0,0.0,-3.582,-3.5927,-3.5964,-3.8084,-3.9826,-4.0251,-4.1469,-4.2086,-4.1598,-4.2165,-4.2441,-4.218,-4.3015,-4.3715,-4.4167,-4.4436,-4.4687,-4.4876,-4.4914,-4.4914,-4.4914,-4.4914,-4.4914,-4.4914,-4.4802,-4.4802,-4.4914,-4.4802,-4.4802,-4.4914,-4.4914,-4.4764,-4.4544,-4.4425,-4.4256,-4.3998,-4.355,-4.315,-4.2844,-4.2861,-4.2693,-4.2504,0.0,0.0,0.0,0.0,0.0,0.0,-3.7344,-3.7002,-3.6699,-3.6699,-3.8471,-4.0631,-4.2905,-4.4649,-4.5824,-4.6316,-4.3625,-4.1111,-3.9202,-3.5488,-3.3759,-3.4711,-3.7661,-4.0496,-4.3122,-4.4629,-4.7062,-5.0399,-5.0054,-5.056,-5.1792,-5.2154,-5.2118,-5.1828,-5.2516,-5.2625,-5.2299,-5.2154,-5.1466,-5.0206,-4.8068,-4.5921,-4.3726,-4.0626,-3.9717,-3.9973,-3.9036,-3.871,-3.8674,-3.8131,0.0,0.0,0.0,0.0,0.0,0.0,0.0,0.0,0.0,0.0,0.0,0.0,0.0,0.0,0.0,0.0,0.0,0.0,0.0,0.0,0.0,0.0,0.0,0.0,-3.7098,-3.7934,-3.8441,-3.9654,-4.0817,-4.1681,-4.2611,-4.3084,-4.2797,-4.3332,-4.3553,-4.325,-4.3951,-4.4438,-4.4597,-4.4789,-4.4914,-4.4914,-4.4914,-4.4914,-4.4914,-4.4914,-4.4914,-4.4914,-4.4914,-4.4914,-4.4914,-4.4914,-4.4914,0.0,-4.4914,-4.4789,-4.4597,-4.4476,-4.4285,0.0,0.0,0.0,0.0,0.0,-4.3389,-4.3337,0.0,0.0,0.0,0.0,0.0,0.0,-3.7268,-3.742,-3.7457,-3.7533,-3.9608,-4.1378,-4.2287,-4.3739,-4.4649,-4.4762,-4.2412,-3.9717,-3.6945,-3.6094,-3.6104,-3.7028,-4.1425,-4.3812,-4.3775,-4.7275,-4.9517,-5.0365,-5.1067,-5.1792,-5.2516,-5.3313,-5.3313,-5.2697,-5.4218,-5.4508,-5.3892,-5.4617,-5.4097,-5.2799,-5.2233,-5.0358,-4.7495,-4.3936,-4.3082,-4.3591,-4.2229,-4.1036,-4.0025,-3.944,0.0,0.0,0.0,0.0,0.0,0.0,0.0,0.0,0.0,0.0,0.0,0.0,0.0,0.0,0.0,0.0,0.0,0.0,0.0,0.0,0.0,0.0,0.0,0.0,-3.8849,-4.0945,-4.185,-4.1415,-4.1542,-4.2882,-4.2973,-4.2901,-4.2901,-4.3213,-4.356,-4.3982,-4.4236,-4.4581,-4.4966,0.0,0.0,0.0,0.0,-4.499,-4.4914,-4.4914,-4.4914,-4.4914,-4.4914,-4.4914,-4.4914,-4.4914,-4.4914,-4.4914,-4.4914,-4.4902,-4.4814,-4.453,-4.4369,-4.4285,-4.3705,-4.3456,-4.3456,-4.3456,-4.364,-4.3896,0.0,0.0,0.0,0.0,0.0,0.0,-3.7268,-3.742,-3.7647,-3.8367,-3.9456,-4.0734,-4.2249,-4.2666,-4.317,-4.3853,-4.101,-3.8575,-3.711,-3.8488,-4.0328,-4.2471,-4.4739,-4.6957,-4.9145,-4.9968,-5.0915,-5.2045,-5.219,-5.2335,-5.2516,-5.3313,-5.3639,-5.3494,-5.4472,-5.4798,-5.4689,-5.4834,-5.4891,-5.4825,-5.3424,-5.1519,-4.9353,-4.7641,-4.6845,-4.6493,-4.5546,-4.4624,-4.3717,-4.3007,-4.2261,-4.1389,-3.9711,-3.8243,0.0,0.0,0.0,0.0,0.0,0.0,0.0,0.0,0.0,0.0,0.0,0.0,0.0,0.0,0.0,0.0,0.0,0.0,0.0,-3.838,-4.031,-4.1958,-4.3425,-4.4077,-4.4258,-4.3896,-4.33,-4.2901,-4.2901,-4.3213,-4.3716,-4.4481,-4.4453,-4.4763,-4.5495,-4.5785,-4.5634,-4.4914,-4.5596,-4.5596,-4.4914,-4.4914,-4.4914,-4.4914,0.0,0.0,-4.4914,-4.4914,-4.4914,-4.4914,-4.4914,-4.4751,-4.4465,-4.4411,-4.4242,-4.3989,-4.3865,-4.3802,-4.3802,-4.3802,-4.3849,-4.3896,0.0,0.0,0.0,0.0,0.0,0.0,-3.6737,-3.7495,-3.8064,-3.8064,-3.9115,-4.0052,-4.0479,-4.0555,-4.0404,-3.9987,-3.7564,-3.6566,-3.7813,-4.0365,-4.2936,-4.5402,-4.8231,-5.0124,-5.097,-5.2171,-5.2982,-5.3389,-5.3813,-5.3895,-5.3711,-5.4472,-5.4653,-5.4363,-5.5522,-5.5848,-5.5486,-5.5884,-5.609,-5.6059,-5.5428,-5.4219,-5.2557,-5.0756,-4.9475,-4.859,-4.8211,-4.7226,-4.6013,-4.5217,-4.4649,-4.3929,-4.1832,-4.029,-3.8963,0.0,0.0,0.0,0.0,0.0,0.0,0.0,0.0,0.0,0.0,0.0,0.0,0.0,0.0,-3.53,-3.6395,0.0,-3.8323,-4.0256,-4.1868,-4.3462,-4.5055,-4.5309,-4.5164,-4.4729,-4.4524,-4.4418,-4.4418,-4.4686,-4.514,-4.5765,-4.5724,-4.5933,-4.6536,-4.6328,-4.6013,-4.5558,-4.5558,-4.5331,-4.4914,-4.4914,-4.4914,-4.4914,-4.4914,-4.4914,-4.4914,-4.4914,-4.4914,-4.4914,-4.4914,-4.4802,-4.4636,-4.4636,-4.4557,-4.4421,-4.4421,-4.4285,-4.4154,-4.4154,-4.4256,-4.4421,0.0,0.0,0.0,0.0,0.0,0.0,0.0,-3.7344,-3.8064,-3.7685,-3.8698,-3.9229,-3.8746,-3.8405,-3.7609,-3.6093,-3.5007,-3.5941,-3.9456,-4.2434,-4.5337,-4.8106,-5.1688,-5.314,-5.2137,-5.4205,-5.5053,-5.4675,-5.5322,-5.5478,-5.5179,-5.5908,-5.5944,-5.5471,-5.6855,-5.711,-5.6563,-5.7219,-5.7358,-5.7168,-5.7171,-5.6669,-5.5618,-5.336,-5.1722,-5.0613,-5.0258,-4.8856,-4.7074,-4.643,-4.5862,-4.5141,-4.3246,-4.2098,-4.0934,-3.8395,-3.7533,0.0,0.0,0.0,0.0,0.0,0.0,0.0,0.0,-3.5416,-3.5964,-3.6538,-3.6947,-3.7466,-3.8299,-3.9586,-4.08,-4.1777,-4.3281,-4.4838,-4.6287,-4.615,-4.5863,-4.5863,-4.59,-4.5919,-4.599,-4.6298,-4.6694,-4.7124,-4.7047,-4.7174,-4.7643,-4.7049,-4.6544,-4.6203,-4.5672,-4.5217,-4.4914,-4.4914,-4.4914,-4.4914,-4.4914,-4.4914,-4.4914,-4.4914,-4.4914,-4.4914,-4.4914,-4.4914,-4.4914,-4.4914,-4.4914,-4.4914,-4.4914,-4.4739,-4.4517,-4.4517,-4.4649,-4.4914,0.0,0.0,0.0,0.0,0.0,0.0,0.0,0.0,-3.6965,-3.8367,-3.8026,-3.795,-3.8633,-3.7382,-3.6093,-3.5135,-3.6907,-3.9559,-4.2905,-4.5546,-4.8753,-5.2754,-5.4799,-5.5589,-5.505,-5.6046,-5.6388,-5.6003,-5.6077,-5.6075,-5.6071,-5.6887,-5.7221,-5.7147,-5.8053,-5.8365,-5.8328,-5.8402,-5.8635,-5.8784,-5.7341,-5.6952,-5.6996,-5.5254,-5.4019,-5.3063,-5.1585,-4.9007,-4.6316,-4.6241,-4.4687,-4.2905,-4.3398,-4.2981,-4.1768,-3.9277,-3.8026,-3.703,-3.5363,-3.4984,-3.5022,-3.4908,-3.5279,-3.5773,0.0,-3.6912,-3.7367,-3.8093,-3.815,-3.8299,-3.9133,-3.9948,-4.0999,-4.252,-4.4114,-4.549,-4.6359,-4.7335,-4.7972,-4.7972,-4.6764,-4.6026,-4.6331,-4.6651,-4.7185,-4.798,-4.7607,-4.7693,-4.8528,-4.849,-4.7732,-4.6241,-4.6809,-4.6392,-4.4914,-4.4914,-4.4914,-4.4914,-4.4914,-4.4914,-4.4914,-4.4914,-4.4914,-4.4914,-4.4914,-4.4914,-4.4914,-4.4914,-4.4914,-4.4914,-4.4914,-4.4889,-4.4827,-4.4827,-4.4889,-4.4914,0.0,0.0,0.0,0.0,0.0,0.0,0.0,0.0,0.0,-3.723,-3.7799,-3.7912,-3.7306,-3.5751,-3.4605,-3.4226,-3.6093,-3.885,-4.2678,-4.6203,-5.0031,-5.4238,-5.5981,-5.6791,-5.6609,-5.7439,-5.7685,-5.7248,-5.7716,-5.7806,-5.7604,-5.7938,-5.8087,-5.8124,-5.8459,-5.8607,-5.8607,-5.8607,-5.885,-5.9102,-5.792,-5.7435,-5.7156,-5.5034,-5.3063,-5.1319,-5.0144,-4.787,0.0,-4.4308,-4.3625,-4.3208,-4.3587,-4.2791,-4.1378,-3.9835,-3.8433,-3.7154,-3.5969,-3.5666,-3.578,-3.6234,-3.6756,-3.7304,-3.7977,-3.844,-3.891,-3.9518,-3.9963,-4.0492,-4.1289,-4.2085,-4.2955,0.0,-4.5452,-4.6628,-4.7431,-4.7776,-4.7991,-4.8161,-4.719,-4.692,-4.805,-4.843,-4.8805,-4.9145,-4.8991,-4.9021,-4.94,-4.8945,-4.8376,-4.7694,-4.7036,-4.6582,-4.6354,-4.5899,-4.5672,-4.5672,-4.5672,-4.5407,-4.4914,-4.4914,-4.4914,-4.4914,-4.4914,-4.4914,-4.4914,-4.4914,-4.4914,-4.4914,-4.4914,-4.4914,-4.4914,-4.4914,-4.4914,-4.4914,0.0,0.0,0.0,0.0,0.0,0.0,0.0,0.0,0.0,0.0,-3.7382,-3.7533,-3.632,-3.5116,-3.432,-3.4036,-3.5363,-3.794,-4.2136,-4.5899,-4.9955,-5.4389,-5.6398,-5.7497,-5.7763,-5.8597,-5.8862,-5.8495,-5.9115,-5.9234,-5.8949,-5.8949,-5.8949,-5.8949,-5.8949,-5.8949,-5.8949,-5.8949,-5.9122,-5.9304,-5.8269,-5.7385,-5.6398,-5.3707,-5.094,-4.8439,-4.7883,-4.5862,-4.336,-4.2098,-4.1844,-4.2033,-4.2526,-4.1844,-4.062,-3.9521,-3.8016,-3.6689,-3.6548,-3.6548,-3.6765,-3.7826,-3.8501,-3.9039,-3.9642,-4.0089,-4.0557,-4.1158,-4.1687,-4.223,-4.2792,-4.3353,-4.4114,-4.5128,-4.6153,-4.704,-4.781,-4.7843,-4.7746,-4.777,-4.7348,-4.7504,-4.8746,-4.9301,-4.9665,-4.9893,-4.9893,-4.9893,-4.9893,-4.9362,-4.8945,-4.8717,-4.7542,-4.7036,-4.7378,-4.6809,-4.643,-4.6203,-4.6203,-4.5748,-4.4914,-4.4914,-4.4914,-4.4914,-4.4914,-4.4914,-4.4914,-4.4914,-4.4914,-4.4914,-4.4914,-4.4914,-4.4914,-4.5179,-4.5103,-4.4914,0.0,0.0,0.0,0.0,0.0,0.0,0.0,0.0,0.0,0.0,0.0,0.0,0.0,-3.6207,-3.5837,-3.4955,-3.5666,-3.794,-4.2136,-4.4838,-4.8515,-5.3518,-5.6095,-5.7801,-5.8635,-5.943,-5.9847,-5.9847,-5.9885,-5.9869,-5.9869,-5.9869,-5.9869,-5.9869,-5.9869,-5.9869,-5.9869,-5.9869,-5.9869,-5.9717,-5.8088,-5.6421,-5.4617,-5.1282,-4.7946,-4.5066,-4.5028,-4.2867,-4.0052,-3.9976,-3.8925,-3.7864,-3.9483,-3.9976,-3.9597,-3.794,-3.6272,-3.5325,-3.6917,-3.7382,-3.775,-3.9407,-4.0222,-4.0829,-4.1616,-4.1987,-4.234,-4.315,-4.3087,-4.2865,-4.2901,-4.2937,-4.3481,-4.5055,-4.5642,-4.6195,-4.6928,-4.764,-4.7785,-4.7034,-4.7192,-4.7403,0.0,-4.8211,-4.9059,-4.9855,-4.9893,-4.9893,-4.9893,-4.9893,-4.9514,-4.8717,-4.8642,-4.8225,-4.7416,-4.7378,-4.6961,-4.6203,-4.6203,-4.5748,-4.4914,-4.4914,-4.4914,-4.4914,-4.4914,-4.4914,-4.4914,-4.4914,-4.4914,-4.4914,-4.4914,-4.4914,-4.499,-4.5862,-4.5634,-4.4914,0.0,0.0,0.0,0.0,0.0,0.0,0.0,0.0,0.0,0.0,0.0,0.0,0.0,0.0,0.0,0.0,-3.578,-3.7574,-4.0599,-4.3637,-4.6847,-5.022,-5.3328,-5.5602,-5.7005,-5.7839,-5.8786,-5.9902,-5.9902,-5.9902,-5.9902,-5.9902,-5.9902,-5.9902,-5.9902,-5.9902,-5.9902,-5.9902,-5.9241,-5.8028,-5.583,-5.3935,-5.1964,-4.7491,-4.4383,-4.2223,0.0,-3.9191,-3.8054,-3.6955,-3.6576,-3.6813,-3.7902,-3.7864,-3.722,-3.6083,-3.6121,-3.6689,-3.7268,-3.8622,-4.0176,-4.1264,-4.2372,-4.3233,-4.3482,-4.3879,-4.4038,-4.3512,-4.2593,-4.1842,-4.1606,-4.2199,-4.2881,-4.3416,-4.5667,-4.725,-4.6994,-4.7341,-4.7346,-4.6515,-4.6026,0.0,0.0,0.0,0.0,-4.9059,-4.9097,-4.9362,-4.9855,-4.9893,-4.9779,-4.9514,-4.8414,-4.8211,-4.9059,-4.7959,-4.7264,-4.6961,-4.5862,-4.5179,-4.4914,-4.4914,-4.4914,-4.4914,-4.4914,-4.4914,-4.4914,-4.4914,-4.4914,-4.4952,-4.552,-4.5748,-4.5786,-4.6089,-4.6354,-4.6544,0.0,0.0,0.0,0.0,0.0,0.0,0.0,0.0,0.0,0.0,0.0,0.0,0.0,0.0,0.0,0.0,0.0,-3.6787,-3.8981,-4.1684,-4.4329,-4.6834,-4.9591,-5.1716,-5.3082,-5.3613,-5.4396,-5.5481,-5.5746,-5.5898,-5.5921,-5.6512,-5.6929,-5.7232,-5.7535,-5.7839,-5.8066,-5.746,-5.6436,-5.4958,-5.2456,-5.0258,-4.806,-4.3929,-4.1313,0.0,-3.7296,-3.65,-3.6348,-3.5249,-3.5287,-3.5817,-3.6348,-3.6159,-3.5704,-3.5438,-3.631,-3.7637,-3.885,-4.0366,-4.2022,-4.3777,-4.4373,-4.4659,-4.496,-4.5002,-4.4519,-4.3172,-4.2082,-4.1252,-4.0725,-4.1234,-4.1831,-4.2112,-4.4266,-4.5908,-4.6006,-4.6059,-4.6089,-4.6203,-4.5445,-4.5103,0.0,0.0,0.0,-4.8149,-4.8528,-4.8945,-4.9438,-4.9741,-4.9893,-4.9893,-4.8869,-4.8831,-4.9893,-4.8566,-4.758,-4.6999,-4.5571,-4.4926,-4.495,-4.495,-4.4938,-4.4914,-4.4938,-4.4938,-4.4914,-4.4914,-4.5066,-4.5407,-4.5975,-4.6392,-4.6657,-4.6961,-4.7416,-4.7719,0.0,0.0,0.0,0.0,0.0,0.0,0.0,0.0,0.0,0.0,0.0,0.0,0.0,0.0,0.0,0.0,0.0,0.0,-3.7376,-3.9041,-4.1009,-4.3384,-4.5133,-4.6464,-4.7338,-4.7376,-4.739,-4.7378,-4.8137,-4.8504,-4.8566,-5.0144,-5.1282,-5.2077,-5.2873,-5.3707,-5.4352,-5.276,-5.1623,-5.0675,-4.8136,-4.5672,-4.3246,-4.0696,-3.8736,-3.7116,-3.5476,-3.4908,-3.4908,-3.4908,-3.4908,-3.4908,-3.4984,-3.4984,-3.5135,-3.6121,-3.7002,-3.8357,-4.1579,-4.2515,-4.336,-4.6544,-4.6127,-4.5179,-4.5937,-4.5215,-4.3871,-4.2192,-4.1498,-4.0948,-4.0191,-4.0131,-4.0428,-4.1267,-4.1852,-4.2744,-4.4294,-4.4171,-4.4535,-4.6089,-4.552,-4.5028,-4.5028,0.0,0.0,-4.7264,0.0,-4.8679,-4.8755,-4.9438,-4.9855,-4.9893,-4.9817,-4.9817,-4.9893,-4.9059,-4.7833,-4.6301,-4.5368,-4.495,-4.501,-4.501,-4.4986,-4.4926,-4.4986,-4.4974,-4.4914,-4.4952,-4.5445,-4.6165,-4.6278,-4.6771,-4.7491,-4.8376,-4.8717,-4.8338,0.0,0.0,0.0,0.0,0.0,0.0,0.0,0.0,0.0,0.0,0.0,0.0,0.0,0.0,0.0,0.0,0.0,0.0,-3.5701,-3.73,-3.8508,-3.9155,-4.1341,-4.2965,-4.3851,-4.4448,-4.5045,-4.563,-4.5858,-4.5922,-4.5947,-4.6379,-4.667,-4.6898,-4.7049,-4.7605,-4.8401,-4.7946,-4.7302,-4.6354,-4.4459,-4.2564,-4.0582,-3.8092,-3.6879,-3.6358,-3.5287,-3.4908,-3.4908,-3.4908,-3.4908,-3.5135,-3.6348,-3.6348,-3.6272,-3.8357,-3.9976,-4.1465,-4.2943,-4.427,-4.5445,-4.6278,-4.6165,-4.5748,-4.5331,-4.4524,-4.3316,-4.1392,-3.965,-3.827,-3.7817,-3.8987,-4.0344,-4.1175,-4.4044,-4.6088,-4.5836,-4.6809,-4.7403,-4.7125,-4.6935,-4.6822,-4.6784,-4.6822,0.0,0.0,-4.7605,-4.8287,-4.9551,-4.921,-4.9286,-4.9893,-4.8679,-4.8628,-4.9893,-4.8491,-4.7315,-4.6301,-4.5463,-4.5068,-4.508,-4.508,-4.5068,-4.5057,-4.5022,-4.4998,-4.5024,-4.5621,-4.5634,-4.5407,-4.7315,-4.7795,-4.7491,-4.8376,-4.8717,-4.8528,0.0,0.0,0.0,0.0,0.0,0.0,0.0,0.0,0.0,0.0,0.0,0.0,0.0,0.0,0.0,0.0,0.0,0.0,0.0,-3.6004,-3.6537,-3.6555,-3.7899,-3.869,-3.8823,-3.928,-3.9718,-4.0144,-4.0144,-4.0324,-4.0646,-4.1005,-4.1374,-4.1754,-4.2063,-4.2697,-4.3494,-4.3115,-4.2469,0.0,0.0,-3.8919,-3.7581,-3.6168,-3.5628,-3.5552,-3.5097,-3.5135,-3.5476,-3.5476,-3.5704,-3.6234,-3.7571,-3.8167,-3.8736,-4.0468,-4.2174,-4.3777,-4.499,-4.5748,-4.6392,-4.7112,-4.6468,-4.5533,-4.5052,-4.4016,-4.2415,-3.983,-3.8272,-3.7227,-3.675,-3.8201,-3.9741,-4.0646,-4.3074,-4.5091,-4.5703,-4.625,-4.6985,-4.7922,-4.7745,-4.7517,-4.7479,-4.7516,-4.7706,0.0,-4.7985,-4.8376,-4.9324,-4.9286,-4.9438,-4.9893,-4.9009,-4.8643,-4.8833,-4.7985,-4.6958,-4.5779,-4.5319,-4.5114,-4.5148,-4.5148,-4.5125,-4.5103,0.0,-4.565,-4.5653,-4.6467,-4.6708,-4.6695,-4.7732,-4.8287,-4.8515,-4.8642,-4.8907,-4.9172,0.0,0.0,0.0,0.0,0.0,0.0,0.0,0.0,0.0,0.0,0.0,0.0,0.0,0.0,0.0,0.0,0.0,0.0,0.0,0.0,-3.5187,-3.5182,-3.5187,-3.4806,-3.4014,-3.4014,-3.3914,-3.3721,-3.3751,-3.4107,-3.4805,-3.5511,-3.6225,-3.6986,-3.7662,-3.8451,-3.9201,-3.8451,-3.7804,-3.7186,-3.6445,-3.5675,-3.503,0.0,-3.4927,-3.4927,-3.4927,-3.542,-3.6112,-3.6302,-3.7012,-3.7902,-3.8898,-4.0252,-4.1719,-4.2754,-4.408,-4.5558,-4.715,-4.6961,-4.6695,-4.8149,-4.6544,-4.4585,-4.4621,-4.3054,-4.0718,-3.7783,-3.6966,-3.6615,-3.6084,-3.7433,-3.9011,-4.0089,-4.1213,-4.2699,-4.4973,-4.4726,-4.5475,-4.8516,-4.8175,-4.7756,-4.7931,-4.7943,-4.8248,-4.8985,-4.896,-4.8895,-4.8895,-4.9464,-4.9768,-4.9768,-4.9935,-4.9201,-4.7529,-4.7591,-4.6751,-4.5114,-4.5125,-4.5159,-4.5203,-4.5317,-4.5295,-4.5174,0.0,0.0,-4.6484,-4.7326,-4.8061,-4.8555,-4.7871,-4.8389,-4.9527,-4.8907,-4.9059,-4.9589,0.0,0.0,0.0,0.0,0.0,0.0,0.0,0.0,0.0,0.0,-3.5857,-3.5399,0.0,0.0,0.0,0.0,0.0,0.0,0.0,0.0,0.0,-3.519,-3.522,-3.4838,-3.4014,-3.4014,-3.3624,-3.2921,-3.2913,-3.2989,-3.3134,-3.3217,-3.3323,-3.3468,-3.3625,-3.4115,-3.4887,-3.4732,-3.4952,-3.5448,-3.5332,-3.5236,-3.5084,-3.5075,0.0,0.0,-3.5066,-3.5142,-3.5484,-3.6891,-3.8315,-3.9711,-4.1275,-4.245,-4.3701,-4.5899,-4.6733,-4.7188,-4.8187,-4.7845,-4.7264,-4.7529,-4.5217,-4.2829,-4.2829,-3.997,-3.6928,-3.5704,-3.4355,-3.3612,-3.4124,-3.6223,-3.8613,-4.0824,-4.3125,-4.5006,-4.602,-4.6656,-4.751,-4.8756,-4.8793,-4.8983,-4.9594,-4.9719,0.0,0.0,0.0,-4.986,-4.986,-4.9366,-4.9062,-4.9062,-4.9721,-4.9264,-4.7603,-4.7662,-4.6847,-4.5181,-4.5235,-4.5256,-4.5305,-4.5993,-4.5906,-4.536,-4.6843,0.0,-4.658,-4.8045,-4.8326,-4.7869,-4.8365,-4.8302,-4.7985,-4.8503,-4.8338,-4.8022,0.0,0.0,0.0,0.0,0.0,0.0,0.0,-3.587,-3.6175,-3.7024,-3.6778,-3.6349,-3.5908,-3.5471,-3.5196,0.0,0.0,0.0,0.0,0.0,0.0,-3.5182,-3.5204,-3.4822,-3.4014,-3.4014,-3.3815,-3.3394,0.0,-3.2928,-3.3356,-3.2875,-3.2638,-3.2638,-3.2653,-3.285,-3.3227,-3.3696,-3.4107,-3.4454,-3.4966,-3.5166,-3.5166,-3.5101,0.0,0.0,-3.5092,-3.5359,-3.5854,-3.6653,-3.8289,-4.029,-4.1938,-4.3611,-4.5305,-4.6973,-4.777,-4.8238,-4.8656,-4.8112,-4.7353,-4.6935,-4.4621,-4.2231,-4.1461,-3.8649,-3.577,-3.4094,-3.3836,-3.3875,-3.387,-3.6297,-3.887,-4.053,-4.2239,-4.3892,-4.5589,-4.6511,-4.7518,-4.8865,-4.9349,-4.9768,-5.0188,-5.0224,-5.0224,0.0,0.0,-5.0849,-5.0786,-5.0393,-4.9999,-4.9567,-4.9948,-4.9338,-4.7662,-4.772,-4.6903,-4.5192,-4.5256,-4.5507,-4.5927,-4.6309,-4.6538,-4.6653,-4.7422,0.0,-4.7907,-4.8638,-4.8958,-4.8893,-4.8402,-4.8188,-4.8163,-4.8087,-4.8099,-4.8262,0.0,0.0,0.0,0.0,0.0,0.0,0.0,-3.6481,-3.6863,-3.7865,-3.7827,-3.7445,-3.6825,-3.5984,-3.5411,0.0,0.0,0.0,0.0,0.0,0.0,0.0,0.0,0.0,-3.4273,0.0,0.0,-3.4273,-3.3578,0.0,0.0,0.0,0.0,0.0,-3.3234,-3.3211,-3.3209,-3.3952,-3.4211,0.0,0.0,-3.5217,0.0,0.0,0.0,0.0,0.0,-3.5538,-3.6109,-3.63,-3.7776,-3.9812,-4.1254,-4.3669,-4.6101,-4.6795,-4.7732,-4.853,-4.853,-4.7922,-4.7124,-4.6478,-4.4148,-4.1727,-4.068,-3.789,-3.5025,-3.3247,-3.3658,-3.426,-3.395,-3.6209,-3.8584,-4.0072,-4.0845,-4.2144,-4.4666,-4.5502,-4.6636,-4.8602,-4.9331,-4.9854,-5.0283,-5.0283,0.0,0.0,0.0,0.0,-5.1447,-5.1434,-5.1078,-5.025,-5.0212,-4.9411,-4.772,-4.7766,-4.6937,-4.5213,-4.5256,-4.5736,-4.65,-4.6691,-4.7139,-4.7826,-4.817,0.0,0.0,-4.9231,-4.9639,-5.0059,-4.85,-4.8275,-4.8758,-4.8061,-4.8162,-4.8831,0.0,0.0,0.0,0.0,0.0,0.0,0.0,-3.6481,-3.7054,-3.8667,-3.8171,-3.7674,-3.7597,-3.6871,-3.6061,0.0,0.0,0.0,0.0,0.0,0.0,0.0,0.0,0.0,0.0,0.0,0.0,-3.5076,-3.4999,0.0,0.0,0.0,0.0,0.0,0.0,-3.4975,-3.4971,-3.5051,0.0,0.0,0.0,0.0,0.0,0.0,0.0,0.0,0.0,-3.525,-3.5403,-3.6205,-3.7086,-3.8004,-3.8947,-4.1992,-4.522,-4.5308,-4.6449,-4.7717,-4.7717,-4.7108,-4.6461,-4.6397,-4.3341,-4.0487,-4.1155,-3.6947,-3.3086,-3.3675,-3.2745,-3.2279,-3.3738,-3.4838,-3.6596,-3.9766,-4.0339,-4.1294,-4.3777,-4.4197,-4.5152,-4.7635,-4.7979,-4.8629,-5.0168,-5.0283,0.0,0.0,0.0,0.0,-5.1634,-5.1596,-5.1176,-5.0309,-5.0271,-4.9507,-4.7826,-4.7788,-4.6948,-4.5277,-4.5277,-4.5736,-4.6538,-4.733,-4.7712,-4.7865,-4.9404,0.0,0.0,-4.9901,-5.0233,-5.0195,-4.9258,-4.8893,-4.8858,-4.872,-4.8694,-4.8831,0.0,0.0,0.0,0.0,0.0,0.0,-3.6366,-3.6901,-3.7636,-3.8858,-3.9164,-3.9088,-3.8553,-3.7712,-3.668,-3.5305,0.0,0.0,0.0,0.0,0.0,0.0,0.0,0.0,0.0,0.0,-3.519,-3.519,-3.519,0.0,0.0,0.0,0.0,0.0,0.0,0.0,-3.52,-3.5204,0.0,0.0,0.0,0.0,0.0,0.0,0.0,0.0,0.0,0.0,-3.5267,-3.5602,-3.59,-3.6226,-3.657,-3.8498,-4.1149,-4.3624,-4.4843,-4.5605,-4.6645,-4.6683,-4.6226,-4.5148,-4.2519,-4.0004,-3.9328,-3.5798,-3.2638,-3.2493,-3.2737,-3.3051,-3.3203,-3.5114,-3.7139,-3.8514,-3.9164,-4.0196,-4.2221,-4.2947,-4.4208,-4.6729,-4.7483,-4.8437,0.0,0.0,0.0,0.0,0.0,0.0,-5.162,-5.2079,-5.1697,-5.0359,-5.0283,-4.9748,-4.8602,-4.8563,-4.799,-4.6806,-4.6806,-4.7264,-4.8067,-4.8411,-4.8869,-4.9328,-4.948,0.0,0.0,-4.9633,-4.9862,-5.0206,-4.9381,-4.9029,-4.897,-4.8896,-4.8834,-4.8884,0.0,0.0,0.0,0.0,0.0,-3.5488,-3.6366,-3.7177,-3.8018,-3.8897,-3.9546,-3.969,-3.9088,-3.8018,-3.6871,-3.5679,-3.5343,0.0,0.0,0.0,0.0,0.0,0.0,0.0,0.0,0.0,-3.519,-3.519,-3.519,-3.519,0.0,0.0,0.0,0.0,0.0,0.0,0.0,0.0,0.0,0.0,0.0,0.0,0.0,0.0,0.0,0.0,0.0,0.0,0.0,0.0,0.0,-3.519,-3.519,-3.5993,-3.7627,-4.1055,-4.2761,-4.3829,-4.5061,-4.5748,-4.5786,-4.4287,-4.2227,-4.0139,-3.8467,-3.5496,-3.2928,-3.2363,-3.2974,-3.3586,-3.3463,-3.5381,-3.7101,-3.7636,-3.8018,-3.8935,-4.0883,-4.1686,-4.2985,-4.5468,0.0,-4.7444,0.0,0.0,0.0,0.0,0.0,0.0,0.0,-5.227,-5.1773,-5.0359,-5.0283,-4.9901,-4.911,-4.911,-4.8525,-4.7406,-4.7406,-4.7761,-4.8334,-4.8334,-4.8907,-4.9901,0.0,0.0,0.0,-4.906,-4.9213,-4.9901,-4.9328,-4.9178,-4.9349,-4.9276,-4.9201,-4.9213,0.0,0.0,0.0,0.0,0.0,0.0,-3.6366,-3.7177,-3.8018,-3.8897,-3.9011,-3.9011,-3.9011,-3.7512,-3.6519,-3.6481,-3.5679,0.0,0.0,0.0,0.0,0.0,0.0,0.0,0.0,0.0,-3.519,-3.519,-3.519,-3.519,-3.519,-3.519,-3.519,-3.519,0.0,0.0,0.0,0.0,0.0,0.0,0.0,0.0,0.0,0.0,0.0,0.0,0.0,0.0,0.0,0.0,0.0,0.0,0.0,-3.5229,-3.5572,-3.7254,-4.0157,-4.2832,-4.2832,-4.4055,-4.5086,-4.4236,-4.2717,-4.1036,-3.9355,-3.6375,-3.3975,-3.3975,-3.3318,-3.3234,-3.4877,-3.519,-3.5763,-3.7445,-3.7024,-3.7398,-3.9957,-4.0301,-4.1256,0.0,0.0,-4.5038,-4.7559,0.0,0.0,0.0,0.0,0.0,0.0,-5.204,-5.12,-5.0321,-5.0283,-4.9901,-4.911,-4.911,-4.822,-4.65,-4.65,-4.6538,-4.6538,-4.6538,-4.7455,0.0,0.0,0.0,0.0,-4.8181,-4.8334,-4.911,-4.911,-4.956,-5.0188,-5.0114,-5.0038,-4.9973,0.0,0.0,0.0,0.0,0.0,0.0,0.0,-3.6328,-3.6978,-3.7245,-3.7789,-3.8094,-3.8094,-3.713,-3.6481,-3.6481,-3.5679,0.0,0.0,0.0,0.0,0.0,0.0,0.0,0.0,0.0,-3.519,-3.519,-3.519,-3.519,-3.519,-3.519,-3.519,-3.519,-3.519,0.0,0.0,0.0,0.0,0.0,0.0,0.0,0.0,0.0,0.0,0.0,0.0,0.0,0.0,0.0,0.0,0.0,0.0,0.0,0.0,-3.584,-3.7559,-3.9584,-4.0769,-4.1495,-4.1686,-4.0807,-3.9317,-3.7789,-3.668,-3.4694,-3.3119,-3.3119,-3.3356,-3.3738,-3.4273,-3.5305,-3.6443,-3.7521,-3.798,-3.8697,-4.011,-4.0769,-4.2068,-4.459,-4.692,-4.864,0.0,0.0,0.0,0.0,0.0,0.0,0.0,-5.1467,-5.0588,-5.0321,-5.0283,-5.0168,-4.9901,-4.9901,-4.9366,-4.8258,-4.8258,-4.7952,-4.7368,-4.7368,0.0,0.0,0.0,0.0,0.0,-4.8181,-4.7941,-4.822,-4.822,-4.8705,-4.9446,-4.9375,-4.9644,-5.0038,0.0,0.0,0.0,0.0,0.0,0.0,0.0,-3.5946,-3.6481,-3.6481,-3.6939,-3.7368,-3.7674,-3.668,-3.6137,-3.6481,-3.5679,0.0,0.0,0.0,0.0,0.0,0.0,0.0,-3.519,-3.519,-3.5373,-3.5679,-3.5679,-3.5679,-3.5679,-3.5679,-3.5526,-3.519,-3.519,-3.519,0.0,0.0,0.0,0.0,0.0,0.0,-3.519,0.0,0.0,0.0,0.0,0.0,0.0,0.0,0.0,0.0,0.0,0.0,0.0,0.0,-3.5954,-3.7139,-3.8858,-3.9546,-3.9623,-3.8744,-3.7521,-3.6175,-3.5037,-3.3929,-3.3196,-3.3196,-3.3624,-3.4205,-3.4846,-3.5534,-3.6366,-3.7521,-3.7903,-3.8582,-4.0072,-4.0998,0.0,-4.502,0.0,0.0,0.0,0.0,0.0,0.0,0.0,0.0,0.0,-5.1353,-5.0627,-5.0321,-5.0283,-5.0283,-5.0283,-5.0283,-4.9901,-4.911,-4.911,-4.8449,-4.7292,-4.7292,0.0,0.0,0.0,0.0,0.0,-4.7226,-4.7035,-4.7292,-4.7292,-4.8028,-4.9098,-4.9029,-4.9465,-5.0114,0.0,0.0,0.0,0.0,0.0,0.0,0.0,-3.587,-3.6405,-3.6405,-3.6405,-3.6672,-3.7445,-3.6146,-3.5526,-3.6328,0.0,0.0,0.0,0.0,0.0,0.0,0.0,0.0,-3.519,-3.519,-3.5602,-3.6405,-3.6481,-3.6481,-3.6481,-3.6481,-3.6061,-3.5305,-3.5229,-3.519,-3.519,-3.519,-3.519,-3.519,-3.519,-3.519,0.0,0.0,0.0,0.0,0.0,0.0,0.0,0.0,0.0,0.0,0.0,0.0,0.0,0.0,0.0,0.0,0.0,-3.8056,-3.8438,-3.7636,-3.6833,-3.5832,-3.435,-3.4014,0.0,-3.4014,-3.409,-3.4655,-3.6214,-3.587,-3.5916,-3.7521,-3.7177,-3.7551,-4.0034,-4.1227,0.0,0.0,-4.692,0.0,0.0,0.0,0.0,0.0,0.0,0.0,0.0,-5.1608,-5.12,-5.0512,-5.0359,-5.0283,-5.0283,-5.0283,-4.9901,-4.911,-4.911,-4.8181,-4.65,-4.65,0.0,0.0,0.0,0.0,0.0,-4.5621,-4.5736,-4.6424,-4.6424,-4.7455,-4.8907,-4.8838,-4.9387,-5.0111,0.0,0.0,0.0,0.0,0.0,0.0,0.0,0.0,0.0,0.0,-3.5488,-3.5572,-3.5763,-3.5458,-3.5267,0.0,0.0,0.0,0.0,0.0,0.0,0.0,0.0,0.0,-3.519,-3.519,-3.5305,-3.5488,-3.6175,-3.6481,-3.6481,-3.6481,-3.6405,-3.6175,-3.5488,-3.519,-3.519,-3.519,-3.519,-3.519,-3.519,-3.519,0.0,0.0,0.0,0.0,-3.519,-3.519,0.0,0.0,0.0,0.0,0.0,0.0,0.0,0.0,-3.519,-3.5305,-3.5687,0.0,-3.5122,-3.4931,-3.4235,-3.3654,0.0,-3.4014,-3.4014,-3.4014,-3.5037,-3.6023,-3.6443,-3.6833,-3.7445,-3.8514,-3.8553,-3.9088,-4.096,0.0,0.0,-4.6156,0.0,0.0,0.0,0.0,0.0,0.0,0.0,0.0,0.0,-5.1658,-5.1085,-5.2193,-5.0971,-5.0283,-5.0283,-5.0283,-4.9901,-4.911,-4.911,-4.8181,-4.65,-4.65,0.0,0.0,0.0,0.0,-4.6424,-4.5621,-4.5392,-4.5583,-4.5583,-4.6194,-4.7111,-4.7089,-4.801,-4.926,0.0,0.0,0.0,0.0,0.0,0.0,0.0,0.0,0.0,0.0,0.0,0.0,0.0,0.0,0.0,0.0,0.0,0.0,0.0,0.0,0.0,0.0,0.0,-3.519,-3.519,-3.519,-3.5411,-3.5793,-3.6252,-3.6672,-3.7024,-3.6672,-3.6481,-3.6443,-3.5602,-3.519,-3.519,-3.519,-3.519,-3.5229,-3.5641,0.0,0.0,0.0,0.0,0.0,-3.5335,-3.519,0.0,-3.519,-3.519,-3.519,0.0,0.0,0.0,0.0,-3.519,-3.5114,-3.4732,-3.4312,-3.409,-3.4464,-3.3616,-3.3005,-3.4273,-3.4273,-3.409,-3.4464,-3.5267,-3.6137,-3.691,-3.7101,-3.7674,-3.9317,-3.9623,0.0,0.0,0.0,-4.692,-4.8105,0.0,0.0,0.0,0.0,0.0,0.0,0.0,0.0,0.0,-5.1429,-5.1123,-5.162,-5.1162,-5.0703,-5.0283,-5.0283,-5.0092,-4.9633,-4.9633,-4.8754,-4.7101,-4.7101,-4.6691,0.0,0.0,0.0,-4.5927,-4.5468,-4.5288,-4.5288,-4.5288,-4.5774,-4.65,-4.65,-4.7319,-4.8506,0.0,0.0,0.0,0.0,0.0,0.0,0.0,0.0,0.0,0.0,0.0,0.0,0.0,0.0,0.0,0.0,0.0,0.0,0.0,0.0,0.0,0.0,-3.5267,-3.519,-3.519,-3.519,-3.5564,-3.629,-3.6557,-3.7024,-3.7674,-3.7139,-3.6748,-3.6481,-3.5717,-3.5335,-3.519,-3.519,-3.5267,-3.545,-3.6214,0.0,0.0,0.0,0.0,0.0,0.0,0.0,0.0,-3.519,-3.519,-3.519,-3.519,0.0,0.0,0.0,0.0,0.0,-3.435,-3.4159,-3.4312,-3.4885,-3.396,-3.3349,-3.5029,-3.4885,-3.4617,-3.542,-3.5687,-3.6222,-3.7636,-3.7445,-3.778,-3.9957,-4.0607,0.0,-4.5048,-4.6385,-4.7799,-4.971,0.0,0.0,0.0,0.0,0.0,0.0,0.0,0.0,0.0,-5.1085,-5.1123,-5.0512,-5.1085,-5.1047,-5.0321,-5.0283,-5.0283,-5.0283,-5.0168,-4.9366,-4.7979,-4.7712,-4.6844,0.0,0.0,0.0,-4.5288,-4.5288,-4.5288,-4.5288,-4.5288,-4.5736,-4.6309,-4.6309,-4.6882,-4.7723,0.0,0.0,0.0,0.0,0.0,0.0,0.0,0.0,0.0,0.0,0.0,0.0,0.0,0.0,0.0,0.0,0.0,0.0,0.0,0.0,0.0,-3.6252,-3.5602,-3.519,-3.519,-3.519,-3.5267,-3.5411,-3.6833,-3.7559,-3.7712,-3.8323,-3.7856,-3.6481,-3.6366,-3.587,-3.519,-3.519,-3.5641,-3.6328,-3.6443,0.0,0.0,0.0,0.0,0.0,0.0,0.0,0.0,-3.519,-3.519,-3.519,-3.519,0.0,0.0,0.0,0.0,0.0,-3.5037,-3.5037,-3.4885,-3.4312,-3.3968,-3.4235,-3.5908,-3.6214,-3.6328,-3.7139,-3.7903,-3.8514,-3.8744,-3.9308,-3.9843,-4.0225,0.0,-4.4121,0.0,0.0,0.0,0.0,0.0,0.0,0.0,0.0,0.0,0.0,0.0,0.0,0.0,-5.0818,-5.0779,-5.1391,-5.0818,-5.0436,-5.0283,-5.0283,-5.0283,-5.0283,-4.9595,-4.9137,-4.8831,-4.7379,-4.6577,0.0,0.0,-4.5288,-4.5288,-4.5288,-4.5288,-4.5288,-4.5288,-4.5403,-4.5468,-4.5468,-4.6003,-4.6806,0.0,0.0,0.0,0.0,0.0,0.0,0.0,0.0,0.0,0.0,0.0,0.0,0.0,0.0,0.0,0.0,0.0,0.0,0.0,0.0,-3.5602,-3.6443,-3.5679,-3.519,-3.519,-3.5641,-3.6107,-3.6566,-3.733,-3.8171,-3.9088,-3.8553,-3.7636,-3.6481,-3.6023,-3.5564,-3.5229,-3.5679,-3.587,-3.5908,0.0,0.0,0.0,0.0,0.0,0.0,0.0,0.0,0.0,0.0,-3.519,-3.519,-3.519,0.0,0.0,0.0,0.0,0.0,-3.4655,-3.4885,-3.5114,-3.4732,-3.4999,-3.5687,-3.6871,-3.7139,-3.7254,-3.7636,-3.8018,-3.8438,-3.8897,-3.969,-4.0874,-4.2717,0.0,-4.5277,0.0,0.0,0.0,0.0,0.0,0.0,0.0,0.0,0.0,0.0,0.0,0.0,0.0,0.0,-5.0474,-5.0894,-5.0512,-5.0283,-5.0283,-5.0283,-5.0283,-5.0283,-4.9939,-4.9251,-4.8372,-4.757,-4.6729,-4.5812,0.0,-4.5288,-4.5288,-4.5288,-4.5288,-4.5288,-4.5288,-4.5288,-4.5288,-4.5288,-4.5812,-4.6577,0.0,0.0,0.0,0.0,0.0,0.0,0.0,0.0,0.0,0.0,0.0,0.0,0.0,0.0,0.0,0.0,0.0,0.0,0.0,-3.5297,-3.5602,-3.6443,-3.587,-3.5611,-3.5763,-3.6443,-3.7177,-3.798,-3.8209,-3.8973,-4.0263,-3.8706,-3.7559,-3.6748,-3.587,-3.5373,-3.5229,-3.5908,-3.5946,-3.5679,0.0,0.0,0.0,0.0,0.0,0.0,0.0,0.0,0.0,0.0,0.0,0.0,0.0,0.0,0.0,-3.519,-3.519,-3.5076,-3.4464,-3.4732,-3.519,-3.519,-3.587,-3.6748,-3.7789,-3.798,-3.8056,-3.8285,-3.8476,-3.8744,-3.924,-4.0157,0.0,-4.4819,-4.5621,0.0,0.0,0.0,0.0,0.0,0.0,0.0,0.0,0.0,0.0,0.0,0.0,0.0,0.0,0.0,-5.0283,-5.0283,-5.0283,-5.0283,-5.0283,-5.0333,-5.0333,-5.0283,-4.9901,-4.9137,-4.8067,-4.7494,-4.6615,-4.5583,-4.5392,-4.5288,-4.5288,-4.5288,-4.5288,-4.5288,-4.5288,-4.5288,-4.5288,-4.5288,-4.5698,-4.6233,0.0,0.0,0.0,0.0,0.0,0.0,0.0,0.0,0.0,0.0,0.0,0.0,0.0,0.0,0.0,0.0,0.0,0.0,0.0,-3.5641,-3.5602,-3.6443,-3.6443,-3.6748,-3.7483,-3.7559,-3.8056,-3.8897,-3.9737,-4.0186,-4.0263,-3.9355,-3.8438,-3.7559,-3.6748,-3.5946,-3.519,-3.5267,-3.5717,-3.6481,-3.7406,0.0,0.0,0.0,0.0,0.0,0.0,0.0,0.0,0.0,0.0,0.0,0.0,0.0,-3.519,-3.519,-3.519,-3.519,-3.5114,-3.5152,-3.519,-3.519,-3.587,-3.6901,-3.8553,-3.8897,-3.9126,-3.9957,-4.0692,-4.1036,-4.0339,-4.1533,-4.3214,-4.501,-4.6615,0.0,0.0,0.0,0.0,0.0,0.0,0.0,0.0,0.0,0.0,0.0,0.0,0.0,0.0,0.0,0.0,-5.0283,-5.0283,-5.0283,-5.0283,-5.0367,-5.0367,-5.0283,-4.8716,-4.8334,-4.8919,-4.6549,-4.5812,-4.6385,-4.5621,-4.5288,-4.5288,-4.5288,-4.5288,-4.5288,-4.5288,-4.5288,-4.5288,-4.5288,-4.5326,-4.5403,0.0,0.0,0.0,0.0,0.0,0.0,0.0,0.0,0.0,0.0,0.0,0.0,0.0,0.0,0.0,0.0,0.0,0.0,0.0,-3.6175,-3.6366,-3.7215,-3.626,-3.6566,-3.8476,-3.8514,-3.8935,-3.9804,-4.0654,-4.0501,-3.947,-3.8591,-3.775,-3.691,-3.6061,-3.5488,-3.5229,-3.5793,-3.587,-3.587,-3.775,-3.8362,0.0,0.0,0.0,0.0,0.0,0.0,0.0,0.0,-3.5564,-3.5908,-3.5373,-3.519,-3.519,-3.519,-3.519,-3.5076,-3.4579,-3.4808,-3.5335,-3.587,-3.6642,-3.7559,-3.8744,-3.9814,-4.0654,-4.0998,-4.1724,-4.2374,-4.2555,-4.3128,-4.4274,-4.65,-4.7379,0.0,0.0,0.0,0.0,0.0,0.0,0.0,0.0,0.0,0.0,0.0,0.0,0.0,0.0,0.0,0.0,-5.0283,-5.0283,-5.0283,-5.0283,-5.0379,-5.0122,-4.9537,-4.8958,-4.8597,-4.8367,-4.6804,-4.6018,-4.5788,-4.5451,-4.5288,-4.5288,-4.5288,-4.5288,-4.5288,-4.5288,-4.5288,-4.5288,-4.5288,-4.5288,-4.5288,0.0,0.0,0.0,0.0,0.0,0.0,0.0,0.0,0.0,0.0,0.0,0.0,0.0,0.0,0.0,0.0,0.0,0.0,-3.6557,-3.6481,-3.6634,-3.691,-3.6069,-3.6566,-3.8553,-3.8858,-3.9546,-4.0692,-4.1227,-4.0654,-3.8973,-3.84,-3.7674,-3.6825,-3.5984,-3.5602,-3.5641,-3.5946,-3.5908,-3.5793,-3.7789,-3.84,0.0,0.0,0.0,0.0,0.0,0.0,0.0,0.0,-3.5602,-3.5984,-3.5373,-3.519,-3.5267,-3.5526,-3.5602,-3.5572,-3.5229,-3.5572,-3.6146,-3.671,-3.7483,-3.84,-3.9546,-4.0692,-4.1571,-4.1839,-4.2374,-4.3138,-4.4208,-4.4618,0.0,0.0,0.0,0.0,0.0,0.0,0.0,0.0,0.0,0.0,0.0,0.0,0.0,0.0,0.0,0.0,0.0,0.0,0.0,0.0,-5.0283,-5.0333,-5.0344,-5.0133,-4.9718,-4.9165,-4.868,-4.8153,-4.7547,-4.6626,-4.5926,-4.539,-4.5329,-4.5347,-4.5347,-4.5288,-4.5288,-4.5288,-4.5288,-4.5288,-4.5288,-4.5288,-4.5288,-4.5288,0.0,0.0,0.0,0.0,0.0,0.0,0.0,0.0,0.0,0.0,0.0,0.0,0.0,0.0,0.0,0.0,0.0,0.0,-3.6557,-3.6519,-3.6099,-3.5267,-3.6023,-3.6863,-3.7674,-3.8553,-3.9814,-4.1457,-4.1457,-4.0616,-3.8973,-3.8973,-3.8514,-3.7674,-3.6863,-3.6519,-3.6443,-3.5564,-3.5717,-3.6557,-3.7368,-3.8209,-3.9011,0.0,0.0,0.0,0.0,0.0,0.0,0.0,-3.5229,-3.5229,-3.519,-3.519,-3.5373,-3.6252,-3.6481,-3.6672,-3.7483,-3.7712,-3.7712,-3.7712,-3.8362,-3.947,-4.1151,-4.1495,-4.1762,-4.2641,-4.2794,-4.3329,-4.501,-4.5965,0.0,0.0,0.0,0.0,0.0,0.0,0.0,0.0,0.0,0.0,0.0,0.0,0.0,0.0,0.0,0.0,0.0,0.0,0.0,0.0,-5.0283,-5.0306,-5.0363,-4.9586,-4.9217,-4.9268,-4.7674,-4.6839,-4.6666,-4.5784,-4.541,-4.54,-4.539,-4.5408,-4.5398,-4.5347,-4.5288,-4.5288,-4.5288,-4.5288,-4.5288,-4.5288,-4.5288,-4.5288,0.0,0.0,0.0,0.0,0.0,0.0,0.0,0.0,0.0,0.0,0.0,0.0,0.0,0.0,0.0,0.0,0.0,0.0,-3.7406,-3.6825,-3.6366,-3.6137,-3.5755,-3.5984,-3.6825,-3.7674,-3.8629,-3.9737,-3.9737,-3.9164,-3.8094,-3.8094,-3.7941,-3.7674,-3.7445,-3.7024,-3.6481,-3.6214,-3.6252,-3.6557,-3.7368,-3.8209,-3.9088,0.0,0.0,0.0,0.0,0.0,0.0,0.0,0.0,0.0,-3.5373,-3.519,-3.5373,-3.6252,-3.6481,-3.6672,-3.7483,-3.7712,-3.798,-3.924,-3.9728,-4.0492,-4.2746,-4.2335,-4.1915,-4.3357,-4.3624,-4.4159,-4.5851,-4.6347,0.0,0.0,0.0,0.0,0.0,0.0,0.0,0.0,0.0,0.0,0.0,0.0,0.0,0.0,0.0,0.0,0.0,0.0,0.0,0.0,-4.9155,-4.9226,-4.8733,-4.8488,-4.8068,-4.754,-4.7097,-4.6876,-4.6809,-4.5898,-4.5457,-4.5457,-4.541,-4.5381,-4.5419,-4.536,-4.5357,-4.5288,-4.5288,-4.5288,-4.5288,-4.5288,-4.5288,-4.5288,0.0,0.0,0.0,0.0,0.0,0.0,0.0,0.0,0.0,0.0,-3.5641,-3.6413,0.0,0.0,0.0,0.0,0.0,0.0,0.0,-3.7254,-3.6672,-3.6023,-3.5488,-3.5602,-3.6481,-3.7292,-3.7789,-3.8009,-3.8323,-3.8209,-3.7712,-3.8056,-3.8209,-3.8209,-3.8209,-3.775,-3.6948,-3.6634,-3.6672,-3.7024,-3.7483,-3.8438,-3.9546,0.0,0.0,0.0,0.0,0.0,0.0,0.0,0.0,0.0,-3.5381,-3.519,-3.542,-3.6642,-3.6986,-3.7215,-3.84,-3.8973,-3.947,-4.0501,-4.1036,-4.1686,-4.3166,-4.3252,-4.3405,-4.4732,-4.5,-4.542,-4.6768,-4.7302,0.0,0.0,0.0,0.0,0.0,0.0,0.0,0.0,0.0,0.0,0.0,0.0,0.0,0.0,0.0,0.0,0.0,0.0,0.0,0.0,-4.8405,-4.8437,-4.7989,-4.7684,-4.729,-4.6848,-4.6529,-4.6394,-4.6355,-4.579,-4.555,-4.555,-4.5457,-4.5419,-4.54,-4.539,-4.5388,-4.5357,-4.5288,-4.5288,-4.5288,-4.5288,-4.5288,-4.5288,0.0,0.0,-3.7501,-3.6738,0.0,0.0,0.0,0.0,0.0,0.0,-3.519,-3.5802,0.0,0.0,0.0,0.0,0.0,0.0,0.0,-3.7559,-3.6795,-3.5267,-3.519,-3.5564,-3.6366,-3.7101,-3.7101,-3.6366,-3.7177,-3.7636,-3.7712,-3.8514,-3.8973,-3.9126,-3.9126,-3.8591,-3.7636,-3.6901,-3.7024,-3.7712,-3.7712,-3.8706,-4.011,-3.9317,0.0,0.0,0.0,0.0,0.0,0.0,0.0,0.0,-3.519,-3.519,-3.5534,-3.7215,-3.7712,-3.8094,-3.9843,-4.0883,-4.1533,-4.1609,-4.2335,-4.3023,-4.3023,-4.4208,-4.5507,-4.6233,-4.65,-4.6882,-4.775,-4.8563,0.0,0.0,0.0,0.0,0.0,0.0,0.0,0.0,0.0,0.0,0.0,0.0,0.0,0.0,0.0,0.0,0.0,0.0,0.0,-4.7806,-4.7854,-4.7836,-4.779,-4.705,-4.6733,0.0,-4.597,-4.5594,-4.5594,-4.5594,-4.5594,-4.5594,-4.555,-4.5457,-4.541,-4.54,-4.5418,-4.5398,-4.5309,-4.5326,-4.5288,-4.5288,-4.5288,-4.5288,0.0,0.0,-3.7821,-3.6118,0.0,0.0,0.0,0.0,0.0,0.0,0.0,0.0,0.0,0.0,0.0,0.0,0.0,0.0,0.0,-3.6489,-3.5572,-3.5229,-3.519,-3.5305,-3.5488,-3.5649,-3.5649,-3.5488,-3.6328,-3.7101,-3.7712,-3.7903,-3.8706,-4.0034,-4.0034,-3.9164,-3.7674,-3.7521,-3.7521,-3.7712,-3.7712,-3.8323,-3.9279,-3.9088,-3.8591,0.0,0.0,0.0,0.0,0.0,0.0,0.0,-3.519,-3.519,-3.5534,-3.7215,-3.7712,-3.8094,-3.9843,-4.0883,-4.1648,-4.2335,-4.3634,-4.4743,-4.4743,-4.5048,-4.5364,-4.5507,-4.6615,-4.7799,-4.864,0.0,0.0,0.0,0.0,0.0,0.0,0.0,0.0,0.0,0.0,0.0,0.0,0.0,0.0,0.0,0.0,0.0,0.0,0.0,0.0,-4.6071,-4.6686,-4.6743,-4.6115,-4.5923,-4.5885,0.0,-4.571,-4.5594,-4.5594,-4.5594,-4.5594,-4.5594,-4.5586,-4.555,-4.5466,-4.5495,-4.5438,-4.5408,-4.5388,-4.5357,-4.5288,-4.5288,-4.5288,-4.5288,0.0,0.0,0.0,0.0,0.0,0.0,0.0,0.0,0.0,0.0,0.0,0.0,0.0,0.0,0.0,0.0,-3.7597,0.0,0.0,0.0,-3.6413,-3.6413,-3.6413,-3.6413,-3.6413,-3.6031,-3.5832,-3.5832,-3.629,-3.6901,-3.7712,-3.7712,-3.8629,-4.0263,-3.9843,-3.8935,-3.7674,-3.7292,-3.7139,-3.7139,-3.7139,-3.7636,-3.8323,-3.7941,-3.7521,-3.7024,-3.6175,0.0,0.0,0.0,0.0,0.0,0.0,0.0,-3.5458,-3.6757,-3.7406,-3.798,-3.9317,-4.0883,-4.2412,-4.3673,-4.4628,-4.5288,-4.5288,-4.5583,-4.6003,-4.6424,-4.7188,-4.817,-4.9442,0.0,0.0,0.0,0.0,0.0,0.0,0.0,0.0,0.0,0.0,0.0,0.0,0.0,0.0,0.0,0.0,0.0,0.0,-4.6876,-4.681,-4.5589,-4.5973,-4.6021,-4.5594,-4.5594,-4.5594,-4.5594,-4.5594,-4.5594,-4.5594,-4.5594,-4.5594,-4.5594,-4.5594,-4.5577,-4.555,-4.5494,-4.5486,-4.5438,-4.5428,-4.5388,-4.5357,-4.5298,-4.5288,-4.5288,0.0,0.0,0.0,0.0,0.0,0.0,0.0,0.0,0.0,0.0,0.0,0.0,0.0,0.0,-3.6672,0.0,0.0,0.0,0.0,0.0,0.0,-3.7712,-3.7712,-3.7712,-3.7712,-3.6901,-3.6481,-3.6481,-3.6481,-3.6901,-3.7712,-3.7865,-3.8782,-4.0263,-3.9393,-3.8514,-3.7636,-3.6825,-3.6481,-3.6481,-3.6481,-3.6901,-3.7406,-3.6748,-3.6481,-3.6405,-3.5679,-3.5411,-3.5458,-3.5572,0.0,0.0,0.0,0.0,-3.542,-3.6405,-3.7101,-3.7712,-3.8744,-4.0769,-4.2985,-4.4666,-4.5086,-4.5125,-4.5288,-4.5812,-4.6538,-4.7406,-4.7712,-4.8323,0.0,0.0,0.0,0.0,0.0,0.0,0.0,0.0,0.0,0.0,0.0,0.0,0.0,0.0,0.0,0.0,0.0,0.0,-4.5477,-4.6139,-4.6262,-4.5633,-4.5594,-4.5594,-4.5594,-4.5594,-4.5594,-4.5594,-4.5594,-4.5594,-4.5594,-4.5594,-4.5594,-4.5594,-4.5594,-4.5594,-4.5586,-4.555,-4.5523,-4.5475,-4.5429,-4.5428,-4.537,-4.5357,-4.5337,-4.5337,0.0,0.0,0.0,0.0,0.0,0.0,0.0,0.0,0.0,0.0,-3.5378,-3.536,0.0,0.0,0.0,-3.7559,-3.7063,0.0,0.0,0.0,0.0,-3.7712,-3.7712,-3.7712,-3.7712,-3.6901,-3.6481,-3.6481,-3.6481,-3.6901,-3.7712,-3.8476,-3.9355,-4.0263,-3.9393,-3.8514,-3.7636,-3.6825,-3.6481,-3.6481,-3.6481,-3.6557,-3.6634,-3.6557,-3.6481,-3.6481,-3.6366,-3.6328,-3.6443,-3.7139,-3.6413,0.0,0.0,0.0,-3.5496,-3.7063,-3.7139,-3.7016,-3.8591,-4.031,-4.2068,-4.3739,-4.4159,-4.435,-4.5125,-4.5392,-4.5698,0.0,-4.7253,0.0,0.0,0.0,0.0,0.0,0.0,0.0,0.0,0.0,0.0,0.0,0.0,0.0,0.0,0.0,0.0,0.0,0.0,0.0,-4.54,-4.5572,-4.5656,-4.5594,-4.5594,-4.5594,-4.5594,-4.5594,-4.5594,-4.5594,-4.5594,-4.5594,-4.5594,-4.5594,-4.5594,-4.5594,-4.5594,-4.5594,-4.5594,-4.5586,-4.5559,-4.5523,-4.5505,-4.5438,-4.539,-4.538,-4.5398,-4.5388,0.0,0.0,0.0,0.0,0.0,0.0,0.0,0.0,0.0,0.0,0.0,-3.6036,0.0,0.0,0.0,0.0,0.0,0.0,0.0,0.0,0.0,-3.9126,-3.9164,-3.9164,-3.9164,-3.7865,-3.7177,-3.7177,-3.7177,-3.7368,-3.7712,-3.9088,-3.9919,-4.0225,-3.8897,-3.8056,-3.7636,-3.6337,-3.5755,-3.5755,-3.5755,-3.6061,-3.6481,-3.6481,-3.6787,-3.7177,-3.7177,-3.7177,-3.7215,-3.7559,-3.7215,-3.6719,-3.7483,0.0,0.0,0.0,-3.7445,-3.7559,-3.9279,-4.0272,-4.1227,-4.2908,-4.3663,-4.4083,-4.4475,-4.4934,-4.5507,-4.6347,0.0,0.0,0.0,0.0,0.0,0.0,0.0,0.0,0.0,0.0,0.0,0.0,0.0,0.0,0.0,0.0,0.0,0.0,0.0,-4.539,-4.54,-4.5457,-4.5541,-4.5594,-4.5594,-4.5594,-4.5594,-4.5594,-4.5594,-4.5594,-4.5594,-4.5594,-4.5594,-4.5594,-4.5594,-4.5594,-4.5594,-4.5594,-4.5594,-4.5594,-4.5577,-4.5559,-4.5494,-4.5466,-4.5438,-4.539,-4.539,-4.5398,0.0,0.0,0.0,0.0,0.0,0.0,0.0,0.0,0.0,0.0,0.0,0.0,0.0,0.0,0.0,0.0,0.0,0.0,0.0,0.0,0.0,0.0,0.0,-4.0301,-4.0301,-3.8591,-3.7712,-3.7712,-3.7483,-3.7483,-3.7712,-3.9279,-4.0072,-4.0225,-3.8706,-3.7903,-3.7597,-3.6146,-3.5411,-3.5229,-3.545,-3.5908,-3.6519,-3.671,-3.733,-3.8018,-3.8018,-3.8018,-3.8056,-3.8285,-3.8056,-3.7789,-3.8209,-3.8056,0.0,0.0,0.0,-3.7674,-3.8964,-3.9461,-4.0043,-4.1724,-4.2631,-4.3166,-4.3586,-4.4208,-4.4819,0.0,0.0,0.0,0.0,0.0,0.0,0.0,0.0,0.0,0.0,0.0,0.0,0.0,0.0,0.0,0.0,0.0,0.0,0.0,0.0,-4.539,-4.54,-4.5457,-4.5541,-4.5594,-4.5594,-4.5594,-4.5594,-4.5594,-4.5594,-4.5594,-4.5594,-4.5594,-4.5594,-4.5594,-4.5594,-4.5594,-4.5594,-4.5594,-4.5594,-4.5594,-4.5594,-4.5586,-4.555,-4.5541,-4.5532,-4.5448,-4.539,-4.538,0.0,0.0,0.0,0.0,0.0,0.0,0.0,0.0,0.0,0.0,0.0,0.0,-3.6629,-3.6489,-3.6481,-3.6481,-3.6481,0.0,0.0,0.0,0.0,0.0,0.0,0.0,-4.0301,-3.8591,-3.7712,-3.7712,-3.6939,-3.6948,-3.7712,-3.8629,-3.9508,-4.0263,-3.9355,-3.8476,-3.7636,-3.6787,-3.5946,-3.5259,-3.6099,-3.6443,-3.6596,-3.7368,-3.8171,-3.8935,-3.8935,-3.8935,0.0,0.0,0.0,0.0,-3.9652,-3.9049,-3.7712,0.0,0.0,0.0,-3.6672,-3.7254,-3.8247,-3.9995,-4.0454,-4.0912,-4.2488,0.0,-4.2947,0.0,0.0,0.0,0.0,0.0,0.0,0.0,0.0,0.0,0.0,0.0,0.0,0.0,0.0,0.0,0.0,0.0,0.0,0.0,0.0,-4.539,-4.54,-4.5457,-4.5541,-4.5594,-4.5594,-4.5594,-4.5594,-4.5594,-4.5594,-4.5594,-4.5594,-4.5594,-4.5594,-4.5594,-4.5594,-4.5594,-4.5594,-4.5594,-4.5594,-4.5594,-4.5594,-4.5594,-4.5586,-4.5586,-4.5586,-4.5532,-4.5448,-4.539,0.0,0.0,0.0,0.0,0.0,0.0,0.0,0.0,0.0,0.0,0.0,0.0,0.0,-3.6481,-3.6481,-3.6481,-3.6481,0.0,0.0,0.0,0.0,0.0,0.0,0.0,-3.947,-3.7789,-3.6939,-3.6939,-3.6634,-3.6634,-3.6948,-3.7789,-3.8323,-3.8629,-3.8285,-3.798,-3.7597,-3.626,-3.5793,-3.6061,-3.6366,-3.713,-3.8132,-3.8438,-3.9088,-3.9843,-3.9843,0.0,0.0,0.0,0.0,0.0,0.0,0.0,-3.9164,-3.8018,-3.7139,-3.6481,-3.6481,-3.671,-3.7215,-3.8362,-3.9049,-3.9775,-4.0922,-4.1609,-4.2106,0.0,0.0,0.0,0.0,0.0,0.0,0.0,0.0,0.0,0.0,0.0,0.0,0.0,0.0,0.0,0.0,0.0,0.0,0.0,0.0,0.0,-4.54,-4.5419,-4.5475,-4.5594,-4.5594,-4.5594,-4.5594,-4.5594,-4.5594,-4.5594,-4.5594,-4.5594,-4.5594,-4.5594,-4.5594,-4.5594,-4.5594,-4.5594,-4.5594,-4.5594,-4.5594,-4.5594,-4.5594,-4.5594,-4.5594,-4.5577,-4.5532,-4.5448,0.0,0.0,0.0,0.0,0.0,-3.7708,-3.7517,-3.6908,-3.6416,-3.6189,0.0,0.0,0.0,0.0,-3.7092,-3.6557,-3.6748,-3.7024,-3.7292,-3.8094,0.0,0.0,0.0,0.0,-3.8553,-3.7207,-3.6481,-3.6481,-3.6214,-3.6214,-3.6519,-3.7063,-3.7445,-3.7674,-3.7406,-3.7292,-3.7254,-3.6413,-3.6222,-3.6557,-3.7092,-3.8009,-3.9049,-3.9317,-3.9804,0.0,0.0,0.0,0.0,0.0,0.0,0.0,0.0,0.0,-3.9584,-3.8132,-3.7139,-3.6481,-3.6481,-3.629,-3.6328,-3.7445,-3.7941,-3.8467,-3.9613,-4.0272,-4.0922,0.0,0.0,0.0,0.0,0.0,0.0,0.0,0.0,0.0,0.0,0.0,0.0,0.0,0.0,0.0,0.0,0.0,0.0,0.0,0.0,0.0,-4.54,-4.5419,-4.5466,-4.5594,-4.5594,-4.5594,-4.5594,-4.5594,-4.5594,-4.5594,-4.5594,-4.5594,-4.5594,-4.5594,-4.5594,-4.5594,-4.5594,-4.5594,-4.5594,-4.5594,-4.5594,-4.5594,-4.5594,-4.5594,-4.5594,-4.5594,-4.5559,-4.5475,0.0,-4.0301,-4.0301,-4.0301,-4.0263,-3.9957,-3.9088,-3.8935,-3.8629,-3.775,0.0,0.0,0.0,0.0,0.0,-3.6634,-3.7215,-3.733,-3.6519,-3.7215,0.0,0.0,0.0,0.0,-3.7674,-3.6863,-3.6443,-3.6443,-3.5602,-3.5641,-3.6443,-3.6443,-3.6863,-3.7597,-3.6825,-3.6443,-3.6519,-3.733,-3.7215,-3.6672,-3.8323,-3.9011,-3.9126,-3.9995,0.0,0.0,-4.0301,-4.0301,0.0,-4.0301,0.0,0.0,0.0,0.0,-3.882,-3.7941,-3.7139,-3.6519,0.0,0.0,0.0,-3.7254,-3.7063,-3.6901,-3.8553,0.0,-3.9202,0.0,0.0,0.0,0.0,0.0,0.0,0.0,0.0,0.0,0.0,0.0,0.0,0.0,0.0,0.0,0.0,0.0,0.0,0.0,0.0,-4.539,-4.54,-4.5457,-4.5541,-4.5594,-4.5594,-4.5594,-4.5594,-4.5594,-4.5594,-4.5594,-4.5594,-4.5594,-4.5594,-4.5594,-4.5594,-4.5594,-4.5594,-4.5594,-4.5594,-4.5594,-4.5594,-4.5594,-4.5594,-4.5594,-4.5594,-4.5594,-4.5559,-4.5523,-4.0301,-4.0301,-4.0301,-4.0301,-3.9766,-3.9088,-3.8171,-3.7559,-3.6863,0.0,0.0,0.0,-3.6863,-3.7559,-3.7636,-3.6596,-3.671,-3.6481,-3.5602,-3.6366,-3.6825,-3.6825,-3.6825,-3.6825,-3.6825,-3.5984,-3.5564,-3.5564,-3.5305,-3.5335,-3.5564,-3.5564,-3.5687,-3.5878,-3.5649,-3.5564,-3.5602,-3.6481,-3.7024,-3.7445,-3.8553,-3.9393,-3.9957,0.0,0.0,0.0,0.0,-4.0301,-4.0301,0.0,-4.0301,-4.0301,0.0,-3.969,-3.882,-3.7941,-3.7521,-3.7254,-3.6672,0.0,0.0,0.0,0.0,0.0,-3.6939,-3.7636,-3.8323,0.0,0.0,0.0,0.0,0.0,0.0,0.0,0.0,0.0,0.0,0.0,0.0,0.0,0.0,0.0,0.0,0.0,0.0,0.0,-4.5378,-4.539,-4.54,-4.5523,-4.5577,-4.5594,-4.5594,-4.5594,-4.5594,-4.5594,-4.5594,-4.5594,-4.5594,-4.5594,-4.5594,-4.5594,-4.5594,-4.5594,-4.5594,-4.5594,-4.5594,-4.5594,-4.5594,-4.5594,-4.5594,-4.5594,-4.5594,-4.5594,-4.5586,-4.5645,-4.0301,-4.0301,-4.0301,-4.0301,-3.9881,-3.924,-3.8362,-3.7559,-3.6719,0.0,0.0,0.0,-3.8009,-3.8514,-3.8285,-3.7101,-3.6986,-3.6489,-3.5267,-3.5679,-3.5946,-3.5946,-3.5946,-3.6137,-3.6481,-3.5641,-3.5373,-3.5755,-3.5373,-3.519,-3.519,-3.519,-3.519,-3.519,-3.519,-3.519,-3.5267,-3.6137,-3.6948,-3.7789,-3.8667,0.0,0.0,-4.0301,-4.0301,0.0,0.0,0.0,-4.0301,-4.0301,-4.0301,0.0,0.0,0.0,-3.9355,0.0,-3.8247,-3.8132,-3.7665,-3.7283,-3.6986,-3.6986,0.0,0.0,-3.6366,-3.7139,-3.7941,0.0,0.0,0.0,0.0,0.0,0.0,0.0,0.0,0.0,0.0,0.0,0.0,0.0,0.0,0.0,0.0,0.0,0.0,-4.5288,-4.5378,-4.54,-4.5429,-4.555,-4.5594,-4.5594,-4.5594,-4.5594,-4.5594,-4.5594,-4.5594,-4.5594,-4.5594,-4.5594,-4.5594,-4.5594,-4.5594,-4.5594,-4.5594,-4.5594,-4.5594,-4.5594,-4.5594,-4.5594,-4.5594,-4.5594,-4.5594,-4.5594,-4.5594,-4.5663,0.0,-4.0301,-4.0301,-4.0301,-4.0301,-3.9995,-3.9126,-3.8323,-3.7559,0.0,-3.733,-3.8476,-4.011,-4.0301,-3.9623,-3.7865,-3.7712,-3.6986,-3.5305,-3.519,-3.519,-3.519,-3.5305,-3.5717,-3.6481,-3.5755,-3.5717,-3.6481,-3.5641,-3.519,-3.519,-3.519,-3.519,-3.519,-3.519,-3.519,-3.5267,-3.6137,-3.6948,-3.7789,-3.8667,-3.9508,0.0,0.0,-4.0301,-4.0301,-4.0301,-4.0301,-4.0301,-4.0301,-4.0301,0.0,0.0,0.0,0.0,0.0,-3.9088,-3.9126,-3.9049,-3.8438,-3.7827,-3.7827,-3.7177,0.0,-3.6596,-3.7139,-3.7827,0.0,0.0,0.0,0.0,0.0,0.0,0.0,0.0,0.0,0.0,0.0,0.0,0.0,0.0,0.0,0.0,-4.393,-4.435,-4.5239,-4.5339,-4.5419,-4.5523,-4.5568,-4.5594,-4.5594,-4.5594,-4.5594,-4.5594,-4.5594,-4.5594,-4.5594,-4.5594,-4.5594,-4.5594,-4.5594,-4.5594,-4.5594,-4.5594,-4.5594,-4.5594,-4.5594,-4.5594,-4.5594,-4.5594,-4.5594,-4.5594,-4.5594,-4.5594,-4.5594,-4.0301,-4.0301,-4.0301,-4.0301,-4.0301,-3.9995,-3.9126,-3.8858,-3.8438,-3.7597,-3.8209,-3.9126,-4.0186,-4.0301,-3.9623,-3.7865,-3.7712,-3.6986,-3.5305,-3.519,-3.519,-3.519,-3.587,-3.6328,-3.6481,-3.6328,-3.6328,-3.6481,-3.5641,-3.519,-3.519,-3.519,-3.519,-3.519,-3.519,-3.519,-3.5267,-3.6137,0.0,-3.7789,-3.8667,0.0,-4.0301,-4.0301,-4.0301,-4.0301,-4.0301,-4.0301,-4.0301,-4.0301,-4.0301,-4.0301,0.0,0.0,0.0,-3.9279,0.0,0.0,0.0,0.0,0.0,0.0,0.0,0.0,-3.733,-3.7101,-3.7169,0.0,0.0,0.0,0.0,0.0,0.0,0.0,0.0,0.0,0.0,0.0,0.0,0.0,0.0,0.0,0.0,-4.3624,-4.435,-4.5239,-4.537,-4.5438,-4.5577,-4.5586,-4.5594,-4.5594,-4.5594,-4.5594,-4.5594,-4.5594,-4.5594,-4.5594,-4.5594,-4.5594,-4.5594,-4.5594,-4.5594,-4.5594,-4.5594,-4.5594,-4.5594,-4.5594,-4.5594,-4.5594,-4.5594,-4.5594,-4.5594,-4.5594,-4.5594,-4.571,-4.0301,-4.0301,-4.0301,-4.0301,-4.0301,-4.0148,-3.9737,-3.9279,-3.8858,-3.84,-3.8744,-3.9317,-4.0186,-3.9919,-3.9126,-3.7827,-3.733,-3.6566,-3.5267,-3.519,-3.519,-3.519,-3.5602,-3.6061,-3.6481,-3.6061,-3.6061,-3.6481,-3.5641,-3.519,-3.519,-3.519,-3.5411,-3.5832,-3.5832,-3.6069,-3.6489,-3.691,-3.7597,-3.84,-3.882,0.0,-4.0301,-4.0301,-4.0301,-4.0301,-4.0301,-4.0301,-4.0301,-4.0301,-4.0301,0.0,0.0,-4.0301,-4.0225,0.0,-3.9957,-4.0186,0.0,0.0,0.0,-3.9126,0.0,0.0,0.0,-3.7712,-3.7971,0.0,0.0,0.0,0.0,0.0,0.0,0.0,0.0,0.0,0.0,0.0,0.0,0.0,0.0,0.0,0.0,-4.3176,-4.395,-4.5243,-4.5361,-4.5438,-4.555,-4.5577,-4.5594,-4.5594,-4.5594,-4.5594,-4.5594,-4.5594,-4.5594,-4.5594,-4.5594,-4.5594,-4.5594,-4.5594,-4.5594,-4.5594,-4.5594,-4.5594,-4.5594,-4.5594,-4.5594,-4.5594,-4.5594,-4.5594,-4.5594,-4.5594,-4.5594,-4.5671,-4.0301,-4.0301,-4.0301,-4.0301,-4.0301,-4.0301,-4.0301,-3.969,-3.924,-3.924,-3.924,-3.9508,-4.0225,-3.9652,-3.8897,-3.8018,-3.7215,-3.6443,-3.5725,-3.5534,-3.545,-3.545,-3.5611,-3.5946,-3.6481,-3.5946,-3.6031,-3.671,-3.6031,-3.5687,-3.5687,-3.5687,-3.6069,-3.671,-3.671,-3.7101,-3.7712,-3.7865,0.0,-3.9011,0.0,-3.9652,-4.0301,-4.0301,-4.0301,-4.0301,-4.0301,-4.0301,-4.0301,-4.0492,-4.0416,-4.0339,-4.0492,-4.0416,0.0,0.0,0.0,0.0,0.0,0.0,0.0,0.0,0.0,-3.8858,0.0,0.0,0.0,0.0,0.0,0.0,0.0,0.0,0.0,0.0,0.0,0.0,0.0,0.0,0.0,0.0,0.0,0.0,0.0,-4.2842,-4.3713,-4.5283,-4.5419,-4.5438,-4.5514,-4.5568,-4.5594,-4.5594,-4.5594,-4.5594,-4.5594,-4.5594,-4.5594,-4.5594,-4.5594,-4.5594,-4.5594,-4.5594,-4.5594,-4.5594,-4.5594,-4.5594,-4.5594,-4.5594,-4.5594,-4.5594,-4.5594,-4.5594,-4.5594,-4.5594,-4.5594,-4.5594,-4.0301,-4.0301,-4.0301,-4.0301,-4.0301,-4.0301,-4.0301,-4.0225,-4.0148,-4.0148,-4.0148,-4.0186,-4.0301,-4.0225,-3.9804,-3.8935,-3.8056,-3.7521,-3.7406,-3.6757,-3.6366,-3.6366,-3.7024,-3.7139,-3.6519,-3.7101,-3.7445,-3.7559,-3.7445,-3.7406,-3.7406,-3.7406,-3.7483,-3.7559,-3.7559,-3.7597,-3.775,-3.8514,-3.8897,0.0,-3.9843,-4.0225,0.0,-4.0301,-4.0301,-4.0301,-4.0301,-4.0301,-4.0416,0.0,-4.0883,-4.0416,0.0,-4.0883,-4.0301,-4.0301,0.0,0.0,0.0,0.0,0.0,0.0,-3.9584,0.0,0.0,0.0,0.0,0.0,0.0,0.0,0.0,0.0,0.0,0.0,0.0,0.0,0.0,0.0,0.0,0.0,0.0,0.0,0.0,0.0,-4.4355,-4.5331,-4.5458,-4.5475,-4.5485,-4.5568,-4.5594,-4.5594,-4.5594,-4.5594,-4.5594,-4.5594,-4.5594,-4.5594,-4.5594,-4.5594,-4.5594,-4.5594,-4.5594,-4.5594,-4.5594,-4.5594,-4.5594,-4.5594,-4.5594,-4.5594,-4.5594,-4.5594,-4.5594,-4.5594,-4.5594,-4.5594,-4.0301,-4.0301,-4.0301,-4.0301,-4.0301,-4.0301,-4.0301,-4.0301,-4.011,-3.9623,-4.0387,-4.0998,-4.0998,-4.0998,-4.0845,-4.0463,0.0,-3.7712,0.0,0.0,-3.6481,-3.6481,-3.7254,-3.7521,-3.7215,-3.7521,-3.7712,-3.7712,-3.7712,-3.7712,-3.7712,-3.7712,-3.798,-3.8438,-3.8438,-3.8744,-3.924,0.0,-3.9728,0.0,0.0,0.0,0.0,-4.0301,-4.0301,-4.0301,-4.0301,-4.0301,-4.0339,0.0,-4.0578,0.0,0.0,0.0,0.0,0.0,0.0,0.0,0.0,0.0,0.0,0.0,0.0,0.0,-4.0225,0.0,-3.9431,0.0,0.0,0.0,0.0,0.0,0.0,0.0,0.0,0.0,0.0,0.0,0.0,0.0,0.0,0.0,0.0,0.0,0.0,0.0,0.0,-4.4958,-4.5521,-4.5586,-4.5594,-4.5594,-4.5594,-4.5594,-4.5594,-4.5594,-4.5594,-4.5594,-4.5594,-4.5594,-4.5594,-4.5594,-4.5594,-4.5594,-4.5594,-4.5594,-4.5594,-4.5594,-4.5594,-4.5594,-4.5594,-4.5594,-4.5594,-4.5594,-4.5594,-4.5594,-4.0301,-4.0301,-4.0301,-4.0301,-4.0301,-4.0301,-4.0301,-4.011,-3.989,-3.9699,-4.0731,-4.1571,-4.1839,-4.1839,0.0,0.0,-3.9928,-3.882,0.0,0.0,-3.7856,0.0,0.0,0.0,0.0,-3.8056,-3.8056,-3.8056,-3.8285,-3.84,-3.84,-3.84,-3.8744,-3.9355,-3.9355,-3.9699,-4.0301,0.0,-4.0301,-4.0301,-4.0301,-4.0301,-4.0301,-4.0301,-4.0301,-4.0301,-4.0301,-4.0301,-4.0339,-4.054,-4.0492,0.0,-4.1266,0.0,0.0,0.0,0.0,0.0,-4.0301,0.0,0.0,0.0,0.0,0.0,0.0,0.0,0.0,0.0,0.0,0.0,0.0,0.0,0.0,0.0,0.0,0.0,0.0,0.0,0.0,0.0,0.0,0.0,0.0,0.0,0.0,0.0,0.0,0.0,-4.553,-4.5586,-4.5594,-4.5594,-4.5594,-4.5594,-4.5594,-4.5594,-4.5594,-4.5594,-4.5594,-4.5594,-4.5594,-4.5594,-4.5594,-4.5594,-4.5594,-4.5594,-4.5594,-4.5594,-4.5594,-4.5594,-4.5594,-4.5594,-4.5594,-4.5594,-4.5594,-4.5594,-4.0301,-4.0301,-4.0301,-4.0301,-4.0301,-4.0301,0.0,0.0,0.0,0.0,0.0,0.0,0.0,0.0,0.0,0.0,0.0,-4.1724,-4.2565,0.0,-4.1342,0.0,0.0,-3.9804,0.0,0.0,-3.8973,-3.8973,-3.9804,-4.0225,-4.0225,-4.0225,-4.0225,-4.0263,-4.0263,-4.0263,-4.0301,-4.0301,-4.0301,-4.0301,-4.0301,-4.0301,-4.0301,0.0,-4.0301,-4.0301,-4.0301,0.0,0.0,-4.1189,-4.096,0.0,0.0,0.0,0.0,0.0,0.0,0.0,0.0,0.0,0.0,-4.0301,0.0,0.0,0.0,0.0,-4.0301,0.0,0.0,0.0,0.0,0.0,-4.0034,-3.9164,-3.9728,0.0,0.0,0.0,0.0,0.0,0.0,0.0,0.0,0.0,0.0,0.0,0.0,0.0,-4.5446,-4.5568,-4.5594,-4.5594,-4.5594,-4.5594,-4.5594,-4.5594,-4.5594,-4.5594,-4.5594,-4.5594,-4.5594,-4.5594,-4.5594,-4.5594,-4.5594,-4.5594,-4.5594,-4.5594,-4.5594,-4.5594,-4.5594,-4.5594,-4.5594,-4.5594,-4.5594,-4.5594,-4.0301,-4.0301,-4.0301,-4.0301,-4.0301,-4.011,0.0,-4.0119,0.0,0.0,0.0,0.0,0.0,-4.4437,-4.4437,0.0,0.0,-4.2488,-4.2794,-4.1991,0.0,0.0,0.0,-4.1839,0.0,0.0,0.0,0.0,-4.0425,-4.0301,-4.0301,-4.0301,-4.0301,-4.0301,-4.0301,-4.0301,0.0,0.0,0.0,0.0,0.0,-4.0301,-4.0301,0.0,0.0,-4.0301,-4.0301,-4.0301,0.0,-4.0616,-4.054,-4.0454,-4.1266,-4.096,-4.0416,-4.0922,-4.0731,0.0,0.0,0.0,-4.0301,-4.0301,0.0,0.0,0.0,0.0,0.0,0.0,0.0,0.0,0.0,0.0,-4.0186,-3.9919,-4.011,-4.0186,0.0,0.0,0.0,0.0,0.0,0.0,0.0,0.0,0.0,0.0,0.0,0.0,0.0,-4.526,-4.5594,-4.5594,-4.5594,-4.5594,-4.5594,-4.5594,-4.5594,-4.5594,-4.5594,-4.5594,-4.5594,-4.5594,-4.5594,-4.5594,-4.5594,-4.5594,-4.5594,-4.5594,-4.5594,-4.5594,-4.5594,-4.5594,-4.5594,-4.5594,-4.5594,-4.5594,-4.0301,-4.0301,-4.0301,-4.0301,-4.0301,0.0,0.0,0.0,0.0,0.0,-4.4055,0.0,-4.608,0.0,-4.5736,0.0,-4.4475,-4.3673,-4.3673,-4.3138,0.0,-4.2832,-4.31,0.0,0.0,0.0,0.0,0.0,0.0,-4.0578,-4.0301,-4.0301,-4.0301,-4.0301,-4.0301,-4.0301,-4.0301,-4.0301,-4.0301,0.0,0.0,-4.0301,0.0,0.0,-4.0301,-4.0301,0.0,-4.0301,-4.0301,-4.0301,-4.0301,-4.0377,-4.0922,-4.0731,-4.0416,-4.0922,-4.0922,-4.0731,-4.0731,-4.096,0.0,-4.1189,-4.1571,0.0,-4.1953,0.0,0.0,0.0,0.0,0.0,0.0,0.0,-4.0301,-4.0301,-4.0301,-4.0301,0.0,-4.0301,0.0,0.0,0.0,0.0,0.0,0.0,0.0,0.0,-4.2483,0.0,0.0,0.0,-4.5594,-4.5594,-4.5594,-4.5594,-4.5594,-4.5594,-4.5594,-4.5594,-4.5594,-4.5594,-4.5594,-4.5594,-4.5594,-4.5594,-4.5594,-4.5594,-4.5594,-4.5594,-4.5594,-4.5594,-4.5594,-4.5594,-4.5594,-4.5594,-4.5594,-4.5594,-4.0186,-4.0225,-4.0339,0.0,-4.0339,0.0,0.0,0.0,-4.352,0.0,-4.6042,-4.692,-4.775,-4.7035,-4.65,-4.65,-4.5774,-4.5288,-4.5288,-4.5288,0.0,0.0,-4.4513,-4.4045,-4.4045,0.0,0.0,0.0,0.0,-4.1074,-4.0301,-4.0301,-4.0301,-4.0301,-4.0301,0.0,-4.0301,-4.0301,-4.0301,-4.0301,-4.0301,-4.0301,-4.0301,-4.0301,-4.0301,-4.0301,-4.0301,-4.0301,-4.0301,-4.0301,-4.0301,-4.0301,-4.0301,-4.0301,-4.0301,-4.0301,-4.0845,-4.1457,-4.1495,-4.2106,-4.2756,-4.2794,0.0,0.0,0.0,0.0,-4.2565,0.0,0.0,0.0,0.0,0.0,0.0,-4.0339,-4.0339,-4.0301,-4.0339,0.0,0.0,0.0,0.0,0.0,0.0,0.0,-4.079,-4.1566,-4.2574,-4.3483,0.0,0.0,-4.5594,-4.5594,-4.5594,-4.5594,-4.5594,-4.5594,-4.5594,-4.5594,-4.5594,-4.5594,-4.5594,-4.5594,-4.5594,-4.5594,-4.5594,-4.5594,-4.5594,-4.5594,-4.5594,-4.5594,-4.5594,-4.5594,-4.5594,-4.5594,-4.5594,-4.5594,-3.8476,-3.9431,-4.0683,0.0,-4.1141,-4.0798,0.0,0.0,0.0,0.0,-4.6959,-4.7799,-4.8678,-4.7417,-4.65,-4.65,-4.5774,0.0,0.0,0.0,0.0,-4.5288,-4.5086,-4.4972,-4.4972,-4.4131,0.0,-4.245,0.0,0.0,-4.0301,-4.0301,-4.0301,-4.0301,-4.0301,-4.0301,-4.0301,-4.0301,-4.0301,-4.0301,-4.0301,-4.0301,0.0,0.0,-4.0301,-4.0301,-4.0301,-4.0301,-4.0301,-4.0301,-4.0301,-4.0301,-4.0301,-4.0301,-4.0301,-4.0301,-4.0454,-4.0731,-4.1342,-4.1648,-4.1991,-4.2641,-4.3252,-4.3701,0.0,0.0,0.0,0.0,0.0,0.0,0.0,0.0,0.0,-4.1074,-4.0692,-4.0492,0.0,0.0,0.0,-4.1495,0.0,0.0,0.0,-4.1291,-4.1156,-4.0841,-4.2761,-4.3759,0.0,0.0,0.0,-4.5594,-4.5594,-4.5594,-4.5594,-4.5594,-4.5594,-4.5594,-4.5594,-4.5594,-4.5594,-4.5594,-4.5594,-4.5594,-4.5594,-4.5594,-4.5594,-4.5594,-4.5594,-4.5594,-4.5594,-4.5594,-4.5594,-4.5594,-4.5594,-4.571,-3.947,-4.0157,0.0,-4.3023,0.0,0.0,-4.3673,0.0,0.0,-4.6959,-4.7837,0.0,-4.8525,-4.7646,-4.692,-4.6538,-4.5774,0.0,-4.5288,0.0,0.0,-4.5288,-4.5288,-4.5288,-4.5288,-4.4437,0.0,-4.2794,0.0,0.0,-4.0301,-4.0301,-4.0301,-4.0301,-4.0301,-4.0301,-4.0301,-4.0301,-4.0301,-4.0301,-4.0301,0.0,0.0,-4.0301,-4.0301,-4.0301,-4.0301,-4.0301,-4.0301,-4.0301,-4.0301,-4.0301,-4.0301,-4.0301,-4.0301,-4.0301,-4.054,-4.0998,-4.1839,-4.2335,-4.2794,-4.3673,-4.4246,-4.459,-4.459,-4.4208,-4.3902,0.0,0.0,0.0,0.0,0.0,0.0,0.0,0.0,0.0,0.0,0.0,0.0,0.0,-4.2718,0.0,0.0,-4.2402,-4.1942,-4.1562,-4.3212,0.0,0.0,0.0,0.0,-4.5594,-4.5594,-4.5594,-4.5594,-4.5594,-4.5594,-4.5594,-4.5594,-4.5594,-4.5594,-4.5594,-4.5594,-4.5594,-4.5594,-4.5594,-4.5594,-4.5594,-4.5594,-4.5594,-4.5594,-4.5594,-4.5594,-4.5594,-4.5594,-4.571,-4.1648,-4.1648,0.0,0.0,0.0,0.0,0.0,-4.6309,0.0,-4.7876,0.0,-4.8984,-4.8208,-4.7941,-4.7483,-4.6729,0.0,-4.5288,-4.5288,-4.5288,-4.5288,-4.5288,-4.5288,-4.5288,-4.5288,-4.4437,-4.3624,0.0,0.0,-4.1074,-4.0301,-4.0301,-4.0301,-4.0301,-4.0301,0.0,0.0,-4.0301,-4.0301,-4.0301,-4.0301,-4.0301,-4.0301,-4.0301,-4.0301,-4.0301,-4.0301,-4.0301,-4.0301,-4.0301,-4.0301,-4.0301,-4.0301,-4.0301,-4.0301,-4.0301,-4.0883,-4.1686,-4.2565,-4.3405,-4.4197,-4.5086,-4.5288,-4.5288,-4.5288,-4.5201,-4.4934,-4.4312,-4.4006,-4.3701,0.0,0.0,0.0,0.0,0.0,0.0,0.0,0.0,0.0,0.0,0.0,0.0,0.0,0.0,-4.2995,-4.2926,-4.3883,0.0,0.0,0.0,0.0,-4.5594,-4.5594,0.0,-4.5594,0.0,-4.5594,-4.5594,-4.5594,-4.5594,-4.5594,-4.5594,-4.5594,-4.5594,-4.5594,-4.5594,-4.5594,-4.5594,-4.5594,-4.5594,-4.5594,-4.5594,-4.5594,-4.5748,-4.5787,-4.5893,-4.2412,0.0,0.0,0.0,0.0,-4.6347,-4.7215,-4.8105,-4.8678,-4.8831,-4.9595,-5.0015,-4.9862,-4.8629,-4.775,-4.7597,-4.6194,0.0,0.0,0.0,0.0,-4.5288,-4.5288,-4.5288,-4.5288,-4.4437,-4.3624,0.0,0.0,-4.1074,-4.0301,-4.0301,-4.0301,-4.0301,-4.0301,0.0,-4.0301,-4.0301,0.0,-4.0301,-4.0301,-4.0301,-4.0301,-4.0301,-4.0301,-4.0301,-4.0301,-4.0301,-4.0301,-4.0301,-4.0301,-4.0301,-4.0301,-4.0301,-4.0301,-4.0301,-4.0883,-4.1686,-4.2565,-4.3405,-4.4197,-4.5086,-4.5288,-4.5288,-4.5288,-4.4743,-4.4399,-4.4972,-4.3978,-4.3405,-4.4628,0.0,0.0,0.0,0.0,0.0,0.0,0.0,0.0,0.0,0.0,0.0,0.0,0.0,0.0,0.0,0.0,0.0,0.0,0.0,0.0,0.0,-4.5594,0.0,0.0,0.0,-4.5594,-4.5594,-4.5594,-4.5594,-4.5594,-4.5594,-4.5594,-4.5594,-4.5594,-4.5594,-4.5594,-4.5594,-4.5594,-4.5594,-4.5594,-4.5594,-4.571,-4.6394,-4.6663,-4.6778,0.0,0.0,0.0,0.0,0.0,0.0,0.0,-4.9175,0.0,-4.9148,-4.9454,-4.9328,-4.8449,-4.8028,-4.7444,-4.6577,-4.5774,-4.5288,-4.5288,-4.5288,-4.5288,-4.5288,-4.5288,0.0,-4.5288,-4.4055,-4.3176,-4.2794,0.0,-4.0692,-4.0301,-4.0301,-4.0301,-4.0301,0.0,-4.0301,0.0,0.0,0.0,-4.0301,-4.0301,-4.0301,-4.0301,-4.0301,-4.0301,-4.0301,-4.0301,-4.0301,-4.0301,-4.0301,-4.0301,-4.0301,-4.0301,-4.0301,-4.0301,-4.0301,-4.0578,-4.1074,-4.1915,-4.2412,-4.3023,-4.4284,-4.4628,-4.4743,-4.5201,-4.4972,-4.4781,-4.5201,-4.4666,-4.4322,-4.5173,-4.4972,0.0,0.0,0.0,0.0,0.0,0.0,0.0,0.0,0.0,0.0,0.0,0.0,0.0,0.0,0.0,0.0,0.0,0.0,0.0,0.0,0.0,0.0,0.0,0.0,0.0,-4.5594,-4.5594,-4.5594,-4.5594,-4.5594,-4.5594,-4.5594,-4.5594,-4.5594,-4.5594,-4.5594,-4.5594,-4.5594,-4.5594,-4.5594,-4.571,-4.6586,-4.7154,-4.7625,0.0,-4.5545,0.0,0.0,-4.7494,0.0,-4.8754,-4.9671,-5.0015,-4.9224,-4.911,-4.8487,-4.6959,-4.7215,-4.6997,-4.566,-4.5392,-4.5288,-4.5288,-4.5288,-4.5288,-4.5288,-4.5288,-4.5288,-4.5288,-4.3673,-4.2794,0.0,0.0,0.0,-4.0034,-4.0225,-4.031,0.0,0.0,0.0,0.0,0.0,-4.0338,-4.0338,-4.0338,-4.0338,-4.0338,-4.0338,-4.0338,-4.0338,-4.0338,-4.0329,-4.0281,-4.0281,-4.031,-4.0301,-4.0301,-4.0301,-4.0301,-4.0301,-4.0416,-4.0692,-4.1342,-4.1648,-4.2106,-4.3433,-4.3739,-4.3968,-4.4819,-4.4895,-4.4819,-4.4972,-4.501,-4.5086,-4.5288,-4.5288,0.0,0.0,0.0,0.0,0.0,0.0,0.0,0.0,0.0,0.0,0.0,0.0,0.0,0.0,0.0,0.0,0.0,0.0,0.0,0.0,0.0,-4.5594,-4.5594,0.0,-4.5594,0.0,-4.5594,-4.5594,-4.5594,-4.5594,-4.5594,-4.5594,-4.5594,-4.5594,-4.5594,-4.5594,-4.5594,-4.5594,-4.5594,-4.571,-4.597,-4.6855,-4.7663,-4.8509,0.0,0.0,0.0,0.0,0.0,0.0,-4.8017,-4.9289,-5.0015,-4.9224,-4.911,-4.8754,-4.7788,-4.7062,-4.6577,-4.6385,-4.5736,-4.5288,-4.5288,-4.5288,-4.5288,-4.5288,-4.5288,-4.5288,-4.5288,-4.3673,-4.2794,0.0,0.0,0.0,0.0,0.0,0.0,0.0,0.0,0.0,0.0,-4.0389,-4.0389,-4.0389,-4.0389,-4.0389,-4.0389,-4.0389,-4.0389,-4.0389,-4.0389,-4.0334,-4.0298,-4.0298,-4.0309,-4.0301,-4.0301,-4.0301,-4.0301,-4.0301,-4.0807,-4.138,-4.1495,-4.2068,-4.2717,-4.287,-4.2908,-4.3138,-4.393,-4.3558,-4.3252,-4.3968,-4.4121,-4.435,-4.5163,-4.5288,-4.5337,0.0,0.0,0.0,0.0,0.0,0.0,0.0,0.0,0.0,0.0,-4.315,0.0,0.0,0.0,0.0,0.0,0.0,0.0,-4.5594,0.0,-4.5594,-4.5594,-4.5594,0.0,-4.5594,-4.5594,-4.5594,-4.5594,-4.5594,-4.5594,-4.5594,-4.5594,-4.5594,-4.5594,-4.5594,-4.5594,-4.5594,-4.5594,-4.6086,-4.6894,-4.7702,-4.8548,-4.9394,0.0,0.0,0.0,0.0,0.0,0.0,0.0,-4.9442,-4.9289,-4.8449,-4.8793,-4.8754,-4.7903,-4.7035,-4.6309,-4.5812,-4.5468,-4.5288,-4.5288,-4.5288,-4.5288,-4.5288,-4.4819,-4.4513,-4.4513,-4.287,-4.203,0.0,0.0,0.0,0.0,0.0,0.0,0.0,0.0,-4.0351,-4.0407,-4.0407,-4.0407,-4.0407,-4.0407,-4.0407,-4.0407,-4.0407,-4.0407,-4.0407,-4.0407,-4.0398,-4.0342,-4.0342,-4.0327,-4.0301,-4.0301,-4.0301,-4.0301,-4.0301,-4.054,-4.0769,-4.0769,-4.1036,-4.1418,-4.1915,-4.203,-4.2221,-4.31,-4.3023,-4.2908,-4.3214,-4.3663,-4.4274,-4.5125,-4.5288,-4.5288,0.0,0.0,0.0,0.0,0.0,0.0,0.0,0.0,0.0,0.0,0.0,-4.1962,0.0,0.0,0.0,0.0,0.0,0.0,-4.5556,0.0,-4.5594,-4.5594,-4.5594,-4.5594,-4.5594,-4.5594,-4.5594,-4.5594,-4.5594,-4.5594,-4.5594,-4.5594,-4.5594,-4.5594,-4.5594,-4.5594,-4.5594,-4.5594,-4.6124,-4.7,-4.7817,-4.8663,-4.951,-4.5927,0.0,-4.7226,0.0,-4.906,-4.9557,-4.9901,-4.948,-4.8793,-4.7903,-4.8105,-4.799,-4.715,-4.6538,-4.5927,-4.5364,-4.5288,-4.5288,-4.5288,-4.5288,-4.5288,-4.5288,-4.4704,0.0,-4.4006,-4.2603,-4.1762,-4.1495,-4.0702,0.0,0.0,0.0,0.0,0.0,-4.0432,-4.0441,-4.0411,-4.0411,-4.0411,-4.0411,-4.0411,-4.0411,-4.0411,-4.0411,-4.0411,-4.0411,-4.0411,-4.0441,-4.0432,-4.0432,-4.0372,-4.0347,-4.0291,-4.0291,-4.0281,-4.031,-4.0301,-4.0301,-4.0301,-4.0301,-4.0454,-4.0998,-4.1151,-4.138,-4.2221,-4.2221,-4.2221,-4.2717,-4.3252,-4.3978,-4.5086,-4.5288,-4.5326,-4.5347,0.0,0.0,0.0,0.0,0.0,0.0,-4.3862,-4.3073,-4.1923,-4.1585,0.0,0.0,0.0,0.0,0.0,0.0,0.0,0.0,0.0,0.0,0.0,-4.5594,-4.5594,-4.5594,-4.5594,-4.5594,-4.5594,-4.5594,-4.5594,-4.5594,-4.5594,-4.5594,-4.5594,-4.5594,-4.5594,-4.5633,-4.5893,-4.6509,-4.7355,-4.8163,-4.9048,-4.9856,-4.7455,-4.7788,-4.8323,-4.9977,-5.0283,-5.0015,-4.9224,-4.911,-4.8793,-4.7903,-4.7062,-4.6233,-4.543,-4.5326,-4.5326,-4.5288,-4.5288,-4.5288,-4.5288,-4.5288,-4.5288,0.0,0.0,-4.4895,-4.4006,-4.3214,-4.2374,-4.1495,0.0,0.0,-3.9091,0.0,-3.9597,-4.0482,-4.0482,-4.0507,-4.0516,-4.0516,-4.0516,-4.0516,-4.0516,-4.0516,-4.0516,-4.0516,-4.0516,-4.0516,-4.0516,-4.0484,-4.0482,-4.0482,-4.0449,-4.0398,-4.0316,-4.0307,-4.0298,-4.0281,-4.0301,-4.0301,-4.0301,-4.0301,-4.0301,-4.0301,-4.0301,-4.054,-4.1342,-4.0883,-4.0798,-4.245,-4.2794,-4.3329,-4.4972,-4.5288,-4.5298,-4.5398,0.0,0.0,0.0,0.0,0.0,0.0,-4.2787,-4.1728,-4.1808,0.0,0.0,0.0,0.0,0.0,0.0,0.0,0.0,-4.5556,-4.5594,0.0,-4.5594,-4.5594,-4.5594,-4.5594,-4.5594,-4.5594,-4.5594,-4.5594,-4.5594,-4.5594,-4.5594,-4.5594,-4.5594,-4.5594,-4.5594,-4.571,-4.6547,-4.7394,-4.8202,-4.9048,-4.9933,-5.0712,-4.6691,-4.7482,-4.8252,-4.9319,-4.9991,-5.0139,-4.9297,-4.8684,-4.8033,-4.7141,-4.6309,-4.5658,-4.539,-4.5329,-4.5288,0.0,-4.5288,-4.5288,0.0,-4.5288,-4.5288,-4.5288,-4.4208,-4.3482,-4.3176,-4.18,-4.0969,-4.0672,0.0,0.0,0.0,-4.0035,-4.0222,-4.0492,-4.0492,-4.05,-4.0516,-4.0516,-4.0516,-4.0516,-4.0516,-4.0516,-4.0516,-4.0516,-4.0516,-4.0516,-4.0516,-4.0508,-4.0492,-4.0492,-4.0484,-4.046,-4.0458,-4.0415,-4.0381,-4.0372,-4.0345,-4.028,-4.028,-4.072,-4.1113,-4.1113,-4.1571,-4.1915,-4.1571,-4.1304,-4.1457,-4.2565,-4.3252,-4.3978,-4.5086,-4.5357,-4.5367,-4.5347,-4.5367,0.0,0.0,0.0,0.0,0.0,-4.3269,-4.2612,0.0,-4.2431,0.0,0.0,0.0,0.0,0.0,0.0,0.0,0.0,-4.5594,0.0,-4.5594,-4.5594,-4.5594,-4.5594,-4.5594,-4.5594,-4.5594,-4.5594,-4.5594,-4.5594,-4.5594,-4.5594,-4.5594,-4.5594,-4.5594,-4.571,-4.6547,-4.7394,-4.8202,-4.9086,-4.9933,-5.0702,-4.6887,-4.7803,-4.8611,-4.9067,-4.9635,-4.9733,-4.8879,-4.8046,-4.7317,-4.6781,-4.5937,-4.54,-4.54,-4.5351,0.0,-4.535,-4.535,-4.535,-4.535,-4.535,-4.5186,-4.485,-4.3856,-4.2967,-4.2335,0.0,0.0,-4.0307,-4.0342,-4.0441,-4.0507,-4.0507,-4.0484,-4.0516,-4.0516,-4.0516,-4.0516,-4.0516,-4.0516,-4.0516,-4.0516,-4.0516,-4.0516,-4.0516,-4.0516,-4.0516,-4.0516,-4.0516,-4.0516,-4.0516,-4.0516,-4.0508,-4.0484,-4.0491,-4.0419,-4.0415,-4.0389,-4.0334,-4.0334,-4.091,-4.1523,-4.1523,-4.2154,-4.2565,-4.1686,-4.1762,-4.2144,-4.2679,-4.3433,-4.4274,-4.5125,-4.5367,-4.5388,-4.5288,-4.5367,-4.5273,-4.4868,0.0,0.0,0.0,0.0,0.0,0.0,-4.3085,0.0,0.0,0.0,0.0,0.0,0.0,0.0,-4.5556,-4.5594,0.0,-4.5594,-4.5594,-4.5594,-4.5594,-4.5594,-4.5594,-4.5594,-4.5594,-4.5594,-4.5594,-4.5594,-4.5594,-4.5594,-4.5594,-4.5594,-4.571,-4.6894,-4.7663,-4.824,-4.9433,-5.0231,-5.0673,-4.7809,-4.8639,0.0,0.0,-4.9196,0.0,-4.8046,-4.7241,-4.6675,-4.6637,-4.5908,-4.5419,-4.5419,-4.5419,-4.5419,-4.5419,0.0,0.0,0.0,-4.5362,-4.4959,-4.4135,-4.3982,-4.3159,-4.1552,-4.1513,-4.1111,-4.0316,-4.0449,-4.0515,-4.0516,-4.0516,-4.0516,-4.0516,-4.0516,-4.0516,-4.0516,-4.0516,-4.0516,-4.0516,-4.0554,-4.0554,-4.0516,-4.0554,-4.0554,-4.0516,-4.0516,-4.0516,-4.0516,-4.0516,-4.0516,-4.0516,-4.0516,-4.0516,-4.05,-4.0449,-4.0454,-4.0492,-4.0492,-4.1109,-4.18,-4.18,-4.2336,-4.2689,-4.1848,-4.2307,-4.288,-4.2918,-4.352,-4.436,-4.5173,-4.5378,-4.536,-4.5222,-4.5263,-4.5015,-4.4065,0.0,0.0,0.0,0.0,0.0,0.0,-4.3278,-4.3239,0.0,0.0,0.0,0.0,0.0,-4.4739,-4.5556,-4.5594,-4.5594,-4.5594,-4.5594,-4.5594,-4.5594,-4.5594,-4.5594,-4.5594,-4.5594,-4.5594,-4.5594,-4.5594,-4.5594,-4.5594,-4.5594,-4.5594,-4.5787,-4.7432,-4.8077,-4.8308,-5.0048,-5.0663,-5.0573,0.0,0.0,-4.9336,-4.9207,-4.9258,-4.8856,-4.7386,-4.7011,-4.6627,-4.5944,-4.5675,-4.5559,-4.5559,-4.5559,-4.5559,-4.5559,-4.5448,-4.54,-4.54,-4.4825,-4.4394,-4.4193,-4.2966,-4.2076,-4.1645,-4.1003,-4.0598,-4.0449,-4.0468,-4.0508,-4.0516,-4.0516,-4.0516,-4.0516,-4.0516,-4.0516,-4.0516,-4.0516,-4.0516,-4.0554,-4.1239,-4.1085,-4.0554,-4.1239,-4.1085,-4.0516,-4.0516,-4.0516,-4.0516,-4.0516,-4.0516,-4.0516,-4.0516,-4.0516,-4.0508,-4.0484,-4.0921,-4.1387,-4.1387,-4.2466,-4.3579,-4.3579,-4.3695,-4.3742,-4.3589,-4.3685,-4.3819,-4.3858,-4.4527,-4.513,-4.5323,-4.5381,-4.5189,-4.4557,-4.4528,-4.423,-4.3292,-4.2486,0.0,0.0,-4.3274,-4.3346,-4.4855,-4.5017,-4.4739,0.0,0.0,0.0,0.0,-4.494,-4.5402,-4.5594,-4.5594,-4.5594,-4.5594,-4.5594,-4.5594,-4.5594,-4.5594,-4.5594,-4.5594,-4.5594,-4.5594,-4.5594,-4.5594,-4.5594,-4.5594,-4.5594,-4.5594,-4.5787,-4.7432,-4.8058,-4.8222,-4.9989,-5.0563,-5.0511,-4.8541,-4.9383,-4.9836,-4.9355,-4.901,-4.8355,-4.7077,-4.6547,-4.6124,-4.5671,-4.5594,-4.5594,-4.5594,-4.5594,-4.5594,-4.5594,-4.5541,-4.5475,-4.5475,-4.5091,-4.4468,-4.3673,-4.279,-4.1937,-4.1106,-4.0663,-4.0466,-4.0515,-4.0885,-4.1085,-4.1085,-4.1508,-4.17,-4.1662,-4.1277,-4.1085,-4.1085,-4.0669,-4.0746,-4.1123,-4.1623,-4.1508,-4.1162,-4.1623,-4.1277,-4.0516,-4.0516,-4.0516,-4.0516,-4.0516,-4.0516,-4.0516,-4.0516,-4.0516,-4.0593,-4.0969,-4.1107,-4.1245,-4.1629,-4.2663,-4.3817,-4.4566,-4.4729,-4.4595,-4.4279,-4.4461,-4.4595,-4.4279,-4.4844,-4.5409,-4.54,-4.5112,-4.4738,-4.4288,-4.3903,-4.3384,-4.2486,-4.233,0.0,-4.3602,-4.3675,-4.4162,-4.5479,-4.5594,-4.5402,-4.494,0.0,0.0,-4.494,-4.5325,-4.5594,-4.5594,-4.5594,-4.5594,-4.5594,-4.5594,-4.5594,-4.5594,-4.5594,-4.5594,-4.5594,-4.5594,-4.5594,-4.5594,-4.5594,-4.5594,-4.5594,-4.5594,-4.5594,-4.574,-4.7405,-4.803,-4.8202,-4.99,-5.0511,-5.0457,-4.8567,-4.9663,-5.0433,-4.9538,-4.8769,-4.8009,-4.7192,-4.6355,-4.5787,-4.5787,-4.5671,-4.5594,-4.5594,-4.5594,-4.5594,-4.5594,-4.5594,-4.5594,-4.5594,-4.5479,-4.4731,-4.3274,-4.2958,-4.2134,-4.0624,-4.0551,-4.0515,-4.0516,-4.1239,-4.1662,-4.1808,-4.2547,-4.297,-4.3047,-4.22,-4.1885,-4.1931,-4.0939,-4.1085,-4.2,-4.2,-4.1923,-4.1808,-4.1962,-4.1354,-4.0516,-4.0516,-4.0516,-4.0516,-4.0516,-4.0516,-4.0516,-4.0516,-4.0516,-4.0669,-4.1393,-4.1085,-4.0746,-4.1854,-4.2783,-4.3709,-4.4939,-4.5343,-4.5189,-4.4384,-4.4844,-4.5227,-4.4537,-4.4959,-4.5419,-4.5429,-4.4804,-4.4237,-4.4048,-4.3345,-4.2509,-4.163,0.0,-4.2872,-4.2996,-4.3799,-4.4624,-4.5518,-4.5594,-4.5594,-4.5594,-4.5594,-4.5594,0.0,-4.5594,-4.5594,-4.5594,-4.5594,-4.5594,-4.5594,-4.5594,-4.5594,-4.5594,-4.5594,-4.5594,-4.5594,-4.5594,-4.5594,-4.5594,-4.5594,-4.5594,-4.5594,-4.5594,-4.5663,-4.5923,-4.7415,-4.8077,-4.8365,-4.9886,-5.0446,-5.039,-5.0012,-5.045,-5.0423,-4.948,-4.925,-4.8894,-4.8048,-4.724,-4.6701,-4.6701,-4.6047,-4.5594,-4.5594,-4.5594,-4.5594,-4.5594,-4.5594,-4.5594,-4.5594,-4.4893,-4.4393,-4.4115,-4.2731,-4.1876,-4.1599,-4.0885,-4.0508,-4.0516,-4.0631,-4.1085,-4.1808,-4.1923,-4.2393,-4.3047,-4.22,-4.22,-4.2777,-4.117,-4.1439,-4.2893,-4.2893,-4.247,-4.1885,-4.2624,-4.1893,-4.0516,-4.0516,-4.0516,-4.0516,-4.0516,-4.0516,-4.0516,-4.0516,-4.0516,-4.0516,-4.0669,-4.0593,-4.1016,-4.3278,-4.4547,-4.5077,-4.4607,-4.4994,-4.5283,-4.4483,-4.4917,-4.5485,-4.5405,-4.5426,-4.5485,-4.5559,-4.4888,-4.4063,-4.3368,-4.2569,-4.1684,-4.08,0.0,-4.2261,-4.3,-4.3816,-4.4624,-4.5518,-4.5594,-4.5594,-4.5594,-4.5594,-4.5594,-4.5594,-4.5594,-4.5594,-4.5594,-4.5594,-4.5594,-4.5594,-4.5594,-4.5594,-4.5594,-4.5594,-4.5594,-4.5594,-4.5594,-4.5594,-4.5594,-4.5594,-4.5594,-4.5594,-4.5594,-4.5991,-4.6714,-4.7626,-4.8373,-4.9056,-5.0041,-5.0379,-5.0333,-4.9931,-5.0327,-5.0548,-5.0134,-4.9683,-4.924,-4.8856,-4.774,-4.7038,-4.7509,-4.6394,-4.5787,-4.624,-4.5893,-4.5594,-4.5594,-4.5594,-4.5594,-4.5594,-4.521,-4.4778,-4.4316,-4.3124,-4.2047,-4.1123,-4.1162,-4.12,-4.12,-4.2085,-4.2739,-4.3162,-4.3624,-4.4047,-4.4393,-4.3547,-4.3355,-4.3662,-4.2431,-4.2624,-4.3739,-4.3739,-4.3508,-4.3201,-4.3585,-4.297,-4.1893,-4.1893,-4.1585,-4.12,-4.12,-4.0893,-4.0516,-4.0516,-4.0516,-4.0593,-4.1046,-4.1546,-4.2162,-4.3316,-4.4624,-4.5518,-4.5094,-4.5269,-4.5453,-4.5086,-4.5308,-4.5568,-4.5586,-4.5577,-4.5414,-4.497,-4.4222,-4.3522,-4.3162,-4.197,0.0,0.0,-4.2239,-4.2816,-4.3662,-4.447,-4.5171,-4.5556,-4.5594,-4.5594,-4.5594,-4.5594,-4.5594,-4.5594,-4.5594,-4.5594,-4.5594,-4.5594,-4.5594,-4.5594,-4.5594,-4.5594,-4.5594,-4.5594,-4.5594,-4.5594,-4.5594,-4.5594,-4.5594,-4.5594,-4.5594,-4.5594,-4.5594,-4.6059,-4.6887,-4.7702,-4.8447,-4.9177,-5.0023,-5.0344,-5.0283,-4.9798,-5.025,-5.0712,-5.0712,-5.0164,-4.9702,-4.9702,-4.8432,-4.7625,-4.8048,-4.6817,-4.6086,-4.6547,-4.6009,-4.5594,-4.5594,-4.5594,-4.5594,-4.5594,-4.5594,-4.5287,-4.4624,-4.3624,-4.247,-4.1131,-4.1546,-4.1885,-4.2085,-4.3393,-4.4124,-4.4316,-4.4979,-4.5402,-4.5556,-4.4701,-4.4393,-4.4547,-4.3547,-4.3662,-4.4586,-4.4393,-4.4303,-4.4336,-4.4295,-4.3803,-4.3103,-4.3102,-4.2662,-4.2085,-4.2085,-4.1508,-4.0785,-4.0785,-4.0669,-4.0669,-4.1546,-4.2431,-4.3085,-4.3085,-4.4316,-4.5556,-4.5364,-4.5441,-4.5556,-4.5325,-4.5441,-4.5594,-4.5594,-4.5594,-4.5402,-4.4739,-4.3932,-4.3316,-4.3124,0.0,0.0,0.0,-4.3124,-4.3624,-4.4239,-4.5056,-4.5594,-4.5594,-4.5594,-4.5594,-4.5594,-4.5594,-4.5594,-4.5594,-4.5594,-4.5594,-4.5594,-4.5594,-4.5594,-4.5594,-4.5594,-4.5594,-4.5594,-4.5594,-4.5594,-4.5594,-4.5594,-4.5594,-4.5594,-4.5594,-4.5594,-4.5594,-4.5594,-4.6165,-4.7137,-4.7739,-4.8569,-4.9461,-5.0065,-5.0283,-5.0283,-5.0567,-5.0673,-5.0712,-5.0712,-5.0635,-5.0596,-5.0596,-4.9817,-4.8933,-4.8202,-4.7355,-4.6509,-4.5787,-4.5633,-4.5594,-4.5594,-4.5594,-4.5594,-4.5594,-4.5594,-4.5556,-4.5518,-4.397,-4.3047,-4.2893,-4.22,-4.22,-4.3008,-4.3124,-4.3585,-4.4316,-4.4355,-4.4816,-4.5556,-4.4701,-4.4739,-4.5402,-4.3778,-4.4008,-4.5441,-4.4624,-4.4376,-4.4457,-4.4344,-4.3844,-4.3181,-4.3103,-4.3047,-4.3008,-4.3008,-4.2431,-4.1692,-4.1692,-4.1162,-4.0669,-4.1546,-4.2431,-4.3085,-4.3085,-4.4316,-4.5402,-4.4586,-4.5017,-4.5402,-4.4586,-4.5017,-4.5594,-4.5594,-4.5594,-4.5594,-4.5518,-4.4778,-4.397,-4.3201,0.0,0.0,-4.2,-4.3239,-4.4239,-4.4278,-4.5056,-4.5594,-4.5594,-4.5594,-4.5594,-4.5594,-4.5594,-4.5594,-4.5594,-4.5594,-4.5594,-4.5594,-4.5594,-4.5594,-4.5594,-4.5594,-4.5594,-4.5594,-4.5594,-4.5594,-4.5594,-4.5594,-4.5594,-4.5594,-4.5594,-4.5594,-4.5594,-4.5594,-4.6531,-4.7921,-4.7997,-4.893,-5.0206,-5.0283,-5.0283,-5.0283,-4.9885,-5.0327,-5.0519,-4.9971,-5.0327,-5.0712,-5.0712,-4.9971,-4.9279,-4.8933,-4.774,-4.6778,-4.6432,-4.5932,-4.5594,-4.5594,-4.5594,-4.5594,-4.5594,-4.5594,-4.5364,-4.4816,-4.4162,-4.3624,-4.3124,-4.3278,-4.3508,-4.3855,-4.4393,-4.4825,-4.5094,-4.5094,-4.5287,-4.5594,-4.5248,-4.5287,-4.5556,-4.494,-4.5076,-4.5719,-4.5372,-4.5311,-4.5347,-4.5299,-4.5118,-4.4882,-4.4834,-4.4505,-4.4079,-4.4079,-4.344,-4.2669,-4.2669,-4.2402,-4.2162,-4.2508,-4.3201,-4.3841,-4.3952,-4.4368,-4.4855,-4.5056,-4.5364,-4.5518,-4.5171,-4.5364,-4.5594,-4.5594,-4.5594,-4.5441,-4.4893,-4.4509,-4.4201,-4.3893,0.0,-4.3355,-4.4047,-4.4239,-4.4509,-4.5056,-4.5402,-4.5594,-4.5594,-4.5594,-4.5594,-4.5594,-4.5594,-4.5594,-4.5594,-4.5594,-4.5594,-4.5594,-4.5594,-4.5594,-4.5594,-4.5594,-4.5594,-4.5594,-4.5594,-4.5594,-4.5594,-4.5594,-4.5594,-4.5594,-4.5594,-4.5594,-4.5594,-4.5559,-4.6494,-4.7987,-4.7956,-4.8898,-5.0283,-5.0283,-5.0283,-5.0283,-4.9,-4.9471,-4.9702,-4.9086,-4.9471,-4.9894,-4.9894,-4.9394,-4.8894,-4.8663,-4.7625,-4.6817,-4.6509,-4.597,-4.5594,-4.5594,-4.5594,-4.5594,-4.5594,-4.5594,-4.5325,-4.4739,-4.4432,-4.4162,-4.3893,-4.4162,-4.4432,-4.4701,-4.5325,-4.5594,-4.5594,-4.5594,-4.5594,-4.5594,-4.5594,-4.5594,-4.5594,-4.5654,-4.5704,-4.5807,-4.5815,-4.5869,-4.5969,-4.5934,-4.5944,-4.5969,-4.5934,-4.5536,-4.5074,-4.5074,-4.4439,-4.3671,-4.3671,-4.364,-4.3557,-4.3287,-4.3789,-4.4467,-4.4531,-4.4485,-4.4638,-4.5488,-4.568,-4.5657,-4.5704,-4.5681,-4.5681,-4.5681,-4.5681,-4.5526,-4.4908,-4.4793,-4.4715,-4.4484,-4.4175,-4.4276,-4.5147,-4.4985,-4.4961,-4.5526,-4.5594,-4.5594,-4.5594,-4.5594,-4.5594,-4.5594,-4.5594,-4.5594,-4.5594,-4.5594,-4.5594,-4.5594,-4.5594,-4.5594,-4.5594,-4.5594,-4.5594,-4.5594,-4.5594,-4.5594,-4.5594,-4.5594,-4.5594,-4.5594,-4.5594,-4.5594,-4.5586,-4.5541,-4.633,-4.7604,-4.782,-4.8723,-4.9939,-5.0206,-5.0283,-5.0283,-4.8077,-4.8086,-4.8086,-4.8086,-4.8086,-4.8086,-4.8086,-4.8086,-4.7817,-4.7,-4.6885,-4.6586,-4.571,-4.5594,-4.5594,-4.5594,-4.5594,-4.5594,-4.5594,-4.5594,-4.5594,-4.5594,-4.4778,-4.4701,-4.5594,-4.4739,-4.4739,-4.5594,-4.5594,-4.5594,-4.5594,-4.5594,-4.5594,-4.5594,-4.5594,-4.5594,-4.5603,-4.5742,-4.5807,-4.5821,-4.5875,-4.5987,-4.6091,-4.5964,-4.5987,-4.6091,-4.5964,-4.5885,-4.5885,-4.5885,-4.5385,-4.4725,-4.4725,-4.4725,-4.453,-4.368,-4.403,-4.4725,-4.4725,-4.4725,-4.4919,-4.5691,-4.5834,-4.5802,-4.5897,-4.588,-4.588,-4.588,-4.588,-4.588,-4.588,-4.588,-4.5652,-4.4841,-4.538,-4.557,-4.4628,-4.5265,-4.5749,-4.562,-4.5594,-4.5594,-4.5594,-4.5594,-4.5594,-4.5594,-4.5594,-4.5594,-4.5594,-4.5594,-4.5594,-4.5594,-4.5594,-4.5594,-4.5594,-4.5594,-4.5594,-4.5594,-4.5594,-4.5594,-4.5594,-4.5594,-4.5594,-4.5594,-4.5594,-4.5594,-4.5586,-4.5541,-4.5985,-4.6809,-4.759,-4.8378,-4.9224,-5.0015,-5.0283,-5.0283,-4.7231,-4.7702,-4.7932,-4.7355,-4.774,-4.8086,-4.8086,-4.8086,-4.7817,-4.7,-4.6885,-4.6586,-4.571,-4.5594,-4.5594,-4.5594,-4.5594,-4.5594,-4.5594,-4.5594,-4.5594,-4.5594,-4.5364,-4.5325,-4.5594,-4.5364,-4.5325,-4.5594,-4.5594,-4.5594,-4.5594,-4.5594,-4.5594,-4.5594,-4.5594,-4.5594,-4.5603,-4.5742,-4.5822,-4.5881,-4.5987,-4.6112,-4.624,-4.6187,-4.6228,-4.624,-4.6187,-4.6178,-4.6178,-4.6178,-4.5956,-4.5667,-4.5561,-4.5536,-4.5497,-4.5225,-4.5341,-4.5551,-4.5659,-4.5589,-4.5613,-4.5846,-4.5897,-4.5881,-4.5914,-4.588,-4.588,-4.588,-4.588,-4.588,-4.588,-4.588,-4.5808,-4.5574,-4.573,-4.5792,-4.5526,-4.5714,-4.5858,-4.5815,-4.5809,-4.5809,-4.5809,-4.5809,-4.577,-4.5742,-4.5662,-4.5594,-4.5594,-4.5594,-4.5594,-4.5594,-4.5594,-4.5594,-4.5594,-4.5594,-4.5594,-4.5594,-4.5594,-4.5594,-4.5594,-4.5594,-4.5594,-4.5594,-4.5594,-4.5594,-4.5586,-4.5541,-4.633,-4.7642,-4.782,-4.8723,-4.9977,-5.0206,-5.0283,-5.0283,-4.6394,-4.6778,-4.6971,-4.6471,-4.6778,-4.7124,-4.7124,-4.7124,-4.6932,-4.6432,-4.6394,-4.6201,-4.5671,-4.5594,-4.5594,-4.5594,-4.5594,-4.5594,-4.5594,-4.5594,-4.5594,-4.5594,-4.5594,-4.5594,-4.5594,-4.5594,-4.5594,-4.5594,-4.5594,-4.5594,-4.5594,-4.5594,-4.5594,-4.5594,-4.5594,-4.5594,-4.5612,-4.5768,-4.5858,-4.5934,-4.6102,-4.6238,-4.63,-4.63,-4.63,-4.63,-4.63,-4.63,-4.63,-4.63,-4.6245,-4.6173,-4.6091,-4.6076,-4.6076,-4.6076,-4.6076,-4.6087,-4.617,-4.6112,-4.6076,-4.6076,-4.6009,-4.5992,-4.6068,-4.6076,-4.6076,-4.6076,-4.6076,-4.6076,-4.6076,-4.6076,-4.6076,-4.6076,-4.6076,-4.6025,-4.5987,-4.5983,-4.5969,-4.5924,-4.588,-4.588,-4.588,-4.588,-4.5892,-4.5854,-4.5749,-4.5695,-4.5695,-4.5629,-4.5594,-4.5594,-4.5594,-4.5594,-4.5594,-4.5594,-4.5594,-4.5594,-4.5594,-4.5594,-4.5594,-4.5594,-4.5594,-4.5594,-4.5594,-4.5594,-4.5586,-4.5541,-4.6302,-4.7558,-4.7792,-4.8695,-4.9859,-5.018,-5.0283,-5.0283,-4.5594,-4.5594,-4.5594,-4.5594,-4.5594,-4.5594,-4.5594,-4.5594,-4.5594,-4.5594,-4.5594,-4.5594,-4.5594,-4.5594,-4.5594,-4.5594,-4.5594,-4.5594,-4.5594,-4.5594,-4.5594,-4.5594,-4.5594,-4.5594,-4.5594,-4.5594,-4.5594,-4.5594,-4.5594,-4.5594,-4.5594,-4.5594,-4.5594,-4.5594,-4.5594,-4.5603,-4.5637,-4.5821,-4.5929,-4.5954,-4.6187,-4.63,-4.63,-4.63,-4.63,-4.63,-4.63,-4.63,-4.63,-4.63,-4.63,-4.63,-4.63,-4.63,-4.63,-4.63,-4.63,-4.63,-4.63,-4.63,-4.63,-4.63,-4.6192,-4.6164,-4.6253,-4.63,-4.63,-4.63,-4.63,-4.63,-4.63,-4.63,-4.63,-4.63,-4.63,-4.6249,-4.6157,-4.6109,-4.6084,-4.5964,-4.5949,-4.5949,-4.5949,-4.5901,-4.5934,-4.5934,-4.5854,-4.5807,-4.5807,-4.5648,-4.5594,-4.5594,-4.5594,-4.5594,-4.5594,-4.5594,-4.5594,-4.5594,-4.5594,-4.5594,-4.5594,-4.5594,-4.5594,-4.5594,-4.5594,-4.5594,-4.5586,-4.5618,-4.6138,-4.6993,-4.7737,-4.8499,-4.9291,-5.0038,-5.0283,-5.0283,-4.5594,-4.5594,-4.5594,-4.5594,-4.5594,-4.5594,-4.5594,-4.5594,-4.5594,-4.5594,-4.5594,-4.5594,-4.5594,-4.5594,-4.5594,-4.5594,-4.5594,-4.5594,-4.5594,-4.5594,-4.5594,-4.5594,-4.5594,-4.5594,-4.5594,-4.5594,-4.5594,-4.5594,-4.5594,-4.5594,-4.5594,-4.5594,-4.5594,-4.5594,-4.5594,-4.5671,-4.5764,-4.5858,-4.5969,-4.6084,-4.624,-4.63,-4.63,-4.63,-4.63,-4.63,-4.63,-4.63,-4.63,-4.63,-4.63,-4.63,-4.63,-4.63,-4.63,-4.63,-4.63,-4.63,-4.63,-4.63,-4.63,-4.63,-4.6294,-4.6251,-4.6298,-4.63,-4.63,-4.63,-4.63,-4.63,-4.63,-4.63,-4.63,-4.63,-4.63,-4.6298,-4.6249,-4.6247,-4.6245,-4.6233,-4.6194,-4.6194,-4.6194,-4.6109,-4.6076,-4.6076,-4.5902,-4.5807,-4.5807,-4.5648,-4.5594,-4.5594,-4.5594,-4.5594,-4.5594,-4.5594,-4.5594,-4.5594,-4.5594,-4.5594,-4.5594,-4.5594,-4.5594,-4.5594,-4.5594,-4.5594,-4.5671,-4.6308,-4.7049,-4.7809,-4.8621,-4.9412,-5.0133,-5.0268,-5.0283,-5.0283,-4.5594,-4.5594,-4.5594,-4.5594,-4.5594,-4.5594,-4.5594,-4.5594,-4.5594,-4.5594,-4.5594,-4.5594,-4.5594,-4.5594,-4.5594,-4.5594,-4.5594,-4.5594,-4.5594,-4.5594,-4.5594,-4.5594,-4.5594,-4.5594,-4.5594,-4.5594,-4.5594,-4.5594,-4.5594,-4.5594,-4.5594,-4.5594,-4.5594,-4.5594,-4.5679,-4.5727,-4.5821,-4.5929,-4.6021,-4.6105,-4.6245,-4.63,-4.63,-4.63,-4.63,-4.63,-4.63,-4.63,-4.63,-4.63,-4.63,-4.63,-4.63,-4.63,-4.63,-4.63,-4.63,-4.63,-4.63,-4.63,-4.63,-4.63,-4.63,-4.63,-4.63,-4.63,-4.63,-4.63,-4.63,-4.63,-4.63,-4.63,-4.63,-4.63,-4.63,-4.63,-4.63,-4.63,-4.63,-4.63,-4.63,-4.63,-4.63,-4.624,-4.6187,-4.6187,-4.6044,-4.5931,-4.5866,-4.5771,-4.5679,-4.5594,-4.5594,-4.5594,-4.5594,-4.5594,-4.5594,-4.5594,-4.5594,-4.5594,-4.5594,-4.5594,-4.5594,-4.5594,-4.5594,-4.5594,-4.5671,-4.6547,-4.7337,-4.8116,-4.8941,-4.9733,-5.0446,-5.0379,-5.0344,-5.0359,-4.5594,-4.5594,-4.5594,-4.5594,-4.5594,-4.5594,-4.5594,-4.5594,-4.5594,-4.5594,-4.5594,-4.5594,-4.5594,-4.5594,-4.5594,-4.5594,-4.5594,-4.5594,-4.5594,-4.5594,-4.5594,-4.5594,-4.5594,-4.5594,-4.5594,-4.5594,-4.5594,-4.5594,-4.5594,-4.5594,-4.5594,-4.5594,-4.5612,-4.5646,-4.5749,-4.5834,-4.5854,-4.6039,-4.6109,-4.6122,-4.6247,-4.63,-4.63,-4.63,-4.63,-4.63,-4.63,-4.63,-4.63,-4.63,-4.63,-4.63,-4.63,-4.63,-4.63,-4.63,-4.63,-4.63,-4.63,-4.63,-4.63,-4.63,-4.63,-4.63,-4.63,-4.63,-4.63,-4.63,-4.63,-4.63,-4.63,-4.63,-4.63,-4.63,-4.63,-4.63,-4.63,-4.63,-4.63,-4.63,-4.63,-4.63,-4.63,-4.63,-4.63,-4.63,-4.6178,-4.6033,-4.5954,-4.5879,-4.5771,-4.5646,-4.5637,-4.562,-4.5594,-4.5594,-4.5594,-4.5594,-4.5594,-4.5594,-4.5594,-4.5594,-4.5594,-4.5594,-4.5594,-4.5671,-4.5893,-4.674,-4.7586,-4.8385,-4.9211,-4.9939,-5.0511,-5.0435,-5.0367,-5.0436,-4.5594,-4.5594,-4.5594,-4.5594,-4.5594,-4.5594,-4.5594,-4.5594,-4.5594,-4.5594,-4.5594,-4.5594,-4.5594,-4.5594,-4.5594,-4.5594,-4.5594,-4.5594,-4.5594,-4.5594,-4.5594,-4.5594,-4.5594,-4.5594,-4.5594,-4.5594,-4.5594,-4.5594,-4.5594,-4.5594,-4.5594,-4.5594,-4.5679,-4.5778,-4.5793,-4.5896,-4.6068,-4.6091,-4.6173,-4.6253,-4.6298,-4.63,-4.63,-4.63,-4.63,-4.63,-4.63,-4.63,-4.63,-4.63,-4.63,-4.63,-4.63,-4.63,-4.63,-4.63,-4.63,-4.63,-4.63,-4.63,-4.63,-4.63,-4.63,-4.63,-4.63,-4.63,-4.63,-4.63,-4.63,-4.63,-4.63,-4.63,-4.63,-4.63,-4.63,-4.63,-4.63,-4.63,-4.63,-4.63,-4.63,-4.63,-4.63,-4.63,-4.63,-4.63,-4.6178,-4.6095,-4.6084,-4.5959,-4.584,-4.5778,-4.5771,-4.5712,-4.5594,-4.5594,-4.5594,-4.5594,-4.5594,-4.5594,-4.5594,-4.5594,-4.5594,-4.5594,-4.5594,-4.6009,-4.6778,-4.7586,-4.8432,-4.9317,-5.0105,-5.0497,-5.0553,-5.0446,-5.0367,-5.0436,-4.5594,-4.5594,-4.5594,-4.5594,-4.5594,-4.5594,-4.5594,-4.5594,-4.5594,-4.5594,-4.5594,-4.5594,-4.5594,-4.5594,-4.5594,-4.5594,-4.5594,-4.5594,-4.5594,-4.5594,-4.5594,-4.5594,-4.5594,-4.5594,-4.5594,-4.5594,-4.5594,-4.5594,-4.5594,-4.5594,-4.5594,-4.5695,-4.5742,-4.5814,-4.5925,-4.6031,-4.6102,-4.6178,-4.6245,-4.63,-4.63,-4.63,-4.63,-4.63,-4.63,-4.63,-4.63,-4.63,-4.63,-4.63,-4.63,-4.63,-4.63,-4.63,-4.63,-4.63,-4.63,-4.63,-4.63,-4.63,-4.63,-4.63,-4.63,-4.63,-4.63,-4.63,-4.63,-4.63,-4.63,-4.63,-4.63,-4.63,-4.63,-4.63,-4.63,-4.63,-4.63,-4.63,-4.63,-4.63,-4.63,-4.63,-4.63,-4.63,-4.63,-4.63,-4.6245,-4.6178,-4.6102,-4.6025,-4.5964,-4.5846,-4.584,-4.5815,-4.5704,-4.5704,-4.5657,-4.5594,-4.5594,-4.5594,-4.5594,-4.5594,-4.5594,-4.5633,-4.6124,-4.6547,-4.7,-4.8279,-4.9048,-4.9471,-5.0336,-5.0653,-5.0612,-5.0489,-5.0424,-5.0482]},{"header":{"parameterUnit":"m.s-1","parameterCategory":1,"la1":30.6,"la2":28.766,"lo1":-90.7593,"lo2":-88.6598,"dy":0.0162,"dx":0.0183,"nx":116,"ny":114,"refTime":"2024-02-07T18:00:00:Z","depth":0,"parameterNumber":3,"parameterNumberName":"V-component_of_WINDS"},"data":[0.0,0.0,0.0,0.0,0.0,0.0,0.0,0.0,0.0,0.0,0.0,0.0,0.0,0.0,0.0,0.0,0.0,0.0,0.0,0.0,0.0,0.0,0.0,0.0,0.0,0.0,0.0,0.0,0.0,0.0,0.0,0.0,0.0,0.0,0.0,0.0,0.0,0.0,0.0,0.0,0.0,0.0,0.0,0.0,0.0,0.0,0.0,0.0,0.0,0.0,0.0,0.0,0.0,0.0,0.0,0.0,0.0,0.0,0.0,0.0,0.0,0.0,0.0,0.0,0.0,0.0,0.0,0.0,0.0,0.0,0.0,0.0,0.0,0.0,0.0,0.0,0.0,0.0,0.0,0.0,0.0,0.0,0.0,0.0,0.0,0.0,0.0,0.0,0.0,0.0,0.0,0.0,0.0,0.0,0.0,0.0,0.0,0.0,0.0,0.0,0.0,0.0,0.0,0.0,0.0,0.0,0.0,0.0,0.0,0.0,0.0,0.0,0.0,0.0,0.0,0.0,0.0,0.0,0.0,0.0,0.0,0.0,0.0,0.0,0.0,0.0,0.0,0.0,0.0,0.0,0.0,0.0,0.0,0.0,0.0,0.0,0.0,0.0,0.0,0.0,0.0,0.0,0.0,0.0,0.0,0.0,0.0,0.0,0.0,0.0,0.0,0.0,0.0,0.0,0.0,0.0,0.0,0.0,0.0,0.0,0.0,0.0,0.0,0.0,0.0,0.0,0.0,0.0,0.0,0.0,0.0,0.0,0.0,0.0,0.0,0.0,0.0,0.0,0.0,0.0,0.0,0.0,0.0,0.0,0.0,0.0,0.0,0.0,0.0,0.0,0.0,0.0,0.0,0.0,0.0,0.0,0.0,0.0,0.0,0.0,0.0,0.0,0.0,0.0,0.0,0.0,0.0,0.0,0.0,0.0,0.0,0.0,0.0,0.0,0.0,0.0,0.0,0.0,0.0,0.0,0.0,0.0,0.0,0.0,0.0,0.0,0.0,0.0,0.0,0.0,0.0,0.0,0.0,0.0,0.0,0.0,0.0,0.0,0.0,0.0,0.0,0.0,0.0,0.0,0.0,0.0,0.0,0.0,0.0,0.0,0.0,0.0,0.0,0.0,0.0,0.0,0.0,0.0,0.0,0.0,0.0,0.0,0.0,0.0,0.0,0.0,0.0,0.0,0.0,0.0,0.0,0.0,0.0,0.0,0.0,0.0,0.0,0.0,0.0,0.0,0.0,0.0,0.0,0.0,0.0,0.0,0.0,0.0,0.0,0.0,0.0,0.0,0.0,0.0,0.0,0.0,0.0,0.0,0.0,0.0,0.0,0.0,0.0,0.0,0.0,0.0,0.0,0.0,0.0,0.0,0.0,0.0,0.0,0.0,0.0,0.0,0.0,0.0,0.0,0.0,0.0,0.0,0.0,0.0,0.0,0.0,0.0,0.0,0.0,0.0,0.0,0.0,0.0,0.0,0.0,0.0,0.0,0.0,0.0,0.0,0.0,0.0,0.0,0.0,0.0,0.0,0.0,0.0,0.0,0.0,0.0,0.0,0.0,0.0,0.0,0.0,0.0,0.0,0.0,0.0,0.0,0.0,0.0,0.0,0.0,0.0,0.0,0.0,0.0,0.0,0.0,0.0,0.0,0.0,0.0,0.0,0.0,0.0,0.0,0.0,0.0,0.0,0.0,0.0,0.0,0.0,0.0,0.0,0.0,0.0,0.0,0.0,0.0,0.0,0.0,0.0,0.0,0.0,0.0,0.0,0.0,0.0,0.0,0.0,0.0,0.0,0.0,0.0,0.0,0.0,0.0,0.0,0.0,0.0,0.0,0.0,0.0,0.0,0.0,0.0,0.0,0.0,0.0,0.0,0.0,0.0,0.0,0.0,0.0,0.0,0.0,0.0,0.0,0.0,0.0,0.0,0.0,0.0,0.0,0.0,0.0,0.0,0.0,0.0,0.0,0.0,0.0,0.0,0.0,0.0,0.0,0.0,0.0,0.0,0.0,0.0,0.0,0.0,0.0,0.0,0.0,0.0,0.0,0.0,0.0,0.0,0.0,0.0,0.0,0.0,0.0,0.0,0.0,0.0,0.0,0.0,0.0,0.0,0.0,0.0,0.0,0.0,0.0,0.0,0.0,0.0,0.0,0.0,0.0,0.0,0.0,0.0,0.0,0.0,0.0,0.0,0.0,0.0,0.0,0.0,0.0,0.0,0.0,0.0,0.0,0.0,0.0,0.0,0.0,0.0,0.0,0.0,0.0,0.0,0.0,0.0,0.0,0.0,0.0,0.0,0.0,0.0,0.0,0.0,0.0,0.0,0.0,0.0,0.0,0.0,0.0,0.0,0.0,0.0,0.0,0.0,0.0,0.0,0.0,0.0,0.0,0.0,0.0,0.0,0.0,0.0,0.0,0.0,0.0,0.0,0.0,0.0,0.0,0.0,0.0,0.0,0.0,0.0,0.0,0.0,0.0,0.0,0.0,0.0,0.0,0.0,0.0,0.0,0.0,0.0,0.0,0.0,0.0,0.0,0.0,0.0,0.0,0.0,0.0,0.0,0.0,0.0,0.0,0.0,0.0,0.0,0.0,0.0,0.0,0.0,0.0,0.0,0.0,0.0,0.0,0.0,0.0,0.0,0.0,0.0,0.0,0.0,0.0,0.0,0.0,0.0,0.0,0.0,0.0,0.0,0.0,0.0,0.0,0.0,0.0,0.0,0.0,0.0,0.0,0.0,0.0,0.0,0.0,0.0,0.0,0.0,0.0,0.0,0.0,0.0,0.0,0.0,0.0,0.0,0.0,0.0,0.0,0.0,0.0,0.0,0.0,0.0,0.0,0.0,0.0,0.0,0.0,0.0,0.0,0.0,0.0,0.0,0.0,0.0,0.0,0.0,0.0,0.0,0.0,0.0,0.0,0.0,0.0,0.0,0.0,0.0,0.0,0.0,0.0,0.0,0.0,0.0,0.0,0.0,0.0,0.0,0.0,0.0,0.0,0.0,0.0,0.0,0.0,0.0,0.0,0.0,0.0,0.0,0.0,0.0,0.0,0.0,0.0,0.0,0.0,0.0,0.0,0.0,0.0,0.0,0.0,0.0,0.0,0.0,0.0,0.0,0.0,0.0,0.0,0.0,0.0,0.0,0.0,0.0,0.0,0.0,0.0,0.0,0.0,0.0,0.0,0.0,0.0,0.0,0.0,0.0,0.0,0.0,0.0,0.0,0.0,0.0,0.0,0.0,0.0,0.0,0.0,0.0,0.0,0.0,0.0,0.0,0.0,0.0,0.0,0.0,0.0,0.0,0.0,0.0,0.0,0.0,0.0,0.0,0.0,0.0,0.0,0.0,0.0,0.0,0.0,0.0,0.0,0.0,0.0,0.0,0.0,0.0,0.0,0.0,0.0,0.0,0.0,0.0,0.0,0.0,0.0,0.0,0.0,0.0,0.0,0.0,0.0,0.0,0.0,0.0,0.0,0.0,0.0,0.0,0.0,0.0,0.0,0.0,0.0,0.0,0.0,0.0,0.0,0.0,0.0,0.0,0.0,0.0,0.0,0.0,0.0,0.0,0.0,0.0,0.0,0.0,0.0,0.0,0.0,0.0,0.0,0.0,0.0,0.0,0.0,0.0,0.0,0.0,0.0,0.0,0.0,0.0,0.0,0.0,0.0,0.0,0.0,0.0,0.0,0.0,0.0,0.0,0.0,0.0,0.0,0.0,0.0,0.0,0.0,0.0,0.0,0.0,0.0,0.0,0.0,0.0,0.0,0.0,0.0,0.0,0.0,0.0,0.0,0.0,0.0,0.0,0.0,0.0,0.0,0.0,0.0,0.0,0.0,0.0,0.0,0.0,0.0,0.0,0.0,0.0,0.0,0.0,0.0,0.0,0.0,0.0,0.0,0.0,0.0,0.0,0.0,0.0,0.0,0.0,0.0,0.0,0.0,0.0,0.0,0.0,0.0,0.0,0.0,0.0,0.0,0.0,0.0,0.0,0.0,0.0,0.0,0.0,0.0,0.0,0.0,0.0,0.0,0.0,0.0,0.0,0.0,0.0,0.0,0.0,0.0,0.0,0.0,0.0,0.0,0.0,0.0,0.0,0.0,0.0,0.0,0.0,0.0,0.0,0.0,0.0,0.0,0.0,0.0,0.0,0.0,0.0,0.0,0.0,0.0,0.0,0.0,0.0,0.0,0.0,0.0,0.0,0.0,0.0,0.0,0.0,0.0,0.0,0.0,0.0,0.0,0.0,0.0,0.0,0.0,0.0,0.0,0.0,0.0,0.0,0.0,0.0,0.0,0.0,0.0,0.0,0.0,0.0,0.0,0.0,0.0,0.0,0.0,0.0,0.0,0.0,0.0,0.0,0.0,0.0,0.0,0.0,0.0,0.0,0.0,0.0,0.0,0.0,0.0,0.0,0.0,0.0,0.0,0.0,0.0,0.0,0.0,0.0,0.0,0.0,0.0,0.0,0.0,0.0,0.0,0.0,0.0,0.0,0.0,0.0,0.0,0.0,0.0,0.0,0.0,0.0,0.0,0.0,0.0,0.0,0.0,0.0,0.0,0.0,0.0,0.0,0.0,0.0,0.0,0.0,0.0,0.0,0.0,0.0,0.0,0.0,0.0,0.0,0.0,0.0,0.0,0.0,0.0,0.0,0.0,0.0,0.0,0.0,0.0,0.0,0.0,0.0,0.0,0.0,0.0,0.0,0.0,0.0,0.0,0.0,0.0,0.0,0.0,0.0,0.0,0.0,0.0,0.0,0.0,0.0,0.0,0.0,0.0,0.0,0.0,0.0,0.0,0.0,0.0,0.0,0.0,0.0,0.0,0.0,0.0,0.0,0.0,0.0,0.0,0.0,0.0,0.0,0.0,0.0,0.0,0.0,0.0,0.0,0.0,0.0,0.0,0.0,0.0,0.0,0.0,0.0,0.0,0.0,0.0,0.0,0.0,0.0,0.0,0.0,0.0,0.0,0.0,0.0,0.0,0.0,0.0,0.0,0.0,0.0,0.0,0.0,0.0,0.0,0.0,0.0,0.0,0.0,0.0,0.0,0.0,0.0,0.0,0.0,0.0,0.0,0.0,0.0,0.0,0.0,0.0,0.0,0.0,0.0,0.0,0.0,0.0,0.0,0.0,0.0,0.0,0.0,0.0,0.0,0.0,0.0,0.0,0.0,0.0,0.0,0.0,0.0,0.0,0.0,0.0,0.0,0.0,0.0,0.0,0.0,0.0,0.0,0.0,0.0,0.0,0.0,0.0,0.0,0.0,0.0,0.0,0.0,0.0,0.0,0.0,0.0,0.0,0.0,0.0,0.0,0.0,0.0,0.0,0.0,0.0,0.0,0.0,0.0,0.0,0.0,0.0,0.0,0.0,0.0,0.0,0.0,0.0,0.0,0.0,0.0,0.0,0.0,0.0,0.0,0.0,0.0,0.0,0.0,0.0,0.0,0.0,0.0,0.0,0.0,0.0,0.0,0.0,0.0,0.0,0.0,0.0,0.0,0.0,0.0,0.0,0.0,0.0,0.0,0.0,0.0,0.0,0.0,0.0,0.0,0.0,0.0,0.0,0.0,0.0,0.0,0.0,0.0,0.0,0.0,0.0,0.0,0.0,0.0,0.0,0.0,0.0,0.0,0.0,0.0,0.0,0.0,0.0,0.0,0.0,0.0,0.0,0.0,0.0,0.0,0.0,0.0,0.0,0.0,0.0,0.0,0.0,0.0,0.0,0.0,0.0,0.0,0.0,0.0,0.0,0.0,0.0,0.0,0.0,0.0,0.0,0.0,0.0,0.0,0.0,0.0,0.0,0.0,0.0,0.0,0.0,0.0,0.0,0.0,0.0,0.0,0.0,0.0,0.0,0.0,0.0,0.0,0.0,0.0,0.0,0.0,0.0,0.0,0.0,0.0,0.0,0.0,0.0,0.0,0.0,0.0,0.0,0.0,0.0,0.0,0.0,0.0,0.0,0.0,0.0,0.0,0.0,0.0,0.0,0.0,0.0,0.0,0.0,0.0,0.0,0.0,0.0,0.0,0.0,0.0,0.0,0.0,0.0,0.0,0.0,0.0,0.0,0.0,0.0,0.0,0.0,0.0,0.86,0.0,0.0,0.0,0.0,0.0,0.0,0.0,0.0,0.0,0.0,0.0,0.0,0.0,0.0,0.0,0.0,0.0,0.0,0.0,0.0,0.0,0.0,0.0,0.0,0.0,0.0,0.0,0.0,0.0,0.0,0.0,0.0,0.0,0.0,0.0,0.8703,0.8703,0.8703,0.8703,0.8703,0.8751,0.8855,0.8959,0.9079,0.9286,0.0,0.0,0.0,0.0,0.0,0.0,0.0,0.0,0.0,0.0,0.0,0.0,0.0,0.0,0.0,0.0,0.0,0.0,0.0,0.0,0.0,0.0,0.0,0.0,0.0,0.0,0.0,0.0,0.0,0.0,0.0,0.0,0.0,0.0,0.0,0.0,0.0,0.0,0.0,0.0,0.0,0.0,0.0,0.0,0.0,0.0,0.0,0.0,0.0,0.0,0.0,0.0,0.0,0.0,0.0,0.0,0.0,0.0,0.0,0.0,0.0,0.0,0.0,0.0,0.0,0.0,0.0,0.0,0.0,0.0,0.0,0.911,0.0,0.0,0.0,0.0,0.0,0.0,0.0,0.0,0.0,0.0,0.0,0.0,0.0,0.0,0.0,0.0,0.0,0.0,0.0,0.0,0.0,0.0,0.0,0.8703,0.8703,0.8703,0.8703,0.8703,0.0,0.0,0.0,0.0,0.8458,0.842,0.859,0.8628,0.8647,0.8647,0.876,0.894,0.9185,0.9393,0.9601,0.9757,0.9545,0.0,0.0,0.0,0.0,0.0,0.0,0.0,0.0,0.0,0.0,0.0,0.0,0.0,0.0,0.0,0.0,0.0,0.0,0.0,0.0,0.0,0.0,0.0,0.0,0.0,0.0,0.0,0.0,0.0,0.0,0.0,0.0,0.0,0.0,0.0,0.0,0.0,0.0,0.0,0.0,0.0,0.0,0.0,0.0,0.0,0.0,0.0,0.0,0.0,0.0,0.0,0.0,0.0,0.0,0.0,0.0,0.0,0.0,0.0,0.0,0.0,0.0,0.0,0.9664,1.0149,1.0118,1.1386,1.146,1.0511,0.973,0.9751,1.0218,0.0,0.0,0.0,0.0,0.0,0.0,0.0,0.0,0.0,0.0,0.0,0.0,0.0,0.0,0.0,0.0,0.0,0.0,0.0,0.0,0.0,0.0,0.8703,0.8703,0.8703,0.8703,0.8703,0.8703,0.8514,0.8411,0.8439,0.824,0.8172,0.8165,0.8344,0.8439,0.8439,0.8978,0.9441,0.9881,1.0045,1.0298,1.0433,1.0089,0.9928,0.9928,0.0,0.0,0.0,0.0,0.0,0.0,0.0,0.0,0.0,0.0,0.0,0.0,0.0,0.0,0.0,0.0,0.0,0.0,0.0,0.0,0.0,0.0,0.0,0.0,0.0,0.0,0.0,0.0,0.0,0.0,0.0,0.0,0.0,0.0,0.0,0.0,0.0,0.0,0.0,0.0,0.0,0.8353,0.849,0.0,0.0,0.0,0.0,0.0,0.0,0.0,0.0,0.0,0.0,0.0,0.0,0.0,0.8654,0.851,0.9735,1.0304,1.0174,1.1044,1.1582,1.1851,1.2192,1.2176,1.1854,1.2206,0.0,1.0522,1.137,0.0,0.0,0.0,0.0,0.0,0.0,0.0,0.0,0.0,0.0,0.0,0.0,0.0,0.0,0.0,0.0,0.0,0.0,0.0,0.0,0.0,0.8807,0.8836,0.8713,0.9025,0.9082,0.8722,0.8618,0.8524,0.8411,0.8089,0.8001,0.8115,0.8288,0.8571,0.8921,0.9431,0.9937,1.0346,1.0527,1.0726,1.0905,1.0612,1.0225,0.9771,0.954,0.0,0.0,0.0,0.0,0.0,0.0,0.0,0.0,0.0,0.0,0.0,0.0,0.0,0.0,0.0,0.0,0.0,0.0,0.0,0.0,0.0,0.0,0.0,0.0,0.0,0.0,0.0,0.0,0.0,0.0,0.0,0.0,0.0,0.0,0.0,0.0,0.0,0.0,0.0,0.8421,0.8334,0.8984,0.8607,0.8212,0.0,0.0,0.0,0.0,0.0,0.0,0.0,0.0,0.0,0.9265,0.9542,0.9786,0.9989,1.0605,1.0962,1.1088,1.1525,1.2089,1.2686,1.3463,1.3463,1.2819,1.3493,1.2826,1.1283,1.2105,1.22,1.1832,0.0,0.0,0.0,0.0,1.0549,1.0679,0.0,0.0,0.0,0.0,0.0,0.0,0.0,0.0,0.0,0.0,0.0,0.0,0.8779,0.8978,0.9023,0.8949,0.9286,0.9324,0.8892,0.8666,0.8477,0.8325,0.7954,0.7802,0.7954,0.8288,0.8836,0.9563,1.0032,1.045,1.082,1.1038,1.1208,1.135,1.1198,1.0726,0.9983,0.9719,0.9732,0.9948,0.0,0.0,0.0,0.0,0.0,0.0,0.0,0.0,0.0,0.0,0.0,0.0,0.0,0.0,0.0,0.0,0.0,0.0,0.0,0.0,0.0,0.0,0.0,0.0,0.0,0.0,0.0,0.0,0.0,0.0,0.0,0.0,0.0,0.0,0.0,0.0,0.0,0.8877,0.8877,0.9589,0.9406,0.9059,0.0,0.0,0.0,0.0,0.0,0.0,0.8742,0.8722,0.9155,1.0119,1.0357,1.0636,1.0978,1.104,1.1136,1.1331,1.1715,1.2193,1.2857,1.4161,1.4199,1.3314,1.4008,1.3508,1.2226,1.2561,1.2419,1.1949,1.1488,1.1154,1.0939,1.0506,1.0342,1.0506,0.0,0.0,0.0,0.0,0.0,0.0,0.0,0.0,0.0,0.0,0.0,0.8779,0.8948,0.9145,0.9343,0.954,0.9399,0.9286,0.9249,0.8552,0.8144,0.8134,0.7726,0.7508,0.7517,0.8278,0.9195,1.027,1.0641,1.1066,1.1472,1.168,1.1775,1.1784,1.1775,1.1529,1.1057,1.002,0.9743,0.999,0.993,0.0,0.0,0.0,0.0,0.0,0.0,0.0,0.0,0.0,0.0,0.0,0.0,0.0,0.0,0.0,0.0,0.0,0.0,0.0,0.0,0.0,0.0,0.0,0.0,0.0,0.0,0.0,0.0,0.0,0.0,0.0,0.0,0.0,0.0,0.0,0.0,0.0,0.0,0.9895,1.0789,0.0,0.0,0.0,0.0,0.9017,0.8978,0.9157,0.9522,0.954,0.9677,0.9981,1.02,1.0324,1.0343,1.0534,1.0734,1.0944,1.1698,1.2159,1.2375,1.352,1.3759,1.3323,1.3667,1.3597,1.3186,1.2848,1.1703,1.0212,1.0982,1.0809,1.0168,1.0939,1.1241,1.1499,0.0,0.0,0.0,0.0,0.0,0.0,0.0,0.0,0.8703,0.8703,0.8826,0.9004,0.9343,0.9734,0.997,1.0045,1.0102,0.996,0.9512,0.8874,0.8477,0.8477,0.8468,0.8693,0.9212,1.033,1.1308,1.2078,1.2973,1.3757,1.441,1.4604,1.4705,1.4705,1.4548,1.4432,1.4133,1.1552,1.0489,1.051,1.0471,1.069,0.0,0.0,0.0,0.0,0.0,0.0,0.0,0.0,0.0,0.0,0.0,0.0,0.0,0.0,0.0,0.0,0.0,0.0,0.0,0.0,0.0,0.0,0.0,0.0,0.0,0.0,0.0,0.0,0.0,0.0,0.0,0.0,0.0,0.0,0.0,0.0,0.0,1.0376,1.1028,0.0,0.9816,1.0326,1.0347,0.9472,1.0035,1.0268,0.9881,0.997,1.014,1.0393,1.0556,1.0735,1.0868,1.0943,1.1346,1.2042,1.2331,1.2855,1.36,1.3993,1.4075,1.3884,1.3204,1.2843,1.265,1.1727,1.1634,1.2081,1.1824,1.1914,1.2227,1.1914,1.226,1.2928,0.0,0.0,0.0,0.0,0.0,0.0,0.0,0.0,0.8703,0.8703,0.8949,0.9239,0.9705,1.0187,1.0537,1.0679,1.0622,1.0503,1.0273,0.9419,0.9011,0.9227,0.9504,1.0026,1.083,1.2033,1.3033,1.38,1.4745,1.5594,1.6247,1.6417,1.649,1.6435,1.632,1.624,1.6041,1.3733,1.2457,1.1867,1.1528,1.16,1.1897,0.0,0.0,0.0,0.0,0.0,0.0,0.0,0.0,0.0,0.0,0.0,0.0,0.0,0.0,0.0,0.0,0.0,0.0,0.0,0.0,0.0,0.0,0.0,0.0,0.0,0.0,0.0,0.0,0.0,0.0,0.0,0.0,0.0,0.0,0.0,1.2263,1.1793,1.2457,1.2497,1.127,1.1475,1.1327,1.0416,1.0666,1.073,1.0308,1.045,1.0575,1.0773,1.0924,1.1057,1.1189,1.1198,1.1531,1.2204,1.2533,1.2872,1.3258,1.3596,1.3596,1.3199,1.2384,1.1987,1.1977,1.1492,1.203,1.302,1.2275,1.262,1.3483,1.2836,1.3064,1.3767,0.0,0.0,0.0,0.0,0.0,0.0,0.0,0.8855,0.8713,0.8713,0.9072,0.9497,0.9975,1.0537,1.1075,1.1491,1.0943,1.0847,1.1481,1.019,0.9694,1.0333,1.0812,1.1428,1.2218,1.3324,1.4368,1.5316,1.5842,1.6368,1.6937,1.6937,1.6937,1.6937,1.6937,1.679,1.6641,1.6641,1.5715,1.417,1.3028,1.2733,1.2886,0.0,0.0,0.0,0.0,0.0,0.0,0.0,0.0,0.0,0.0,0.0,0.0,0.0,0.0,0.0,0.0,0.0,0.0,0.0,0.0,0.0,0.0,0.0,0.0,0.0,0.0,0.0,0.0,0.0,0.0,0.0,0.0,0.0,1.1978,1.2961,1.3885,1.4196,1.522,1.5433,1.432,1.3319,1.2486,1.1904,1.092,1.0572,1.0934,1.0953,1.099,1.1189,1.1198,1.1198,1.1198,1.1198,1.1198,1.1198,1.2204,1.2155,1.1247,1.2204,1.2106,1.1198,1.1198,1.1247,1.1336,1.2301,1.2727,1.2732,1.2314,1.2814,1.3767,1.3676,1.3722,1.3997,0.0,0.0,0.0,0.0,0.0,0.0,0.9202,0.9023,0.893,0.893,0.9258,0.9785,1.0556,1.1066,1.1453,1.1709,1.1019,1.0847,1.1481,1.0069,0.9982,1.1808,1.2395,1.3331,1.476,1.5805,1.6793,1.7741,1.8398,1.908,1.9612,1.9612,1.9612,1.9612,1.9612,1.9626,1.9528,1.9304,1.884,1.7988,1.5184,1.3758,1.3302,0.0,0.0,0.0,0.0,0.0,0.0,0.0,0.0,0.0,0.0,0.0,0.0,0.0,0.0,0.0,0.0,0.0,0.0,0.0,0.0,0.0,0.0,0.0,0.0,0.0,0.0,0.0,0.0,0.0,0.0,0.0,1.3393,1.3881,1.3001,1.4476,1.5388,1.47,1.535,1.537,1.4171,1.3955,1.3739,1.3401,1.2538,1.2072,1.2197,1.1492,1.1142,1.1189,1.1198,1.1198,1.1198,1.1198,1.1198,1.1198,1.1482,1.1482,1.1198,1.1482,1.1482,1.1198,1.1198,1.1629,1.2301,1.2581,1.3162,1.3872,1.3731,1.4333,1.5224,1.5178,1.5644,1.6369,0.0,0.0,0.0,0.0,0.0,0.0,0.9268,0.9183,0.9108,0.9108,0.9592,1.013,1.0697,1.1132,1.1425,1.1548,1.0877,1.0776,1.1519,1.085,1.1132,1.2677,1.3707,1.494,1.6391,1.7692,1.8657,1.9346,1.9906,2.0428,2.0925,2.1072,2.1057,2.094,2.1218,2.1262,2.113,2.1072,2.0794,2.0157,1.7436,1.5532,1.4208,1.3004,1.238,1.2078,1.0963,1.0826,1.0953,0.9817,0.0,0.0,0.0,0.0,0.0,0.0,0.0,0.0,0.0,0.0,0.0,0.0,0.0,0.0,0.0,0.0,0.0,0.0,0.0,0.0,0.0,0.0,0.0,0.0,1.4427,1.5182,1.4853,1.572,1.6284,1.5896,1.6197,1.6162,1.5471,1.5132,1.4731,1.4157,1.3228,1.2533,1.2106,1.1531,1.1198,1.1198,1.1198,1.1198,1.1198,1.1198,1.1198,1.1198,1.1198,1.1198,1.1198,1.1198,1.1198,0.0,1.1198,1.1531,1.2106,1.2543,1.3065,0.0,0.0,0.0,0.0,0.0,1.59,1.6042,0.0,0.0,0.0,0.0,0.0,0.0,0.9249,0.9286,0.9296,0.9315,0.9875,1.0365,1.0592,1.0905,1.1132,1.1161,1.0575,1.0549,1.1427,1.2033,1.2608,1.3158,1.4669,1.6109,1.7409,1.8861,1.9881,2.0285,2.0633,2.0925,2.1218,2.154,2.154,2.1291,2.1906,2.2023,2.1774,2.2067,2.1788,2.0931,1.9464,1.7524,1.5375,1.3276,1.2303,1.1935,1.0823,1.0756,1.1053,1.0062,0.0,0.0,0.0,0.0,0.0,0.0,0.0,0.0,0.0,0.0,0.0,0.0,0.0,0.0,0.0,0.0,0.0,0.0,0.0,0.0,0.0,0.0,0.0,0.0,1.5205,1.6595,1.6961,1.6785,1.6784,1.7326,1.7308,1.7279,1.7279,1.6372,1.5425,1.4556,1.3366,1.2311,1.1472,0.0,0.0,0.0,0.0,1.1217,1.1198,1.1198,1.1198,1.1198,1.1198,1.1198,1.1198,1.1198,1.1198,1.1198,1.1198,1.1247,1.1433,1.2349,1.2775,1.3065,1.4889,1.5602,1.5602,1.5602,1.508,1.4316,0.0,0.0,0.0,0.0,0.0,0.0,0.9249,0.9286,0.9343,0.9522,0.9838,1.0203,1.0583,1.0687,1.0764,1.0934,1.0225,0.9976,1.0597,1.1859,1.2909,1.3646,1.4375,1.5883,1.8131,1.8496,1.9417,2.1028,2.1086,2.1145,2.1218,2.154,2.1672,2.1613,2.2008,2.214,2.2096,2.2154,2.1484,2.0226,1.9511,1.7991,1.5976,1.4112,1.2771,1.1808,1.1409,1.123,1.1153,1.0773,1.0537,1.0319,0.9947,0.9535,0.0,0.0,0.0,0.0,0.0,0.0,0.0,0.0,0.0,0.0,0.0,0.0,0.0,0.0,0.0,0.0,0.0,0.0,0.0,1.5118,1.6184,1.7005,1.7545,1.7808,1.7882,1.7735,1.7439,1.7279,1.7279,1.6372,1.5803,1.5751,1.3856,1.2677,1.267,1.1894,1.1378,1.1198,1.1368,1.1368,1.1198,1.1198,1.1198,1.1198,0.0,0.0,1.1198,1.1198,1.1198,1.1198,1.1198,1.1678,1.2436,1.263,1.321,1.4028,1.4411,1.4603,1.4603,1.4603,1.4459,1.4316,0.0,0.0,0.0,0.0,0.0,0.0,0.9117,0.9305,0.9446,0.9446,0.9752,1.0032,1.0093,1.0112,1.0074,0.997,0.9671,0.9627,0.9955,1.1432,1.2667,1.3556,1.4458,1.5744,1.7426,1.79,1.8892,2.0494,2.0589,2.1026,2.1701,2.2008,2.2081,2.1964,2.2432,2.2564,2.2418,2.2579,2.1742,2.0265,1.9356,1.7813,1.5943,1.4734,1.3372,1.2115,1.202,1.1775,1.1472,1.1274,1.1132,1.0953,1.0478,1.0045,0.9715,0.0,0.0,0.0,0.0,0.0,0.0,0.0,0.0,0.0,0.0,0.0,0.0,0.0,0.0,1.311,1.3971,0.0,1.5048,1.6213,1.6916,1.756,1.8203,1.8306,1.8247,1.8072,1.7426,1.694,1.694,1.5989,1.5158,1.476,1.3707,1.2846,1.2415,1.182,1.1472,1.1359,1.1359,1.1302,1.1198,1.1198,1.1198,1.1198,1.1198,1.1198,1.1198,1.1198,1.1198,1.1198,1.1198,1.1482,1.196,1.196,1.2252,1.2737,1.2737,1.3065,1.3499,1.3499,1.3162,1.2737,0.0,0.0,0.0,0.0,0.0,0.0,0.0,0.9268,0.9446,0.9352,0.9649,0.9781,0.9616,0.9531,0.9333,0.8957,0.9258,0.9546,0.9838,1.1122,1.236,1.3341,1.4456,1.5489,1.6376,1.7091,1.8154,1.9496,1.9658,2.0261,2.1389,2.1671,2.1685,2.1502,2.2038,2.2137,2.1925,2.2179,2.1374,1.9824,1.8714,1.719,1.5489,1.4861,1.3738,1.2561,1.2531,1.2181,1.1737,1.1576,1.1435,1.1255,1.0783,1.0545,1.0206,0.9573,0.9315,0.0,0.0,0.0,0.0,0.0,0.0,0.0,0.0,1.1082,1.2296,1.3253,1.4275,1.509,1.5425,1.5994,1.6536,1.6932,1.7486,1.8116,1.8701,1.8412,1.8182,1.8182,1.7218,1.6487,1.6286,1.5267,1.4276,1.3513,1.3213,1.2751,1.1879,1.1676,1.1605,1.152,1.1387,1.1274,1.1198,1.1198,1.1198,1.1198,1.1198,1.1198,1.1198,1.1198,1.1198,1.1198,1.1198,1.1198,1.1198,1.1198,1.1198,1.1198,1.1198,1.1727,1.2398,1.2398,1.1912,1.1198,0.0,0.0,0.0,0.0,0.0,0.0,0.0,0.0,0.9173,0.9522,0.9437,0.9418,0.9587,0.9277,0.8957,0.876,0.9245,0.9909,1.0697,1.1409,1.2269,1.3337,1.3854,1.47,1.5915,1.6269,1.7038,1.8264,1.8288,1.8423,1.8557,1.8827,1.8938,1.8913,1.9283,1.9458,1.9446,1.947,1.8628,1.7343,1.6849,1.5794,1.4409,1.3969,1.3594,1.323,1.2862,1.2219,1.1548,1.1529,1.1142,1.0697,1.082,1.0716,1.0414,0.9747,0.9437,0.9233,0.8817,0.8722,0.8732,0.8703,0.9453,1.03,0.0,1.2172,1.3601,1.4006,1.474,1.5425,1.5761,1.614,1.6565,1.7179,1.7823,1.8379,1.873,1.817,1.7698,1.7698,1.7021,1.6186,1.5166,1.4151,1.3586,1.3645,1.2645,1.2002,1.2043,1.2034,1.1846,1.1529,1.1671,1.1567,1.1198,1.1198,1.1198,1.1198,1.1198,1.1198,1.1198,1.1198,1.1198,1.1198,1.1198,1.1198,1.1198,1.1198,1.1198,1.1198,1.1198,1.1296,1.1385,1.1385,1.1296,1.1198,0.0,0.0,0.0,0.0,0.0,0.0,0.0,0.0,0.0,0.9239,0.938,0.9409,0.9258,0.8872,0.8628,0.8533,0.8957,0.9686,1.0641,1.152,1.2474,1.3523,1.3958,1.4423,1.497,1.519,1.593,1.7298,1.7371,1.788,1.8647,1.8755,1.8804,1.8816,1.8924,1.8972,1.8972,1.8972,1.8203,1.6947,1.6677,1.5659,1.4251,1.3721,1.323,1.2795,1.2502,1.1935,0.0,1.1047,1.0877,1.0773,1.0868,1.0669,1.0365,0.9932,0.9582,0.9221,0.8968,0.8892,0.8921,0.9034,0.9978,1.105,1.1792,1.3142,1.4499,1.5318,1.5893,1.636,1.6682,1.7004,1.7355,0.0,1.7733,1.7724,1.8029,1.7094,1.6116,1.5474,1.5049,1.4737,1.4518,1.3488,1.2849,1.2939,1.2442,1.2165,1.226,1.2147,1.2006,1.1836,1.1728,1.1614,1.1557,1.1444,1.1387,1.1387,1.1387,1.1321,1.1198,1.1198,1.1198,1.1198,1.1198,1.1198,1.1198,1.1198,1.1198,1.1198,1.1198,1.1198,1.1198,1.1198,1.1198,1.1198,0.0,0.0,0.0,0.0,0.0,0.0,0.0,0.0,0.0,0.0,0.9277,0.9315,0.9014,0.8674,0.8477,0.8486,0.8817,0.946,1.0554,1.1444,1.2455,1.3561,1.4062,1.4336,1.4402,1.461,1.5154,1.6222,1.6325,1.6915,1.7882,1.7882,1.7882,1.7882,1.7882,1.7882,1.7882,1.7882,1.7302,1.6377,1.616,1.5242,1.4062,1.3391,1.2701,1.2077,1.1883,1.1435,1.0811,1.0545,1.0433,1.048,1.0603,1.0433,1.0175,0.99,0.9478,0.9148,0.907,0.907,0.9167,0.9431,1.0406,1.1518,1.2357,1.3755,1.5113,1.6057,1.6632,1.7062,1.7235,1.7516,1.7823,1.8233,1.7543,1.7063,1.746,1.6066,1.4711,1.3811,1.3298,1.3174,1.3518,1.2807,1.2325,1.2382,1.2382,1.2382,1.2382,1.225,1.2147,1.209,1.1799,1.1728,1.1813,1.1671,1.1576,1.152,1.152,1.1406,1.1198,1.1198,1.1198,1.1198,1.1198,1.1198,1.1198,1.1198,1.1198,1.1198,1.1198,1.1198,1.1198,1.1264,1.1246,1.1198,0.0,0.0,0.0,0.0,0.0,0.0,0.0,0.0,0.0,0.0,0.0,0.0,0.0,0.8818,0.8686,0.8675,0.8892,0.946,1.0554,1.1179,1.2096,1.3343,1.3986,1.4411,1.4619,1.4818,1.4922,1.4922,1.4931,1.4996,1.4996,1.4996,1.4996,1.4996,1.4996,1.4996,1.4996,1.4996,1.4996,1.4958,1.455,1.4133,1.3618,1.2786,1.1954,1.1236,1.1227,1.0688,1.0032,1.0013,0.9705,0.9441,0.989,1.0013,0.9919,0.946,0.9044,0.8807,0.9204,0.9277,0.9412,0.9871,1.0777,1.1659,1.2031,1.3744,1.5358,1.5759,1.6593,1.7264,1.7279,1.7293,1.7512,1.8203,1.7349,1.6757,1.7255,1.5307,1.3759,1.3542,1.2535,1.1874,0.0,1.202,1.2175,1.2372,1.2382,1.2382,1.2382,1.2382,1.2288,1.209,1.2071,1.1968,1.1822,1.1813,1.1709,1.152,1.152,1.1406,1.1198,1.1198,1.1198,1.1198,1.1198,1.1198,1.1198,1.1198,1.1198,1.1198,1.1198,1.1198,1.1217,1.1435,1.1378,1.1198,0.0,0.0,0.0,0.0,0.0,0.0,0.0,0.0,0.0,0.0,0.0,0.0,0.0,0.0,0.0,0.0,0.859,0.9151,0.9935,1.0829,1.168,1.2521,1.3296,1.3863,1.4213,1.4421,1.4657,1.4866,1.4866,1.4866,1.4866,1.4866,1.4866,1.4866,1.4866,1.4866,1.4866,1.4866,1.477,1.4468,1.392,1.3447,1.2956,1.1841,1.1066,1.0527,0.0,0.9771,0.9488,0.9214,0.9119,0.9136,0.945,0.9441,0.928,0.8996,0.9006,0.9148,0.9249,0.963,1.0017,1.0336,1.1354,1.2346,1.2468,1.373,1.5002,1.5676,1.5345,1.5126,1.5763,1.5516,1.5238,1.5481,1.5059,1.4728,1.4761,1.3463,1.241,1.2192,1.1742,0.0,0.0,0.0,0.0,1.2175,1.2184,1.225,1.2372,1.2382,1.2354,1.2288,1.2015,1.202,1.2175,1.1902,1.1784,1.1709,1.1435,1.1264,1.1198,1.1198,1.1198,1.1198,1.1198,1.1198,1.1198,1.1198,1.1198,1.1208,1.135,1.1406,1.1416,1.1491,1.1557,1.1605,0.0,0.0,0.0,0.0,0.0,0.0,0.0,0.0,0.0,0.0,0.0,0.0,0.0,0.0,0.0,0.0,0.0,0.8747,0.9314,1.0104,1.0796,1.1406,1.2135,1.2655,1.2989,1.3119,1.3373,1.3704,1.377,1.3807,1.3878,1.409,1.4194,1.427,1.4345,1.4421,1.4477,1.4326,1.4071,1.3703,1.3079,1.2531,1.1983,1.0953,1.0301,0.0,0.9299,0.91,0.9063,0.8789,0.8798,0.893,0.9063,0.9015,0.8902,0.8836,0.9053,0.9384,0.9686,1.0064,1.0526,1.0915,1.1579,1.2175,1.2258,1.3117,1.4037,1.4393,1.408,1.3853,1.4421,1.4148,1.3844,1.3989,1.3534,1.3218,1.3301,1.2234,1.1491,1.152,1.1331,1.1246,0.0,0.0,0.0,1.1949,1.2043,1.2147,1.2269,1.2344,1.2382,1.2382,1.2128,1.2118,1.2382,1.2053,1.1808,1.1555,1.1309,1.1149,1.1051,1.1051,1.11,1.1198,1.11,1.11,1.1198,1.1198,1.1236,1.1321,1.1463,1.1567,1.1633,1.1709,1.1822,1.1898,0.0,0.0,0.0,0.0,0.0,0.0,0.0,0.0,0.0,0.0,0.0,0.0,0.0,0.0,0.0,0.0,0.0,0.0,0.8629,0.9058,0.9562,1.0216,1.0627,1.0941,1.1147,1.1156,1.1268,1.1484,1.1668,1.1813,1.2053,1.2502,1.2786,1.2984,1.3183,1.3391,1.3551,1.3154,1.2871,1.2635,1.2002,1.1387,1.0783,1.0194,0.9658,0.9211,0.8845,0.8703,0.8703,0.8703,0.8703,0.8703,0.8722,0.8722,0.876,0.9006,0.9183,0.9563,1.0367,1.0649,1.0811,1.1605,1.1501,1.1264,1.1453,1.2063,1.2528,1.2148,1.2836,1.3404,1.3204,1.3136,1.3233,1.3558,1.2746,1.2206,1.2753,1.1732,1.1104,1.1491,1.135,1.1227,1.1227,0.0,0.0,1.1784,0.0,1.2081,1.21,1.2269,1.2372,1.2382,1.2363,1.2363,1.2382,1.2175,1.176,1.1116,1.1154,1.1051,1.0806,1.0806,1.0904,1.1149,1.0904,1.0953,1.1198,1.1208,1.1331,1.151,1.1539,1.1661,1.1841,1.2006,1.209,1.1996,0.0,0.0,0.0,0.0,0.0,0.0,0.0,0.0,0.0,0.0,0.0,0.0,0.0,0.0,0.0,0.0,0.0,0.0,0.8242,0.8611,0.8935,0.9085,0.9687,1.0117,1.0275,1.0466,1.0659,1.0902,1.0957,1.1025,1.1084,1.1295,1.142,1.1476,1.1676,1.1869,1.2068,1.1954,1.1794,1.1557,1.1085,1.0612,1.0165,0.9497,0.9195,0.9023,0.8798,0.8703,0.8703,0.8703,0.8703,0.876,0.9063,0.9063,0.9044,0.9563,1.0013,1.0338,1.0707,1.1038,1.1331,1.1539,1.151,1.1406,1.1302,1.1308,1.1455,1.182,1.1089,1.0658,1.1381,1.0995,1.0622,1.084,1.1135,1.1331,1.1535,1.1508,1.1545,1.1695,1.1485,1.1457,1.161,1.1457,0.0,0.0,1.1869,1.2039,1.2297,1.2212,1.2231,1.2382,1.2081,1.2124,1.2382,1.1866,1.1414,1.1116,1.0758,1.056,1.0511,1.0511,1.056,1.0609,1.0757,1.0855,1.0913,1.1269,1.1378,1.1321,1.1742,1.1917,1.1841,1.2006,1.209,1.2043,0.0,0.0,0.0,0.0,0.0,0.0,0.0,0.0,0.0,0.0,0.0,0.0,0.0,0.0,0.0,0.0,0.0,0.0,0.0,0.8147,0.8268,0.8188,0.8619,0.8843,0.8785,0.8888,0.9078,0.9314,0.9314,0.9402,0.9571,0.975,0.9885,0.9976,1.0196,1.0399,1.0593,1.05,1.0343,0.0,0.0,0.9568,0.9283,0.8976,0.8883,0.8864,0.8751,0.876,0.8845,0.8845,0.8902,0.9034,0.9324,0.9516,0.9658,1.0137,1.0564,1.0915,1.1217,1.1406,1.1567,1.1746,1.1586,1.13,1.1128,1.0924,1.0723,1.0579,0.9898,0.9411,0.9847,0.9702,0.9495,0.9571,0.9994,1.0462,1.0762,1.0997,1.128,1.156,1.1463,1.1408,1.1399,1.1243,1.1288,0.0,1.1797,1.2006,1.2241,1.2231,1.2269,1.2382,1.2049,1.1903,1.1949,1.1465,1.1057,1.078,1.0515,1.0364,1.0216,1.0216,1.0314,1.0413,0.0,1.0644,1.0803,1.1263,1.1429,1.148,1.1846,1.2039,1.2096,1.2071,1.2137,1.2203,0.0,0.0,0.0,0.0,0.0,0.0,0.0,0.0,0.0,0.0,0.0,0.0,0.0,0.0,0.0,0.0,0.0,0.0,0.0,0.0,0.768,0.7518,0.768,0.7597,0.7191,0.7191,0.7286,0.7437,0.7482,0.7679,0.7956,0.8198,0.8405,0.8581,0.8781,0.901,0.9231,0.901,0.8858,0.8756,0.8666,0.8524,0.8369,0.0,0.8627,0.8627,0.8627,0.8749,0.8878,0.8925,0.9143,0.945,0.9653,1.0036,1.045,1.066,1.099,1.1359,1.1756,1.1709,1.1642,1.1949,1.1605,1.1065,1.0919,1.0585,1.0105,0.9115,0.9003,0.896,0.8663,0.8901,0.9186,0.9209,0.9373,0.9711,1.028,1.048,1.0708,1.1257,1.1344,1.1245,1.1011,1.0958,1.1028,1.1309,1.1754,1.2021,1.2021,1.2161,1.2236,1.2236,1.2046,1.1755,1.1356,1.1097,1.074,1.0364,1.0314,1.0167,0.9969,0.9995,1.0094,1.0274,0.0,0.0,1.0678,1.1198,1.1483,1.1601,1.1769,1.1953,1.2234,1.2137,1.2175,1.2307,0.0,0.0,0.0,0.0,0.0,0.0,0.0,0.0,0.0,0.0,0.7908,0.7807,0.0,0.0,0.0,0.0,0.0,0.0,0.0,0.0,0.0,0.748,0.7526,0.7445,0.7191,0.7191,0.7147,0.7073,0.7109,0.7125,0.7194,0.7364,0.7426,0.7496,0.7686,0.7994,0.8295,0.8098,0.819,0.8469,0.8279,0.8175,0.814,0.8178,0.0,0.0,0.8217,0.8234,0.8315,0.8644,0.9243,0.9947,1.0291,1.0584,1.0896,1.1444,1.1652,1.1765,1.1958,1.1874,1.1784,1.185,1.1274,1.0679,1.0679,0.9873,0.8994,0.8572,0.8169,0.7915,0.7957,0.8238,0.8649,0.9144,0.9413,0.9772,1.0255,1.045,1.075,1.1256,1.1097,1.114,1.145,1.125,0.0,0.0,0.0,1.1683,1.1683,1.1567,1.1496,1.1496,1.1593,1.1487,1.1045,1.0785,1.0493,1.0068,0.9821,0.9723,0.9682,0.9828,0.9862,0.9797,1.0331,0.0,1.0433,1.1037,1.1212,1.1106,1.1556,1.1652,1.1631,1.1981,1.1996,1.1973,0.0,0.0,0.0,0.0,0.0,0.0,0.0,0.7665,0.7731,0.787,0.7901,0.7851,0.7673,0.7661,0.7642,0.0,0.0,0.0,0.0,0.0,0.0,0.7518,0.7603,0.7521,0.7191,0.7191,0.7188,0.7098,0.0,0.7037,0.709,0.71,0.7086,0.7086,0.7202,0.7395,0.7671,0.7547,0.7679,0.7915,0.7952,0.7957,0.7957,0.8063,0.0,0.0,0.8102,0.8163,0.8277,0.8462,0.9016,0.9719,1.0214,1.0772,1.1243,1.1494,1.1689,1.1748,1.185,1.1773,1.1587,1.1485,1.0919,1.0334,0.9858,0.919,0.8464,0.791,0.7812,0.7821,0.7664,0.8088,0.8573,0.8846,0.9075,0.938,0.9846,1.0205,1.0534,1.0777,1.094,1.1033,1.1126,1.0962,1.0962,0.0,0.0,1.1389,1.1667,1.1634,1.1428,1.1216,1.1302,1.1164,1.0785,1.0525,1.0237,1.0019,0.9723,0.9673,0.9762,0.9843,0.9892,0.9916,1.0242,0.0,1.0402,1.0894,1.1078,1.1007,1.123,1.1458,1.1563,1.1711,1.1825,1.1977,0.0,0.0,0.0,0.0,0.0,0.0,0.0,0.7796,0.7877,0.8048,0.804,0.7959,0.7869,0.769,0.7567,0.0,0.0,0.0,0.0,0.0,0.0,0.0,0.0,0.0,0.7285,0.0,0.0,0.7285,0.7175,0.0,0.0,0.0,0.0,0.0,0.7102,0.7211,0.74,0.7294,0.7389,0.0,0.0,0.7727,0.0,0.0,0.0,0.0,0.0,0.8082,0.8212,0.8255,0.8634,0.9191,0.9714,1.0534,1.1281,1.1235,1.1349,1.1539,1.1539,1.1394,1.1205,1.1051,1.0548,0.9922,0.9252,0.8661,0.8046,0.7409,0.7539,0.7713,0.7488,0.7944,0.8421,0.8563,0.8682,0.8958,0.9494,0.988,1.0179,1.0331,1.0655,1.0824,1.0688,1.0688,0.0,0.0,0.0,0.0,1.1582,1.1638,1.1441,1.1025,1.1017,1.0841,1.0525,1.0316,1.0084,0.992,0.9723,0.9721,0.9884,0.9925,1.0073,1.022,1.0294,0.0,0.0,1.0745,1.0891,1.0983,1.0974,1.1256,1.1593,1.1483,1.173,1.2118,0.0,0.0,0.0,0.0,0.0,0.0,0.0,0.7796,0.7918,0.8219,0.8113,0.8008,0.7992,0.7837,0.7706,0.0,0.0,0.0,0.0,0.0,0.0,0.0,0.0,0.0,0.0,0.0,0.0,0.7456,0.7439,0.0,0.0,0.0,0.0,0.0,0.0,0.7554,0.7753,0.757,0.0,0.0,0.0,0.0,0.0,0.0,0.0,0.0,0.0,0.7573,0.7606,0.7778,0.8137,0.8512,0.8768,0.9646,1.0596,1.0564,1.083,1.1071,1.1071,1.093,1.078,1.0712,1.0056,0.9394,0.9454,0.8403,0.7411,0.7465,0.7147,0.6898,0.7171,0.7445,0.782,0.8498,0.862,0.8824,0.9355,0.9445,0.9649,1.018,1.0253,1.0392,1.0664,1.0688,0.0,0.0,0.0,0.0,1.1093,1.1085,1.0995,1.0751,1.0743,1.058,1.022,1.0212,1.0033,0.9624,0.9624,0.9721,0.9892,1.0114,1.0196,1.0228,1.0501,0.0,0.0,1.0607,1.0735,1.0726,1.0808,1.1007,1.1336,1.1584,1.1859,1.2118,0.0,0.0,0.0,0.0,0.0,0.0,0.7771,0.7886,0.8,0.826,0.8325,0.8308,0.8195,0.8016,0.7797,0.7504,0.0,0.0,0.0,0.0,0.0,0.0,0.0,0.0,0.0,0.0,0.748,0.748,0.748,0.0,0.0,0.0,0.0,0.0,0.0,0.0,0.7804,0.7603,0.0,0.0,0.0,0.0,0.0,0.0,0.0,0.0,0.0,0.0,0.7496,0.7608,0.7713,0.7865,0.794,0.8447,0.9123,0.9871,1.0147,1.0319,1.0501,1.051,1.0407,1.0216,0.9621,0.9052,0.8674,0.7813,0.7086,0.7018,0.6996,0.7025,0.7058,0.7464,0.7894,0.8187,0.8325,0.8544,0.8974,0.9129,0.9397,0.9933,1.0147,1.0351,0.0,0.0,0.0,0.0,0.0,0.0,1.0972,1.107,1.0988,1.0704,1.0688,1.0574,1.0331,1.0322,1.0201,0.9949,0.9949,1.0046,1.0217,1.029,1.0387,1.0485,1.0517,0.0,0.0,1.055,1.0599,1.0672,1.0609,1.0757,1.1025,1.1345,1.1611,1.1905,0.0,0.0,0.0,0.0,0.0,0.7584,0.7771,0.7902,0.8081,0.8268,0.8406,0.8482,0.8308,0.8081,0.7837,0.7624,0.7512,0.0,0.0,0.0,0.0,0.0,0.0,0.0,0.0,0.0,0.748,0.748,0.748,0.748,0.0,0.0,0.0,0.0,0.0,0.0,0.0,0.0,0.0,0.0,0.0,0.0,0.0,0.0,0.0,0.0,0.0,0.0,0.0,0.0,0.0,0.748,0.748,0.765,0.8041,0.9008,0.9431,0.9667,0.9887,1.0037,1.0046,0.9768,0.9313,0.8807,0.822,0.7545,0.7037,0.6879,0.7009,0.7139,0.7151,0.7521,0.7886,0.8,0.8081,0.8276,0.869,0.8861,0.9137,0.9665,0.0,1.0139,0.0,0.0,0.0,0.0,0.0,0.0,0.0,1.111,1.1005,1.0704,1.0688,1.0607,1.0383,1.0383,1.0314,1.0131,1.0131,1.0152,1.0274,1.0274,1.0396,1.0607,0.0,0.0,0.0,1.0428,1.0461,1.0607,1.0485,1.0622,1.094,1.1263,1.1585,1.1872,0.0,0.0,0.0,0.0,0.0,0.0,0.7771,0.7902,0.8081,0.8268,0.8292,0.8292,0.8292,0.8016,0.7804,0.7796,0.7624,0.0,0.0,0.0,0.0,0.0,0.0,0.0,0.0,0.0,0.748,0.748,0.748,0.748,0.748,0.748,0.748,0.748,0.0,0.0,0.0,0.0,0.0,0.0,0.0,0.0,0.0,0.0,0.0,0.0,0.0,0.0,0.0,0.0,0.0,0.0,0.0,0.7488,0.7561,0.7918,0.8536,0.9104,0.9104,0.9364,0.9583,0.9453,0.908,0.8723,0.8365,0.7732,0.7183,0.7183,0.7082,0.7102,0.7453,0.748,0.7602,0.7959,0.787,0.7992,0.8539,0.8612,0.8816,0.0,0.0,0.9624,1.0163,0.0,0.0,0.0,0.0,0.0,0.0,1.1062,1.0883,1.0696,1.0688,1.0607,1.0383,1.0383,1.0249,0.9884,0.9884,0.9892,0.9892,0.9892,1.0087,0.0,0.0,0.0,0.0,1.0241,1.0274,1.0383,1.0383,1.0704,1.1126,1.1455,1.1782,1.2055,0.0,0.0,0.0,0.0,0.0,0.0,0.0,0.7763,0.7902,0.7959,0.8032,0.8097,0.8097,0.7935,0.7796,0.7796,0.7624,0.0,0.0,0.0,0.0,0.0,0.0,0.0,0.0,0.0,0.748,0.748,0.748,0.748,0.748,0.748,0.748,0.748,0.748,0.0,0.0,0.0,0.0,0.0,0.0,0.0,0.0,0.0,0.0,0.0,0.0,0.0,0.0,0.0,0.0,0.0,0.0,0.0,0.0,0.7618,0.7983,0.8414,0.8666,0.882,0.8861,0.8674,0.8357,0.8032,0.7797,0.7374,0.7077,0.7077,0.709,0.7171,0.7285,0.7504,0.7788,0.7975,0.8073,0.8269,0.8571,0.8666,0.8942,0.9478,0.9973,1.0339,0.0,0.0,0.0,0.0,0.0,0.0,0.0,1.094,1.0753,1.0696,1.0688,1.0664,1.0607,1.0607,1.0493,1.0257,1.0257,1.0193,1.0122,1.0122,0.0,0.0,0.0,0.0,0.0,1.0241,1.0245,1.0249,1.0249,1.0408,1.0679,1.1003,1.1404,1.1782,0.0,0.0,0.0,0.0,0.0,0.0,0.0,0.7682,0.7796,0.7796,0.7894,0.7943,0.8008,0.7797,0.7722,0.7796,0.7624,0.0,0.0,0.0,0.0,0.0,0.0,0.0,0.748,0.748,0.7559,0.7624,0.7624,0.7624,0.7624,0.7624,0.7592,0.748,0.748,0.748,0.0,0.0,0.0,0.0,0.0,0.0,0.748,0.0,0.0,0.0,0.0,0.0,0.0,0.0,0.0,0.0,0.0,0.0,0.0,0.0,0.7642,0.7894,0.826,0.8406,0.8422,0.8235,0.7975,0.7731,0.7447,0.7212,0.7094,0.7094,0.7147,0.7231,0.7407,0.7553,0.7771,0.7975,0.8057,0.8245,0.8563,0.8714,0.0,0.9518,0.0,0.0,0.0,0.0,0.0,0.0,0.0,0.0,0.0,1.0915,1.0761,1.0696,1.0688,1.0688,1.0688,1.0688,1.0607,1.0383,1.0383,1.0298,1.0106,1.0106,0.0,0.0,0.0,0.0,0.0,1.0038,0.9998,1.0106,1.0106,1.0209,1.0436,1.0757,1.1136,1.1455,0.0,0.0,0.0,0.0,0.0,0.0,0.0,0.7665,0.778,0.778,0.778,0.7837,0.7959,0.7683,0.7592,0.7763,0.0,0.0,0.0,0.0,0.0,0.0,0.0,0.0,0.748,0.748,0.7608,0.778,0.7796,0.7796,0.7796,0.7796,0.7706,0.7504,0.7488,0.748,0.748,0.748,0.748,0.748,0.748,0.748,0.0,0.0,0.0,0.0,0.0,0.0,0.0,0.0,0.0,0.0,0.0,0.0,0.0,0.0,0.0,0.0,0.0,0.8089,0.817,0.8,0.7829,0.7657,0.7301,0.7191,0.0,0.7191,0.7207,0.7366,0.7739,0.7665,0.7634,0.7975,0.7902,0.8024,0.8555,0.8763,0.0,0.0,0.9973,0.0,0.0,0.0,0.0,0.0,0.0,0.0,0.0,1.1028,1.0883,1.0737,1.0704,1.0688,1.0688,1.0688,1.0607,1.0383,1.0383,1.0241,0.9884,0.9884,0.0,0.0,0.0,0.0,0.0,0.9697,0.9721,0.9868,0.9868,1.0087,1.0396,1.0715,1.0949,1.1109,0.0,0.0,0.0,0.0,0.0,0.0,0.0,0.0,0.0,0.0,0.7584,0.7561,0.7602,0.7537,0.7496,0.0,0.0,0.0,0.0,0.0,0.0,0.0,0.0,0.0,0.748,0.748,0.7504,0.7584,0.7731,0.7796,0.7796,0.7796,0.778,0.7731,0.7584,0.748,0.748,0.748,0.748,0.748,0.748,0.748,0.0,0.0,0.0,0.0,0.748,0.748,0.0,0.0,0.0,0.0,0.0,0.0,0.0,0.0,0.748,0.7504,0.7586,0.0,0.7425,0.7385,0.7277,0.7192,0.0,0.7191,0.7191,0.7191,0.7447,0.7698,0.7788,0.7829,0.7959,0.8187,0.8195,0.8308,0.8706,0.0,0.0,0.9811,0.0,0.0,0.0,0.0,0.0,0.0,0.0,0.0,0.0,1.098,1.0858,1.1094,1.0834,1.0688,1.0688,1.0688,1.0607,1.0383,1.0383,1.0241,0.9884,0.9884,0.0,0.0,0.0,0.0,0.9868,0.9697,0.9648,0.9689,0.9689,0.9819,1.0014,1.0117,1.0479,1.0977,0.0,0.0,0.0,0.0,0.0,0.0,0.0,0.0,0.0,0.0,0.0,0.0,0.0,0.0,0.0,0.0,0.0,0.0,0.0,0.0,0.0,0.0,0.0,0.748,0.748,0.748,0.7567,0.7649,0.7747,0.7837,0.787,0.7837,0.7796,0.7788,0.7608,0.748,0.748,0.748,0.748,0.7488,0.7616,0.0,0.0,0.0,0.0,0.0,0.7551,0.748,0.0,0.748,0.748,0.748,0.0,0.0,0.0,0.0,0.748,0.7464,0.7382,0.7293,0.7207,0.7326,0.7184,0.7053,0.7285,0.7285,0.7207,0.7326,0.7496,0.7722,0.7845,0.7886,0.8008,0.8357,0.8422,0.0,0.0,0.0,0.9973,1.0225,0.0,0.0,0.0,0.0,0.0,0.0,0.0,0.0,0.0,1.0932,1.0867,1.0972,1.0875,1.0777,1.0688,1.0688,1.0647,1.055,1.055,1.0363,1.0065,1.0065,0.9925,0.0,0.0,0.0,0.9762,0.9665,0.9575,0.9575,0.9575,0.973,0.9884,0.9884,1.0166,1.0587,0.0,0.0,0.0,0.0,0.0,0.0,0.0,0.0,0.0,0.0,0.0,0.0,0.0,0.0,0.0,0.0,0.0,0.0,0.0,0.0,0.0,0.0,0.7496,0.748,0.748,0.748,0.76,0.7755,0.7812,0.787,0.8008,0.7894,0.7853,0.7796,0.7633,0.7551,0.748,0.748,0.7496,0.7575,0.7739,0.0,0.0,0.0,0.0,0.0,0.0,0.0,0.0,0.748,0.748,0.748,0.748,0.0,0.0,0.0,0.0,0.0,0.7301,0.7261,0.7293,0.7415,0.7257,0.7126,0.7486,0.7415,0.7358,0.7529,0.7586,0.7699,0.8,0.7959,0.8073,0.8539,0.8677,0.0,0.9575,0.986,1.016,1.0566,0.0,0.0,0.0,0.0,0.0,0.0,0.0,0.0,0.0,1.0858,1.0867,1.0737,1.0858,1.085,1.0696,1.0688,1.0688,1.0688,1.0664,1.0493,1.0253,1.0196,0.9957,0.0,0.0,0.0,0.9575,0.9575,0.9575,0.9575,0.9575,0.9721,0.9843,0.9843,0.9965,1.0144,0.0,0.0,0.0,0.0,0.0,0.0,0.0,0.0,0.0,0.0,0.0,0.0,0.0,0.0,0.0,0.0,0.0,0.0,0.0,0.0,0.0,0.7747,0.7608,0.748,0.748,0.748,0.7496,0.7567,0.7829,0.7983,0.8016,0.8146,0.809,0.7796,0.7771,0.7665,0.748,0.748,0.7616,0.7763,0.7788,0.0,0.0,0.0,0.0,0.0,0.0,0.0,0.0,0.748,0.748,0.748,0.748,0.0,0.0,0.0,0.0,0.0,0.7447,0.7447,0.7415,0.7293,0.722,0.7277,0.7673,0.7739,0.7763,0.7894,0.8057,0.8187,0.8235,0.84,0.8514,0.8596,0.0,0.9429,0.0,0.0,0.0,0.0,0.0,0.0,0.0,0.0,0.0,0.0,0.0,0.0,0.0,1.0802,1.0794,1.0923,1.0802,1.072,1.0688,1.0688,1.0688,1.0688,1.0542,1.0444,1.0379,1.0071,0.99,0.0,0.0,0.9575,0.9575,0.9575,0.9575,0.9575,0.9575,0.9599,0.9665,0.9665,0.9778,0.9949,0.0,0.0,0.0,0.0,0.0,0.0,0.0,0.0,0.0,0.0,0.0,0.0,0.0,0.0,0.0,0.0,0.0,0.0,0.0,0.0,0.7608,0.7788,0.7624,0.748,0.748,0.7616,0.7675,0.7772,0.7935,0.8113,0.8308,0.8195,0.8,0.7796,0.7698,0.76,0.7488,0.7624,0.7665,0.7673,0.0,0.0,0.0,0.0,0.0,0.0,0.0,0.0,0.0,0.0,0.748,0.748,0.748,0.0,0.0,0.0,0.0,0.0,0.7366,0.7415,0.7464,0.7382,0.7439,0.7586,0.7837,0.7894,0.7918,0.8,0.8081,0.817,0.8268,0.8482,0.8735,0.908,0.0,0.9624,0.0,0.0,0.0,0.0,0.0,0.0,0.0,0.0,0.0,0.0,0.0,0.0,0.0,0.0,1.0729,1.0818,1.0737,1.0688,1.0688,1.0688,1.0688,1.0688,1.0615,1.0469,1.0282,1.0111,0.9933,0.9738,0.0,0.9575,0.9575,0.9575,0.9575,0.9575,0.9575,0.9575,0.9575,0.9575,0.9738,0.99,0.0,0.0,0.0,0.0,0.0,0.0,0.0,0.0,0.0,0.0,0.0,0.0,0.0,0.0,0.0,0.0,0.0,0.0,0.0,0.7543,0.7608,0.7788,0.7665,0.7569,0.7602,0.7788,0.7902,0.8073,0.8122,0.8284,0.8604,0.8227,0.7983,0.7853,0.7665,0.7559,0.7488,0.7673,0.7682,0.7624,0.0,0.0,0.0,0.0,0.0,0.0,0.0,0.0,0.0,0.0,0.0,0.0,0.0,0.0,0.0,0.748,0.748,0.7456,0.7326,0.7382,0.748,0.748,0.7665,0.7853,0.8032,0.8073,0.8089,0.8138,0.8178,0.8235,0.8341,0.8536,0.0,0.9527,0.9697,0.0,0.0,0.0,0.0,0.0,0.0,0.0,0.0,0.0,0.0,0.0,0.0,0.0,0.0,0.0,1.0688,1.0688,1.0688,1.0688,1.0688,1.0641,1.0641,1.0688,1.0607,1.0444,1.0217,1.0095,0.9908,0.9689,0.9648,0.9575,0.9575,0.9575,0.9575,0.9575,0.9575,0.9575,0.9575,0.9575,0.9713,0.9827,0.0,0.0,0.0,0.0,0.0,0.0,0.0,0.0,0.0,0.0,0.0,0.0,0.0,0.0,0.0,0.0,0.0,0.0,0.0,0.7616,0.7608,0.7788,0.7788,0.7853,0.7967,0.7983,0.8089,0.8268,0.8446,0.8588,0.8604,0.8365,0.817,0.7983,0.7853,0.7682,0.748,0.7496,0.7633,0.7796,0.7951,0.0,0.0,0.0,0.0,0.0,0.0,0.0,0.0,0.0,0.0,0.0,0.0,0.0,0.748,0.748,0.748,0.748,0.7464,0.7472,0.748,0.748,0.7665,0.7886,0.8195,0.8268,0.8316,0.8539,0.8649,0.8723,0.862,0.8828,0.9185,0.9567,0.9908,0.0,0.0,0.0,0.0,0.0,0.0,0.0,0.0,0.0,0.0,0.0,0.0,0.0,0.0,0.0,0.0,1.0688,1.0688,1.0688,1.0688,1.0476,1.0476,1.0688,1.0355,1.0274,1.0342,0.9841,0.9738,0.986,0.9697,0.9575,0.9575,0.9575,0.9575,0.9575,0.9575,0.9575,0.9575,0.9575,0.9583,0.9599,0.0,0.0,0.0,0.0,0.0,0.0,0.0,0.0,0.0,0.0,0.0,0.0,0.0,0.0,0.0,0.0,0.0,0.0,0.0,0.7731,0.7771,0.791,0.7707,0.7772,0.8178,0.8187,0.8276,0.8506,0.8641,0.8609,0.839,0.8203,0.8024,0.7845,0.7706,0.7584,0.7488,0.7649,0.7665,0.7665,0.8024,0.8154,0.0,0.0,0.0,0.0,0.0,0.0,0.0,0.0,0.76,0.7673,0.7559,0.748,0.748,0.748,0.748,0.7456,0.735,0.7399,0.7551,0.7665,0.7789,0.7983,0.8235,0.8463,0.8641,0.8714,0.8869,0.9007,0.9094,0.9216,0.9461,0.9884,1.0071,0.0,0.0,0.0,0.0,0.0,0.0,0.0,0.0,0.0,0.0,0.0,0.0,0.0,0.0,0.0,0.0,1.0688,1.0688,1.0688,1.0688,1.0421,1.0311,1.0247,0.9961,0.9777,0.973,0.9576,0.9519,0.9472,0.9557,0.9575,0.9575,0.9575,0.9575,0.9575,0.9575,0.9575,0.9575,0.9575,0.9575,0.9575,0.0,0.0,0.0,0.0,0.0,0.0,0.0,0.0,0.0,0.0,0.0,0.0,0.0,0.0,0.0,0.0,0.0,0.0,0.7812,0.7796,0.7829,0.7845,0.7667,0.7772,0.8195,0.826,0.8406,0.8649,0.8763,0.8641,0.8284,0.8162,0.8008,0.7869,0.769,0.7608,0.7616,0.7682,0.7673,0.7649,0.8032,0.8162,0.0,0.0,0.0,0.0,0.0,0.0,0.0,0.0,0.7608,0.769,0.7559,0.748,0.7496,0.7592,0.7608,0.7561,0.7488,0.7561,0.7683,0.7845,0.7967,0.8162,0.8406,0.8649,0.8836,0.8893,0.9007,0.9169,0.9397,0.9535,0.0,0.0,0.0,0.0,0.0,0.0,0.0,0.0,0.0,0.0,0.0,0.0,0.0,0.0,0.0,0.0,0.0,0.0,0.0,0.0,1.0688,1.0641,1.0586,1.0257,0.9946,0.9724,0.9352,0.9197,0.9242,0.9274,0.9187,0.908,0.9377,0.9484,0.9484,0.9575,0.9575,0.9575,0.9575,0.9575,0.9575,0.9575,0.9575,0.9575,0.0,0.0,0.0,0.0,0.0,0.0,0.0,0.0,0.0,0.0,0.0,0.0,0.0,0.0,0.0,0.0,0.0,0.0,0.7812,0.7804,0.7714,0.7496,0.7698,0.7877,0.8008,0.8195,0.8463,0.8812,0.8812,0.8633,0.8284,0.8284,0.8187,0.8008,0.7877,0.7804,0.7788,0.76,0.7633,0.7812,0.7943,0.8122,0.8292,0.0,0.0,0.0,0.0,0.0,0.0,0.0,0.7488,0.7488,0.748,0.748,0.7559,0.7747,0.7796,0.7837,0.7967,0.8016,0.8016,0.8016,0.8154,0.839,0.8747,0.882,0.8877,0.9064,0.9096,0.921,0.9567,0.977,0.0,0.0,0.0,0.0,0.0,0.0,0.0,0.0,0.0,0.0,0.0,0.0,0.0,0.0,0.0,0.0,0.0,0.0,0.0,0.0,1.0688,1.0578,1.0304,0.9807,0.9455,0.9187,0.8567,0.8575,0.9071,0.8899,0.8775,0.8825,0.908,0.9187,0.9236,0.9484,0.9575,0.9575,0.9575,0.9575,0.9575,0.9575,0.9575,0.9575,0.0,0.0,0.0,0.0,0.0,0.0,0.0,0.0,0.0,0.0,0.0,0.0,0.0,0.0,0.0,0.0,0.0,0.0,0.7951,0.7869,0.7771,0.7722,0.7641,0.769,0.7869,0.8008,0.8211,0.8446,0.8446,0.8325,0.8097,0.8097,0.8065,0.8008,0.7959,0.787,0.7796,0.7739,0.7747,0.7812,0.7943,0.8122,0.8308,0.0,0.0,0.0,0.0,0.0,0.0,0.0,0.0,0.0,0.7559,0.748,0.7559,0.7747,0.7796,0.7837,0.7967,0.8016,0.8073,0.8341,0.849,0.8653,0.9135,0.8999,0.8909,0.9265,0.9322,0.9437,0.9746,0.9851,0.0,0.0,0.0,0.0,0.0,0.0,0.0,0.0,0.0,0.0,0.0,0.0,0.0,0.0,0.0,0.0,0.0,0.0,0.0,0.0,1.0168,1.0015,0.9694,0.9315,0.9017,0.8865,0.8463,0.8371,0.8517,0.8507,0.8528,0.8528,0.8775,0.8924,0.8931,0.9229,0.9434,0.9575,0.9575,0.9575,0.9575,0.9575,0.9575,0.9575,0.0,0.0,0.0,0.0,0.0,0.0,0.0,0.0,0.0,0.0,0.7616,0.774,0.0,0.0,0.0,0.0,0.0,0.0,0.0,0.7918,0.7837,0.7698,0.7584,0.7608,0.7796,0.7927,0.8032,0.8122,0.8146,0.8122,0.8016,0.8089,0.8122,0.8122,0.8122,0.8024,0.7854,0.7829,0.7837,0.787,0.7967,0.817,0.8406,0.0,0.0,0.0,0.0,0.0,0.0,0.0,0.0,0.0,0.7521,0.748,0.7529,0.7789,0.7862,0.791,0.8162,0.8284,0.839,0.8609,0.8723,0.8861,0.9224,0.9194,0.9226,0.9559,0.9616,0.9706,0.9941,1.0054,0.0,0.0,0.0,0.0,0.0,0.0,0.0,0.0,0.0,0.0,0.0,0.0,0.0,0.0,0.0,0.0,0.0,0.0,0.0,0.0,0.9738,0.958,0.922,0.8945,0.8711,0.8524,0.8309,0.818,0.8174,0.8229,0.8237,0.8237,0.8528,0.8726,0.8825,0.908,0.9286,0.9434,0.9575,0.9575,0.9575,0.9575,0.9575,0.9575,0.0,0.0,0.7289,0.6478,0.0,0.0,0.0,0.0,0.0,0.0,0.748,0.761,0.0,0.0,0.0,0.0,0.0,0.0,0.0,0.7983,0.7821,0.7496,0.748,0.76,0.7771,0.7886,0.7886,0.7771,0.7902,0.8,0.8016,0.8187,0.8284,0.8316,0.8316,0.8203,0.8,0.7886,0.787,0.8016,0.8016,0.8227,0.8571,0.8357,0.0,0.0,0.0,0.0,0.0,0.0,0.0,0.0,0.748,0.748,0.7553,0.791,0.8016,0.8097,0.8514,0.869,0.8828,0.8844,0.8999,0.9145,0.9145,0.9397,0.9673,0.9827,0.9884,0.9965,1.0204,1.0322,0.0,0.0,0.0,0.0,0.0,0.0,0.0,0.0,0.0,0.0,0.0,0.0,0.0,0.0,0.0,0.0,0.0,0.0,0.0,0.9347,0.9302,0.919,0.8803,0.872,0.8503,0.0,0.8106,0.7988,0.7988,0.7988,0.7988,0.7988,0.8237,0.8528,0.8775,0.9031,0.9137,0.9236,0.9476,0.9583,0.9575,0.9575,0.9575,0.9575,0.0,0.0,0.4142,0.5156,0.0,0.0,0.0,0.0,0.0,0.0,0.0,0.0,0.0,0.0,0.0,0.0,0.0,0.0,0.0,0.7756,0.7561,0.7488,0.748,0.7504,0.7584,0.7577,0.7577,0.7584,0.7763,0.7886,0.8016,0.8057,0.8227,0.8555,0.8555,0.8325,0.8008,0.7975,0.7975,0.8016,0.8016,0.8146,0.8349,0.8308,0.8203,0.0,0.0,0.0,0.0,0.0,0.0,0.0,0.748,0.748,0.7553,0.791,0.8016,0.8097,0.8514,0.869,0.8852,0.8999,0.9275,0.951,0.951,0.9575,0.9591,0.9673,0.9908,1.016,1.0339,0.0,0.0,0.0,0.0,0.0,0.0,0.0,0.0,0.0,0.0,0.0,0.0,0.0,0.0,0.0,0.0,0.0,0.0,0.0,0.0,0.8643,0.8758,0.8663,0.8183,0.8149,0.8142,0.0,0.8008,0.7988,0.7988,0.7988,0.7988,0.7988,0.8038,0.8237,0.8478,0.8535,0.8832,0.9187,0.9286,0.9434,0.9575,0.9575,0.9575,0.9575,0.0,0.0,0.0,0.0,0.0,0.0,0.0,0.0,0.0,0.0,0.0,0.0,0.0,0.0,0.0,0.0,0.7992,0.0,0.0,0.0,0.774,0.774,0.774,0.774,0.774,0.7659,0.7657,0.7657,0.7755,0.7886,0.8016,0.8016,0.8211,0.8604,0.8514,0.8276,0.8008,0.7927,0.7894,0.7894,0.7894,0.8,0.8146,0.8065,0.7975,0.787,0.7731,0.0,0.0,0.0,0.0,0.0,0.0,0.0,0.7537,0.7813,0.7951,0.8073,0.8357,0.869,0.9015,0.9283,0.9486,0.9575,0.9575,0.9689,0.9778,0.9868,1.003,1.0294,1.0509,0.0,0.0,0.0,0.0,0.0,0.0,0.0,0.0,0.0,0.0,0.0,0.0,0.0,0.0,0.0,0.0,0.0,0.0,0.9218,0.894,0.8244,0.8313,0.827,0.7988,0.7988,0.7988,0.7988,0.7988,0.7988,0.7988,0.7988,0.7988,0.7988,0.7988,0.8088,0.8237,0.8329,0.8584,0.8832,0.9088,0.9286,0.9434,0.9525,0.9575,0.9575,0.0,0.0,0.0,0.0,0.0,0.0,0.0,0.0,0.0,0.0,0.0,0.0,0.0,0.0,0.7837,0.0,0.0,0.0,0.0,0.0,0.0,0.8016,0.8016,0.8016,0.8016,0.7886,0.7796,0.7796,0.7796,0.7886,0.8016,0.8048,0.8243,0.8604,0.8373,0.8187,0.8,0.7869,0.7796,0.7796,0.7796,0.7886,0.7951,0.7853,0.7796,0.778,0.7624,0.7567,0.7537,0.7561,0.0,0.0,0.0,0.0,0.7529,0.778,0.7886,0.8016,0.8235,0.8666,0.9137,0.9494,0.9583,0.9592,0.9575,0.9738,0.9892,1.0131,1.0196,1.0326,0.0,0.0,0.0,0.0,0.0,0.0,0.0,0.0,0.0,0.0,0.0,0.0,0.0,0.0,0.0,0.0,0.0,0.0,0.884,0.8708,0.847,0.7995,0.7988,0.7988,0.7988,0.7988,0.7988,0.7988,0.7988,0.7988,0.7988,0.7988,0.7988,0.7988,0.7988,0.7988,0.8038,0.8237,0.8386,0.8428,0.8882,0.9088,0.9179,0.9434,0.9533,0.9533,0.0,0.0,0.0,0.0,0.0,0.0,0.0,0.0,0.0,0.0,0.6318,0.6633,0.0,0.0,0.0,0.7983,0.7878,0.0,0.0,0.0,0.0,0.8016,0.8016,0.8016,0.8016,0.7886,0.7796,0.7796,0.7796,0.7886,0.8016,0.8178,0.8365,0.8604,0.8373,0.8187,0.8,0.7869,0.7796,0.7796,0.7796,0.7812,0.7829,0.7812,0.7796,0.7796,0.7771,0.7763,0.7788,0.7894,0.774,0.0,0.0,0.0,0.7545,0.7878,0.7894,0.791,0.8203,0.8568,0.8942,0.9347,0.9437,0.9477,0.9592,0.9648,0.9713,0.0,1.0098,0.0,0.0,0.0,0.0,0.0,0.0,0.0,0.0,0.0,0.0,0.0,0.0,0.0,0.0,0.0,0.0,0.0,0.0,0.0,0.8825,0.8549,0.8307,0.7988,0.7988,0.7988,0.7988,0.7988,0.7988,0.7988,0.7988,0.7988,0.7988,0.7988,0.7988,0.7988,0.7988,0.7988,0.7988,0.8038,0.8187,0.8386,0.8485,0.8627,0.8874,0.913,0.9236,0.9286,0.0,0.0,0.0,0.0,0.0,0.0,0.0,0.0,0.0,0.0,0.0,0.7046,0.0,0.0,0.0,0.0,0.0,0.0,0.0,0.0,0.0,0.8316,0.8325,0.8325,0.8325,0.8048,0.7902,0.7902,0.7902,0.7943,0.8016,0.8308,0.8531,0.8596,0.8268,0.8089,0.8,0.7724,0.7641,0.7641,0.7641,0.7706,0.7796,0.7796,0.7861,0.7902,0.7902,0.7902,0.791,0.7983,0.791,0.7805,0.7967,0.0,0.0,0.0,0.7959,0.7983,0.8349,0.856,0.8763,0.912,0.9331,0.942,0.9453,0.9551,0.9673,0.9851,0.0,0.0,0.0,0.0,0.0,0.0,0.0,0.0,0.0,0.0,0.0,0.0,0.0,0.0,0.0,0.0,0.0,0.0,0.0,0.908,0.8825,0.8528,0.8287,0.7988,0.7988,0.7988,0.7988,0.7988,0.7988,0.7988,0.7988,0.7988,0.7988,0.7988,0.7988,0.7988,0.7988,0.7988,0.7988,0.7988,0.8088,0.8187,0.8329,0.8478,0.8627,0.8874,0.908,0.9236,0.0,0.0,0.0,0.0,0.0,0.0,0.0,0.0,0.0,0.0,0.0,0.0,0.0,0.0,0.0,0.0,0.0,0.0,0.0,0.0,0.0,0.0,0.0,0.8612,0.8612,0.8203,0.8016,0.8016,0.7967,0.7967,0.8016,0.8349,0.8563,0.8596,0.8227,0.8057,0.7992,0.7683,0.7567,0.7488,0.7575,0.7673,0.7804,0.7845,0.7935,0.8081,0.8081,0.8081,0.8089,0.8138,0.8089,0.8032,0.8122,0.8089,0.0,0.0,0.0,0.8008,0.8326,0.8433,0.8511,0.8869,0.911,0.9224,0.9314,0.9397,0.9527,0.0,0.0,0.0,0.0,0.0,0.0,0.0,0.0,0.0,0.0,0.0,0.0,0.0,0.0,0.0,0.0,0.0,0.0,0.0,0.0,0.908,0.8825,0.8528,0.8287,0.7988,0.7988,0.7988,0.7988,0.7988,0.7988,0.7988,0.7988,0.7988,0.7988,0.7988,0.7988,0.7988,0.7988,0.7988,0.7988,0.7988,0.7988,0.8038,0.8237,0.8287,0.8336,0.8577,0.8874,0.913,0.0,0.0,0.0,0.0,0.0,0.0,0.0,0.0,0.0,0.0,0.0,0.0,0.7661,0.7756,0.7796,0.7796,0.7796,0.0,0.0,0.0,0.0,0.0,0.0,0.0,0.8612,0.8203,0.8016,0.8016,0.7894,0.7854,0.8016,0.8211,0.8398,0.8604,0.8365,0.8178,0.8,0.7861,0.7682,0.7535,0.7714,0.7788,0.782,0.7943,0.8113,0.8276,0.8276,0.8276,0.0,0.0,0.0,0.0,0.8473,0.83,0.8016,0.0,0.0,0.0,0.7837,0.7918,0.813,0.8547,0.8645,0.8743,0.9031,0.0,0.9129,0.0,0.0,0.0,0.0,0.0,0.0,0.0,0.0,0.0,0.0,0.0,0.0,0.0,0.0,0.0,0.0,0.0,0.0,0.0,0.0,0.908,0.8825,0.8528,0.8287,0.7988,0.7988,0.7988,0.7988,0.7988,0.7988,0.7988,0.7988,0.7988,0.7988,0.7988,0.7988,0.7988,0.7988,0.7988,0.7988,0.7988,0.7988,0.7988,0.8038,0.8038,0.8038,0.8336,0.8577,0.8874,0.0,0.0,0.0,0.0,0.0,0.0,0.0,0.0,0.0,0.0,0.0,0.0,0.0,0.7796,0.7796,0.7796,0.7796,0.0,0.0,0.0,0.0,0.0,0.0,0.0,0.839,0.8032,0.7894,0.7894,0.7829,0.7829,0.7854,0.8032,0.8146,0.8211,0.8138,0.8073,0.7992,0.7707,0.7649,0.7706,0.7771,0.7935,0.8105,0.817,0.8308,0.8514,0.8514,0.0,0.0,0.0,0.0,0.0,0.0,0.0,0.8325,0.8081,0.7894,0.7796,0.7796,0.7845,0.791,0.8154,0.83,0.8455,0.8698,0.8844,0.895,0.0,0.0,0.0,0.0,0.0,0.0,0.0,0.0,0.0,0.0,0.0,0.0,0.0,0.0,0.0,0.0,0.0,0.0,0.0,0.0,0.0,0.8825,0.8726,0.8428,0.7988,0.7988,0.7988,0.7988,0.7988,0.7988,0.7988,0.7988,0.7988,0.7988,0.7988,0.7988,0.7988,0.7988,0.7988,0.7988,0.7988,0.7988,0.7988,0.7988,0.7988,0.7988,0.8088,0.8336,0.8577,0.0,0.0,0.0,0.0,0.0,0.7843,0.7208,0.7467,0.7533,0.6871,0.0,0.0,0.0,0.0,0.7926,0.7812,0.7853,0.787,0.7927,0.8097,0.0,0.0,0.0,0.0,0.8195,0.7951,0.7796,0.7796,0.7739,0.7739,0.7804,0.7878,0.7959,0.8008,0.7951,0.7927,0.7918,0.774,0.7699,0.7812,0.7926,0.8122,0.83,0.8357,0.8506,0.0,0.0,0.0,0.0,0.0,0.0,0.0,0.0,0.0,0.8414,0.8105,0.7894,0.7796,0.7796,0.7755,0.7763,0.7959,0.8065,0.822,0.8465,0.856,0.8698,0.0,0.0,0.0,0.0,0.0,0.0,0.0,0.0,0.0,0.0,0.0,0.0,0.0,0.0,0.0,0.0,0.0,0.0,0.0,0.0,0.0,0.8825,0.8726,0.8478,0.7988,0.7988,0.7988,0.7988,0.7988,0.7988,0.7988,0.7988,0.7988,0.7988,0.7988,0.7988,0.7988,0.7988,0.7988,0.7988,0.7988,0.7988,0.7988,0.7988,0.7988,0.7988,0.7988,0.8187,0.8428,0.0,0.8612,0.8612,0.8612,0.8604,0.8539,0.8308,0.8276,0.8211,0.8024,0.0,0.0,0.0,0.0,0.0,0.7829,0.791,0.7935,0.7804,0.791,0.0,0.0,0.0,0.0,0.8008,0.7877,0.7788,0.7788,0.7608,0.7616,0.7788,0.7788,0.7877,0.7992,0.7869,0.7788,0.7804,0.7935,0.791,0.7837,0.8146,0.8292,0.8316,0.8547,0.0,0.0,0.8612,0.8612,0.0,0.8612,0.0,0.0,0.0,0.0,0.8251,0.8065,0.7894,0.7804,0.0,0.0,0.0,0.7918,0.7878,0.7886,0.8195,0.0,0.8333,0.0,0.0,0.0,0.0,0.0,0.0,0.0,0.0,0.0,0.0,0.0,0.0,0.0,0.0,0.0,0.0,0.0,0.0,0.0,0.0,0.908,0.8825,0.8528,0.8287,0.7988,0.7988,0.7988,0.7988,0.7988,0.7988,0.7988,0.7988,0.7988,0.7988,0.7988,0.7988,0.7988,0.7988,0.7988,0.7988,0.7988,0.7988,0.7988,0.7988,0.7988,0.7988,0.7988,0.8187,0.8386,0.8612,0.8612,0.8612,0.8612,0.8498,0.8308,0.8113,0.7983,0.7877,0.0,0.0,0.0,0.7877,0.7983,0.8,0.782,0.7845,0.7796,0.7608,0.7771,0.7869,0.7869,0.7869,0.7869,0.7869,0.769,0.76,0.76,0.7504,0.7551,0.76,0.76,0.7586,0.7626,0.7577,0.76,0.7608,0.7796,0.787,0.7959,0.8195,0.8373,0.8539,0.0,0.0,0.0,0.0,0.8612,0.8612,0.0,0.8612,0.8612,0.0,0.8482,0.8251,0.8065,0.7975,0.7918,0.7837,0.0,0.0,0.0,0.0,0.0,0.7894,0.8,0.8146,0.0,0.0,0.0,0.0,0.0,0.0,0.0,0.0,0.0,0.0,0.0,0.0,0.0,0.0,0.0,0.0,0.0,0.0,0.0,0.9335,0.908,0.8825,0.8386,0.8088,0.7988,0.7988,0.7988,0.7988,0.7988,0.7988,0.7988,0.7988,0.7988,0.7988,0.7988,0.7988,0.7988,0.7988,0.7988,0.7988,0.7988,0.7988,0.7988,0.7988,0.7988,0.7988,0.7988,0.8038,0.8151,0.8612,0.8612,0.8612,0.8612,0.8522,0.8341,0.8154,0.7983,0.7805,0.0,0.0,0.0,0.8122,0.8187,0.8138,0.7886,0.7862,0.7756,0.7496,0.7624,0.7682,0.7682,0.7682,0.7722,0.7796,0.7616,0.7559,0.7641,0.7559,0.748,0.748,0.748,0.748,0.748,0.748,0.748,0.7496,0.7722,0.7854,0.8032,0.8219,0.0,0.0,0.8612,0.8612,0.0,0.0,0.0,0.8612,0.8612,0.8612,0.0,0.0,0.0,0.8365,0.0,0.813,0.8105,0.8049,0.7967,0.7862,0.7862,0.0,0.0,0.7771,0.7894,0.8065,0.0,0.0,0.0,0.0,0.0,0.0,0.0,0.0,0.0,0.0,0.0,0.0,0.0,0.0,0.0,0.0,0.0,0.0,0.9575,0.9335,0.9031,0.8676,0.8237,0.7988,0.7988,0.7988,0.7988,0.7988,0.7988,0.7988,0.7988,0.7988,0.7988,0.7988,0.7988,0.7988,0.7988,0.7988,0.7988,0.7988,0.7988,0.7988,0.7988,0.7988,0.7988,0.7988,0.7988,0.7988,0.8052,0.0,0.8612,0.8612,0.8612,0.8612,0.8547,0.8316,0.8146,0.7983,0.0,0.7935,0.8178,0.8571,0.8612,0.8422,0.8048,0.8016,0.7862,0.7504,0.748,0.748,0.748,0.7504,0.7633,0.7796,0.7641,0.7633,0.7796,0.7616,0.748,0.748,0.748,0.748,0.748,0.748,0.748,0.7496,0.7722,0.7854,0.8032,0.8219,0.8398,0.0,0.0,0.8612,0.8612,0.8612,0.8612,0.8612,0.8612,0.8612,0.0,0.0,0.0,0.0,0.0,0.8308,0.8316,0.83,0.817,0.804,0.804,0.7902,0.0,0.782,0.7894,0.804,0.0,0.0,0.0,0.0,0.0,0.0,0.0,0.0,0.0,0.0,0.0,0.0,0.0,0.0,0.0,0.0,0.9388,0.9477,0.9616,0.9327,0.8931,0.8386,0.8137,0.7988,0.7988,0.7988,0.7988,0.7988,0.7988,0.7988,0.7988,0.7988,0.7988,0.7988,0.7988,0.7988,0.7988,0.7988,0.7988,0.7988,0.7988,0.7988,0.7988,0.7988,0.7988,0.7988,0.7988,0.7988,0.7988,0.8612,0.8612,0.8612,0.8612,0.8612,0.8547,0.8316,0.826,0.817,0.7992,0.8122,0.8316,0.8588,0.8612,0.8422,0.8048,0.8016,0.7862,0.7504,0.748,0.748,0.748,0.7665,0.7763,0.7796,0.7763,0.7763,0.7796,0.7616,0.748,0.748,0.748,0.748,0.748,0.748,0.748,0.7496,0.7722,0.0,0.8032,0.8219,0.0,0.8612,0.8612,0.8612,0.8612,0.8612,0.8612,0.8612,0.8612,0.8612,0.8612,0.0,0.0,0.0,0.8349,0.0,0.0,0.0,0.0,0.0,0.0,0.0,0.0,0.7935,0.7886,0.7943,0.0,0.0,0.0,0.0,0.0,0.0,0.0,0.0,0.0,0.0,0.0,0.0,0.0,0.0,0.0,0.0,0.9322,0.9477,0.9616,0.9179,0.8627,0.8088,0.8038,0.7988,0.7988,0.7988,0.7988,0.7988,0.7988,0.7988,0.7988,0.7988,0.7988,0.7988,0.7988,0.7988,0.7988,0.7988,0.7988,0.7988,0.7988,0.7988,0.7988,0.7988,0.7988,0.7988,0.7988,0.7988,0.8008,0.8612,0.8612,0.8612,0.8612,0.8612,0.858,0.8446,0.8349,0.826,0.8162,0.8235,0.8357,0.8588,0.8531,0.8316,0.804,0.7935,0.7772,0.7496,0.748,0.748,0.748,0.7608,0.7706,0.7796,0.7706,0.7706,0.7796,0.7616,0.748,0.748,0.748,0.7567,0.7657,0.7657,0.7667,0.7756,0.7845,0.7992,0.8162,0.8251,0.0,0.8612,0.8612,0.8612,0.8612,0.8612,0.8612,0.8612,0.8612,0.8612,0.0,0.0,0.8612,0.8596,0.0,0.8539,0.8588,0.0,0.0,0.0,0.8316,0.0,0.0,0.0,0.8016,0.8114,0.0,0.0,0.0,0.0,0.0,0.0,0.0,0.0,0.0,0.0,0.0,0.0,0.0,0.0,0.0,0.0,0.9177,0.9292,0.941,0.9023,0.8627,0.8237,0.8088,0.7988,0.7988,0.7988,0.7988,0.7988,0.7988,0.7988,0.7988,0.7988,0.7988,0.7988,0.7988,0.7988,0.7988,0.7988,0.7988,0.7988,0.7988,0.7988,0.7988,0.7988,0.7988,0.7988,0.7988,0.7988,0.8002,0.8612,0.8612,0.8612,0.8612,0.8612,0.8612,0.8612,0.8482,0.8341,0.8341,0.8341,0.8398,0.8596,0.8473,0.8268,0.8081,0.791,0.7788,0.7594,0.7553,0.7575,0.7575,0.7569,0.7682,0.7796,0.7682,0.7659,0.7845,0.7659,0.7586,0.7586,0.7586,0.7667,0.7845,0.7845,0.7886,0.8016,0.8048,0.0,0.8292,0.0,0.8473,0.8612,0.8612,0.8612,0.8612,0.8612,0.8612,0.8612,0.8653,0.8637,0.862,0.8653,0.8637,0.0,0.0,0.0,0.0,0.0,0.0,0.0,0.0,0.0,0.826,0.0,0.0,0.0,0.0,0.0,0.0,0.0,0.0,0.0,0.0,0.0,0.0,0.0,0.0,0.0,0.0,0.0,0.0,0.0,0.9058,0.9092,0.9213,0.8931,0.8627,0.8435,0.8137,0.7988,0.7988,0.7988,0.7988,0.7988,0.7988,0.7988,0.7988,0.7988,0.7988,0.7988,0.7988,0.7988,0.7988,0.7988,0.7988,0.7988,0.7988,0.7988,0.7988,0.7988,0.7988,0.7988,0.7988,0.7988,0.7988,0.8612,0.8612,0.8612,0.8612,0.8612,0.8612,0.8612,0.8596,0.858,0.858,0.858,0.8588,0.8612,0.8596,0.8506,0.8276,0.8089,0.7975,0.7951,0.7813,0.7771,0.7771,0.787,0.7894,0.7804,0.7886,0.7959,0.7983,0.7959,0.7951,0.7951,0.7951,0.7967,0.7983,0.7983,0.7992,0.8024,0.8187,0.8268,0.0,0.8514,0.8596,0.0,0.8612,0.8612,0.8612,0.8612,0.8612,0.8637,0.0,0.869,0.8637,0.0,0.869,0.8612,0.8612,0.0,0.0,0.0,0.0,0.0,0.0,0.8414,0.0,0.0,0.0,0.0,0.0,0.0,0.0,0.0,0.0,0.0,0.0,0.0,0.0,0.0,0.0,0.0,0.0,0.0,0.0,0.0,0.0,0.9074,0.9171,0.8733,0.8428,0.8379,0.8137,0.7988,0.7988,0.7988,0.7988,0.7988,0.7988,0.7988,0.7988,0.7988,0.7988,0.7988,0.7988,0.7988,0.7988,0.7988,0.7988,0.7988,0.7988,0.7988,0.7988,0.7988,0.7988,0.7988,0.7988,0.7988,0.7988,0.8612,0.8612,0.8612,0.8612,0.8612,0.8612,0.8612,0.8612,0.8571,0.8422,0.8584,0.8714,0.8714,0.8714,0.8682,0.8601,0.0,0.8016,0.0,0.0,0.7796,0.7796,0.7918,0.7975,0.791,0.7975,0.8016,0.8016,0.8016,0.8016,0.8016,0.8016,0.8073,0.817,0.817,0.8235,0.8341,0.0,0.849,0.0,0.0,0.0,0.0,0.8612,0.8612,0.8612,0.8612,0.8612,0.862,0.0,0.8625,0.0,0.0,0.0,0.0,0.0,0.0,0.0,0.0,0.0,0.0,0.0,0.0,0.0,0.8596,0.0,0.8381,0.0,0.0,0.0,0.0,0.0,0.0,0.0,0.0,0.0,0.0,0.0,0.0,0.0,0.0,0.0,0.0,0.0,0.0,0.0,0.0,0.8434,0.818,0.8038,0.7988,0.7988,0.7988,0.7988,0.7988,0.7988,0.7988,0.7988,0.7988,0.7988,0.7988,0.7988,0.7988,0.7988,0.7988,0.7988,0.7988,0.7988,0.7988,0.7988,0.7988,0.7988,0.7988,0.7988,0.7988,0.7988,0.8612,0.8612,0.8612,0.8612,0.8612,0.8612,0.8612,0.8571,0.8479,0.8438,0.8658,0.8836,0.8893,0.8893,0.0,0.0,0.8487,0.8251,0.0,0.0,0.809,0.0,0.0,0.0,0.0,0.8089,0.8089,0.8089,0.8138,0.8162,0.8162,0.8162,0.8235,0.8365,0.8365,0.8438,0.8612,0.0,0.8612,0.8612,0.8612,0.8612,0.8612,0.8612,0.8612,0.8612,0.8612,0.8612,0.862,0.8617,0.8653,0.0,0.8771,0.0,0.0,0.0,0.0,0.0,0.8612,0.0,0.0,0.0,0.0,0.0,0.0,0.0,0.0,0.0,0.0,0.0,0.0,0.0,0.0,0.0,0.0,0.0,0.0,0.0,0.0,0.0,0.0,0.0,0.0,0.0,0.0,0.0,0.0,0.0,0.8131,0.8038,0.7988,0.7988,0.7988,0.7988,0.7988,0.7988,0.7988,0.7988,0.7988,0.7988,0.7988,0.7988,0.7988,0.7988,0.7988,0.7988,0.7988,0.7988,0.7988,0.7988,0.7988,0.7988,0.7988,0.7988,0.7988,0.7988,0.8612,0.8612,0.8612,0.8612,0.8612,0.8612,0.0,0.0,0.0,0.0,0.0,0.0,0.0,0.0,0.0,0.0,0.0,0.8869,0.9047,0.0,0.8787,0.0,0.0,0.8506,0.0,0.0,0.8284,0.8284,0.8506,0.8596,0.8596,0.8596,0.8596,0.8604,0.8604,0.8604,0.8612,0.8612,0.8612,0.8612,0.8612,0.8612,0.8612,0.0,0.8612,0.8612,0.8612,0.0,0.0,0.8755,0.8706,0.0,0.0,0.0,0.0,0.0,0.0,0.0,0.0,0.0,0.0,0.8612,0.0,0.0,0.0,0.0,0.8612,0.0,0.0,0.0,0.0,0.0,0.8555,0.8325,0.849,0.0,0.0,0.0,0.0,0.0,0.0,0.0,0.0,0.0,0.0,0.0,0.0,0.0,0.8372,0.8137,0.7988,0.7988,0.7988,0.7988,0.7988,0.7988,0.7988,0.7988,0.7988,0.7988,0.7988,0.7988,0.7988,0.7988,0.7988,0.7988,0.7988,0.7988,0.7988,0.7988,0.7988,0.7988,0.7988,0.7988,0.7988,0.7988,0.8612,0.8612,0.8612,0.8612,0.8612,0.8571,0.0,0.8528,0.0,0.0,0.0,0.0,0.0,0.9445,0.9445,0.0,0.0,0.9031,0.9096,0.8926,0.0,0.0,0.0,0.8893,0.0,0.0,0.0,0.0,0.8593,0.8612,0.8612,0.8612,0.8612,0.8612,0.8612,0.8612,0.0,0.0,0.0,0.0,0.0,0.8612,0.8612,0.0,0.0,0.8612,0.8612,0.8612,0.0,0.8633,0.8617,0.8645,0.8771,0.8706,0.8637,0.8698,0.8658,0.0,0.0,0.0,0.8612,0.8612,0.0,0.0,0.0,0.0,0.0,0.0,0.0,0.0,0.0,0.0,0.8588,0.8531,0.8571,0.8588,0.0,0.0,0.0,0.0,0.0,0.0,0.0,0.0,0.0,0.0,0.0,0.0,0.0,0.8082,0.7988,0.7988,0.7988,0.7988,0.7988,0.7988,0.7988,0.7988,0.7988,0.7988,0.7988,0.7988,0.7988,0.7988,0.7988,0.7988,0.7988,0.7988,0.7988,0.7988,0.7988,0.7988,0.7988,0.7988,0.7988,0.7988,0.8612,0.8612,0.8612,0.8612,0.8612,0.0,0.0,0.0,0.0,0.0,0.9364,0.0,0.9795,0.0,0.9721,0.0,0.9453,0.9283,0.9283,0.9169,0.0,0.9104,0.9161,0.0,0.0,0.0,0.0,0.0,0.0,0.8625,0.8612,0.8612,0.8612,0.8612,0.8612,0.8612,0.8612,0.8612,0.8612,0.0,0.0,0.8612,0.0,0.0,0.8612,0.8612,0.0,0.8612,0.8612,0.8612,0.8612,0.8629,0.8698,0.8658,0.8637,0.8698,0.8698,0.8658,0.8658,0.8706,0.0,0.8755,0.8836,0.0,0.8917,0.0,0.0,0.0,0.0,0.0,0.0,0.0,0.8612,0.8612,0.8612,0.8612,0.0,0.8612,0.0,0.0,0.0,0.0,0.0,0.0,0.0,0.0,0.8066,0.0,0.0,0.0,0.7988,0.7988,0.7988,0.7988,0.7988,0.7988,0.7988,0.7988,0.7988,0.7988,0.7988,0.7988,0.7988,0.7988,0.7988,0.7988,0.7988,0.7988,0.7988,0.7988,0.7988,0.7988,0.7988,0.7988,0.7988,0.7988,0.8588,0.8596,0.862,0.0,0.862,0.0,0.0,0.0,0.925,0.0,0.9786,0.9973,1.0204,0.9998,0.9884,0.9884,0.973,0.9575,0.9575,0.9575,0.0,0.0,0.9462,0.9412,0.9412,0.0,0.0,0.0,0.0,0.8731,0.8612,0.8612,0.8612,0.8612,0.8612,0.0,0.8612,0.8612,0.8612,0.8612,0.8612,0.8612,0.8612,0.8612,0.8612,0.8612,0.8612,0.8612,0.8612,0.8612,0.8612,0.8612,0.8612,0.8612,0.8612,0.8612,0.8682,0.8812,0.882,0.895,0.9088,0.9096,0.0,0.0,0.0,0.0,0.9047,0.0,0.0,0.0,0.0,0.0,0.0,0.862,0.862,0.8612,0.862,0.0,0.0,0.0,0.0,0.0,0.0,0.0,0.7975,0.808,0.7795,0.7814,0.0,0.0,0.7988,0.7988,0.7988,0.7988,0.7988,0.7988,0.7988,0.7988,0.7988,0.7988,0.7988,0.7988,0.7988,0.7988,0.7988,0.7988,0.7988,0.7988,0.7988,0.7988,0.7988,0.7988,0.7988,0.7988,0.7988,0.7988,0.8178,0.8381,0.8694,0.0,0.8792,0.8718,0.0,0.0,0.0,0.0,0.9981,1.016,1.0347,1.0079,0.9884,0.9884,0.973,0.0,0.0,0.0,0.0,0.9575,0.9583,0.9559,0.9559,0.938,0.0,0.9023,0.0,0.0,0.8612,0.8612,0.8612,0.8612,0.8612,0.8612,0.8612,0.8612,0.8612,0.8612,0.8612,0.8612,0.0,0.0,0.8612,0.8612,0.8612,0.8612,0.8612,0.8612,0.8612,0.8612,0.8612,0.8612,0.8612,0.8612,0.8645,0.8658,0.8787,0.8852,0.8926,0.9064,0.9194,0.9339,0.0,0.0,0.0,0.0,0.0,0.0,0.0,0.0,0.0,0.8731,0.8649,0.8653,0.0,0.0,0.0,0.882,0.0,0.0,0.0,0.826,0.814,0.7708,0.807,0.8258,0.0,0.0,0.0,0.7988,0.7988,0.7988,0.7988,0.7988,0.7988,0.7988,0.7988,0.7988,0.7988,0.7988,0.7988,0.7988,0.7988,0.7988,0.7988,0.7988,0.7988,0.7988,0.7988,0.7988,0.7988,0.7988,0.7988,0.8008,0.839,0.8536,0.0,0.9145,0.0,0.0,0.9283,0.0,0.0,0.9981,1.0168,0.0,1.0314,1.0128,0.9973,0.9892,0.973,0.0,0.9575,0.0,0.0,0.9575,0.9575,0.9575,0.9575,0.9445,0.0,0.9096,0.0,0.0,0.8612,0.8612,0.8612,0.8612,0.8612,0.8612,0.8612,0.8612,0.8612,0.8612,0.8612,0.0,0.0,0.8612,0.8612,0.8612,0.8612,0.8612,0.8612,0.8612,0.8612,0.8612,0.8612,0.8612,0.8612,0.8612,0.8617,0.8714,0.8893,0.8999,0.9096,0.9283,0.9405,0.9478,0.9478,0.9397,0.9332,0.0,0.0,0.0,0.0,0.0,0.0,0.0,0.0,0.0,0.0,0.0,0.0,0.0,0.8885,0.0,0.0,0.8482,0.839,0.7891,0.8204,0.0,0.0,0.0,0.0,0.7988,0.7988,0.7988,0.7988,0.7988,0.7988,0.7988,0.7988,0.7988,0.7988,0.7988,0.7988,0.7988,0.7988,0.7988,0.7988,0.7988,0.7988,0.7988,0.7988,0.7988,0.7988,0.7988,0.7988,0.8008,0.8852,0.8852,0.0,0.0,0.0,0.0,0.0,0.9843,0.0,1.0176,0.0,1.0412,1.0302,1.0245,1.0147,0.9933,0.0,0.9575,0.9575,0.9575,0.9575,0.9575,0.9575,0.9575,0.9575,0.9445,0.9322,0.0,0.0,0.8731,0.8612,0.8612,0.8612,0.8612,0.8612,0.0,0.0,0.8612,0.8612,0.8612,0.8612,0.8612,0.8612,0.8612,0.8612,0.8612,0.8612,0.8612,0.8612,0.8612,0.8612,0.8612,0.8612,0.8612,0.8612,0.8612,0.869,0.8861,0.9047,0.9226,0.9445,0.9583,0.9575,0.9575,0.9575,0.9608,0.9551,0.9469,0.9404,0.9339,0.0,0.0,0.0,0.0,0.0,0.0,0.0,0.0,0.0,0.0,0.0,0.0,0.0,0.0,0.8504,0.8247,0.8232,0.0,0.0,0.0,0.0,0.7988,0.7988,0.0,0.7988,0.0,0.7988,0.7988,0.7988,0.7988,0.7988,0.7988,0.7988,0.7988,0.7988,0.7988,0.7988,0.7988,0.7988,0.7988,0.7988,0.7988,0.7988,0.8015,0.8022,0.8092,0.9015,0.0,0.0,0.0,0.0,0.9851,1.009,1.0225,1.0347,1.0379,1.0542,1.0631,1.0599,1.0392,1.0204,1.0171,0.9819,0.0,0.0,0.0,0.0,0.9575,0.9575,0.9575,0.9575,0.9445,0.9322,0.0,0.0,0.8731,0.8612,0.8612,0.8612,0.8612,0.8612,0.0,0.8612,0.8612,0.0,0.8612,0.8612,0.8612,0.8612,0.8612,0.8612,0.8612,0.8612,0.8612,0.8612,0.8612,0.8612,0.8612,0.8612,0.8612,0.8612,0.8612,0.869,0.8861,0.9047,0.9226,0.9445,0.9583,0.9575,0.9575,0.9575,0.951,0.9437,0.9559,0.9348,0.9226,0.9486,0.0,0.0,0.0,0.0,0.0,0.0,0.0,0.0,0.0,0.0,0.0,0.0,0.0,0.0,0.0,0.0,0.0,0.0,0.0,0.0,0.0,0.7988,0.0,0.0,0.0,0.7988,0.7988,0.7988,0.7988,0.7988,0.7988,0.7988,0.7988,0.7988,0.7988,0.7988,0.7988,0.7988,0.7988,0.7988,0.7988,0.8008,0.818,0.8228,0.8248,0.0,0.0,0.0,0.0,0.0,0.0,0.0,1.0452,0.0,1.0391,1.0455,1.0485,1.0298,1.0209,1.0139,0.99,0.973,0.9575,0.9575,0.9575,0.9575,0.9575,0.9575,0.0,0.9575,0.9364,0.9177,0.9096,0.0,0.8649,0.8612,0.8612,0.8612,0.8612,0.0,0.8612,0.0,0.0,0.0,0.8612,0.8612,0.8612,0.8612,0.8612,0.8612,0.8612,0.8612,0.8612,0.8612,0.8612,0.8612,0.8612,0.8612,0.8612,0.8612,0.8612,0.8625,0.8731,0.8909,0.9015,0.9145,0.9413,0.9486,0.951,0.9608,0.9559,0.9518,0.9608,0.9494,0.9421,0.955,0.9559,0.0,0.0,0.0,0.0,0.0,0.0,0.0,0.0,0.0,0.0,0.0,0.0,0.0,0.0,0.0,0.0,0.0,0.0,0.0,0.0,0.0,0.0,0.0,0.0,0.0,0.7988,0.7988,0.7988,0.7988,0.7988,0.7988,0.7988,0.7988,0.7988,0.7988,0.7988,0.7988,0.7988,0.7988,0.7988,0.8008,0.8214,0.8368,0.8397,0.0,0.9681,0.0,0.0,1.0095,0.0,1.0363,1.0558,1.0631,1.0407,1.0383,1.0306,0.9981,1.009,0.9989,0.9705,0.9648,0.9575,0.9575,0.9575,0.9575,0.9575,0.9575,0.9575,0.9575,0.9283,0.9096,0.0,0.0,0.0,0.8555,0.8596,0.8568,0.0,0.0,0.0,0.0,0.0,0.8436,0.8436,0.8436,0.8436,0.8436,0.8436,0.8436,0.8436,0.8436,0.848,0.8516,0.8516,0.8568,0.8612,0.8612,0.8612,0.8612,0.8612,0.8637,0.8649,0.8787,0.8852,0.895,0.9282,0.9347,0.9396,0.9527,0.9543,0.9527,0.9559,0.9567,0.9583,0.9575,0.9575,0.0,0.0,0.0,0.0,0.0,0.0,0.0,0.0,0.0,0.0,0.0,0.0,0.0,0.0,0.0,0.0,0.0,0.0,0.0,0.0,0.0,0.7988,0.7988,0.0,0.7988,0.0,0.7988,0.7988,0.7988,0.7988,0.7988,0.7988,0.7988,0.7988,0.7988,0.7988,0.7988,0.7988,0.7988,0.8008,0.8106,0.8262,0.8404,0.8554,0.0,0.0,0.0,0.0,0.0,0.0,1.0261,1.0477,1.0631,1.0407,1.0383,1.0363,1.0212,1.0057,0.99,0.986,0.9721,0.9575,0.9575,0.9575,0.9575,0.9575,0.9575,0.9575,0.9575,0.9283,0.9096,0.0,0.0,0.0,0.0,0.0,0.0,0.0,0.0,0.0,0.0,0.7988,0.7988,0.7988,0.7988,0.7988,0.7988,0.7988,0.7988,0.7988,0.7988,0.8069,0.8245,0.8245,0.8384,0.8612,0.8612,0.8612,0.8612,0.8612,0.8674,0.8796,0.882,0.8942,0.908,0.9112,0.912,0.9169,0.9388,0.9259,0.9194,0.9396,0.9429,0.9477,0.96,0.9575,0.9533,0.0,0.0,0.0,0.0,0.0,0.0,0.0,0.0,0.0,0.0,0.79,0.0,0.0,0.0,0.0,0.0,0.0,0.0,0.7988,0.0,0.7988,0.7988,0.7988,0.0,0.7988,0.7988,0.7988,0.7988,0.7988,0.7988,0.7988,0.7988,0.7988,0.7988,0.7988,0.7988,0.7988,0.7988,0.8126,0.8269,0.8411,0.856,0.871,0.0,0.0,0.0,0.0,0.0,0.0,0.0,1.0509,1.0477,1.0298,1.0371,1.0363,1.0237,0.9998,0.9843,0.9738,0.9665,0.9575,0.9575,0.9575,0.9575,0.9575,0.9527,0.9462,0.9462,0.9112,0.8934,0.0,0.0,0.0,0.0,0.0,0.0,0.0,0.0,0.7981,0.79,0.79,0.79,0.79,0.79,0.79,0.79,0.79,0.79,0.79,0.79,0.7944,0.8025,0.8025,0.8296,0.8612,0.8612,0.8612,0.8612,0.8612,0.8617,0.8666,0.8666,0.8723,0.8804,0.8909,0.8934,0.8974,0.9161,0.9145,0.912,0.9185,0.9331,0.9461,0.9592,0.9575,0.9575,0.0,0.0,0.0,0.0,0.0,0.0,0.0,0.0,0.0,0.0,0.0,0.7446,0.0,0.0,0.0,0.0,0.0,0.0,0.7982,0.0,0.7988,0.7988,0.7988,0.7988,0.7988,0.7988,0.7988,0.7988,0.7988,0.7988,0.7988,0.7988,0.7988,0.7988,0.7988,0.7988,0.7988,0.7988,0.8133,0.834,0.8431,0.8581,0.873,0.9762,0.0,1.0038,0.0,1.0428,1.0534,1.0607,1.0517,1.0371,1.0237,1.0225,1.0201,1.0022,0.9892,0.9762,0.9591,0.9575,0.9575,0.9575,0.9575,0.9575,0.9575,0.9502,0.0,0.9404,0.9056,0.8877,0.882,0.8605,0.0,0.0,0.0,0.0,0.0,0.7768,0.7724,0.7672,0.7672,0.7672,0.7672,0.7672,0.7672,0.7672,0.7672,0.7672,0.7672,0.7672,0.7724,0.7768,0.7768,0.8076,0.8392,0.8472,0.8472,0.8516,0.8568,0.8612,0.8612,0.8612,0.8612,0.8645,0.8714,0.8747,0.8796,0.8974,0.8974,0.8974,0.908,0.9194,0.9348,0.9583,0.9575,0.9583,0.9484,0.0,0.0,0.0,0.0,0.0,0.0,0.8129,0.7886,0.7439,0.7333,0.0,0.0,0.0,0.0,0.0,0.0,0.0,0.0,0.0,0.0,0.0,0.7988,0.7988,0.7988,0.7988,0.7988,0.7988,0.7988,0.7988,0.7988,0.7988,0.7988,0.7988,0.7988,0.7988,0.7995,0.8092,0.8201,0.835,0.8492,0.8648,0.8791,1.0087,1.0212,1.0326,1.0623,1.0688,1.0631,1.0407,1.0383,1.0371,1.0237,1.0057,0.9827,0.9657,0.9583,0.9583,0.9575,0.9575,0.9575,0.9575,0.9575,0.9575,0.0,0.0,0.9543,0.9404,0.9185,0.9007,0.882,0.0,0.0,0.7909,0.0,0.7562,0.7503,0.7503,0.737,0.7098,0.7098,0.7098,0.7098,0.7098,0.7098,0.7098,0.7098,0.7098,0.7098,0.7098,0.7275,0.7503,0.7503,0.768,0.7944,0.8157,0.8201,0.8245,0.8516,0.8612,0.8612,0.8612,0.8612,0.8612,0.8612,0.8612,0.8617,0.8787,0.869,0.8718,0.9023,0.9096,0.921,0.9559,0.9575,0.9525,0.9236,0.0,0.0,0.0,0.0,0.0,0.0,0.793,0.764,0.7419,0.0,0.0,0.0,0.0,0.0,0.0,0.0,0.0,0.7982,0.7988,0.0,0.7988,0.7988,0.7988,0.7988,0.7988,0.7988,0.7988,0.7988,0.7988,0.7988,0.7988,0.7988,0.7988,0.7988,0.7988,0.8008,0.8208,0.8357,0.8499,0.8648,0.8804,0.8885,0.9925,0.9768,0.9707,1.0146,1.0171,1.003,0.9862,0.9739,0.9609,0.9484,0.9264,0.9134,0.908,0.9377,0.9575,0.0,0.9575,0.9575,0.0,0.9575,0.9575,0.9575,0.9397,0.9242,0.9177,0.8885,0.8662,0.8367,0.0,0.0,0.0,0.7556,0.7409,0.7231,0.7231,0.7187,0.7098,0.7098,0.7098,0.7098,0.7098,0.7098,0.7098,0.7098,0.7098,0.7098,0.7098,0.7143,0.7231,0.7231,0.7275,0.7408,0.7635,0.7856,0.8032,0.8076,0.8208,0.8332,0.8332,0.8516,0.8739,0.8739,0.8836,0.8909,0.8836,0.8779,0.8812,0.9047,0.9194,0.9348,0.9583,0.9434,0.9385,0.9484,0.9385,0.0,0.0,0.0,0.0,0.0,0.8117,0.7802,0.0,0.7482,0.0,0.0,0.0,0.0,0.0,0.0,0.0,0.0,0.7988,0.0,0.7988,0.7988,0.7988,0.7988,0.7988,0.7988,0.7988,0.7988,0.7988,0.7988,0.7988,0.7988,0.7988,0.7988,0.7988,0.8008,0.8208,0.8357,0.8499,0.8655,0.8804,0.894,0.9753,0.9563,0.9504,0.9816,0.9761,0.9667,0.9556,0.9339,0.9198,0.9093,0.8929,0.8825,0.8825,0.9072,0.0,0.9278,0.9278,0.9278,0.9278,0.9278,0.9296,0.938,0.9172,0.9035,0.8999,0.0,0.0,0.8201,0.8025,0.7724,0.737,0.737,0.7275,0.7098,0.7098,0.7098,0.7098,0.7098,0.7098,0.7098,0.7098,0.7098,0.7098,0.7098,0.7098,0.7098,0.7098,0.7098,0.7098,0.7098,0.7098,0.7143,0.7275,0.7459,0.7628,0.7856,0.7988,0.8069,0.8069,0.837,0.8684,0.8684,0.8912,0.9047,0.8861,0.8877,0.8958,0.9072,0.9282,0.9461,0.9592,0.9385,0.9286,0.9575,0.9385,0.9262,0.9486,0.0,0.0,0.0,0.0,0.0,0.0,0.7597,0.0,0.0,0.0,0.0,0.0,0.0,0.0,0.7982,0.7988,0.0,0.7988,0.7988,0.7988,0.7988,0.7988,0.7988,0.7988,0.7988,0.7988,0.7988,0.7988,0.7988,0.7988,0.7988,0.7988,0.8008,0.8269,0.8404,0.8506,0.8716,0.8914,0.9106,0.9727,0.9565,0.0,0.0,0.9563,0.0,0.9339,0.9183,0.902,0.9013,0.8872,0.8726,0.8726,0.8726,0.8726,0.8726,0.0,0.0,0.0,0.8817,0.8841,0.8979,0.8948,0.8879,0.8737,0.854,0.8364,0.8157,0.768,0.7326,0.7098,0.7098,0.7098,0.7098,0.7098,0.7098,0.7098,0.7098,0.7098,0.7098,0.7105,0.7105,0.7098,0.7105,0.7105,0.7098,0.7098,0.7098,0.7098,0.7098,0.7098,0.7098,0.7098,0.7098,0.7187,0.768,0.7863,0.7871,0.7871,0.8177,0.8504,0.8504,0.8806,0.9025,0.8847,0.8944,0.9066,0.9074,0.925,0.9429,0.955,0.9335,0.9229,0.9509,0.9312,0.9158,0.9316,0.0,0.0,0.0,0.0,0.0,0.0,0.7631,0.7624,0.0,0.0,0.0,0.0,0.0,0.7889,0.7982,0.7988,0.7988,0.7988,0.7988,0.7988,0.7988,0.7988,0.7988,0.7988,0.7988,0.7988,0.7988,0.7988,0.7988,0.7988,0.7988,0.7988,0.8022,0.8364,0.8531,0.8572,0.8825,0.9161,0.943,0.0,0.0,0.9033,0.9509,0.9241,0.8835,0.8622,0.8501,0.8431,0.8256,0.8208,0.8187,0.8187,0.8187,0.8187,0.8187,0.8577,0.8825,0.8825,0.8713,0.868,0.869,0.8449,0.8322,0.8284,0.8109,0.7938,0.768,0.7363,0.7143,0.7098,0.7098,0.7098,0.7098,0.7098,0.7098,0.7098,0.7098,0.7098,0.7105,0.7272,0.7244,0.7105,0.7272,0.7244,0.7098,0.7098,0.7098,0.7098,0.7098,0.7098,0.7098,0.7098,0.7098,0.7143,0.7275,0.7492,0.7764,0.7764,0.8158,0.857,0.857,0.8791,0.8949,0.872,0.8838,0.8965,0.8774,0.9009,0.9182,0.9015,0.8924,0.8886,0.8863,0.8605,0.8497,0.8611,0.8258,0.0,0.0,0.7874,0.7692,0.7909,0.7887,0.7889,0.0,0.0,0.0,0.0,0.7874,0.7955,0.7988,0.7988,0.7988,0.7988,0.7988,0.7988,0.7988,0.7988,0.7988,0.7988,0.7988,0.7988,0.7988,0.7988,0.7988,0.7988,0.7988,0.7988,0.8022,0.8364,0.8636,0.8829,0.9152,0.9485,0.9761,0.9655,0.9208,0.89,0.9147,0.8862,0.8526,0.8354,0.8208,0.8133,0.8002,0.7988,0.7988,0.7988,0.7988,0.7988,0.7988,0.8287,0.8428,0.8428,0.8357,0.8292,0.8292,0.8124,0.8009,0.799,0.7812,0.7591,0.7326,0.7255,0.7244,0.7244,0.7319,0.7353,0.7346,0.7278,0.7244,0.7244,0.7125,0.7139,0.7251,0.7339,0.7319,0.7258,0.7339,0.7278,0.7098,0.7098,0.7098,0.7098,0.7098,0.7098,0.7098,0.7098,0.7098,0.7112,0.7224,0.7341,0.7458,0.7528,0.7955,0.8369,0.8612,0.8796,0.887,0.8657,0.8743,0.887,0.8657,0.8818,0.8981,0.8825,0.8667,0.8544,0.8609,0.8335,0.8139,0.8258,0.8037,0.0,0.8032,0.7849,0.7787,0.7968,0.7988,0.7955,0.7874,0.0,0.0,0.7874,0.7941,0.7988,0.7988,0.7988,0.7988,0.7988,0.7988,0.7988,0.7988,0.7988,0.7988,0.7988,0.7988,0.7988,0.7988,0.7988,0.7988,0.7988,0.7988,0.7988,0.8065,0.8519,0.8793,0.8934,0.9417,0.9761,1.0036,0.9111,0.8981,0.8893,0.8791,0.8654,0.8465,0.8374,0.8174,0.8022,0.8022,0.8002,0.7988,0.7988,0.7988,0.7988,0.7988,0.7988,0.7988,0.7988,0.7968,0.7938,0.7874,0.7865,0.7809,0.7805,0.7561,0.7326,0.7098,0.7272,0.7346,0.7419,0.7502,0.7577,0.759,0.7441,0.7433,0.7394,0.7173,0.7244,0.7453,0.7453,0.7439,0.7419,0.7446,0.7292,0.7098,0.7098,0.7098,0.7098,0.7098,0.7098,0.7098,0.7098,0.7098,0.7125,0.7299,0.7244,0.7139,0.738,0.7736,0.8101,0.8532,0.8711,0.8682,0.8527,0.8615,0.8689,0.8556,0.8637,0.8726,0.8676,0.8405,0.8249,0.8412,0.8131,0.7927,0.7951,0.0,0.7898,0.7872,0.7822,0.7868,0.7975,0.7988,0.7988,0.7988,0.7988,0.7988,0.0,0.7988,0.7988,0.7988,0.7988,0.7988,0.7988,0.7988,0.7988,0.7988,0.7988,0.7988,0.7988,0.7988,0.7988,0.7988,0.7988,0.7988,0.7988,0.7988,0.8052,0.8149,0.8681,0.8965,0.9128,0.9697,1.0091,1.0366,0.9665,0.9237,0.8948,0.9115,0.885,0.8621,0.8472,0.833,0.8235,0.8235,0.8119,0.7988,0.7988,0.7988,0.7988,0.7988,0.7988,0.7988,0.7988,0.7916,0.7828,0.7828,0.7583,0.7478,0.7476,0.7255,0.7143,0.7098,0.7119,0.7244,0.7419,0.7439,0.7475,0.759,0.7441,0.7441,0.7543,0.7213,0.726,0.7563,0.7563,0.7489,0.7433,0.7516,0.7387,0.7098,0.7098,0.7098,0.7098,0.7098,0.7098,0.7098,0.7098,0.7098,0.7098,0.7125,0.7112,0.7186,0.7631,0.7855,0.7999,0.7966,0.8238,0.8393,0.7994,0.8224,0.8379,0.8159,0.8266,0.8379,0.8187,0.8168,0.8117,0.7793,0.7602,0.7444,0.7286,0.0,0.7547,0.763,0.7726,0.7868,0.7975,0.7988,0.7988,0.7988,0.7988,0.7988,0.7988,0.7988,0.7988,0.7988,0.7988,0.7988,0.7988,0.7988,0.7988,0.7988,0.7988,0.7988,0.7988,0.7988,0.7988,0.7988,0.7988,0.7988,0.7988,0.7988,0.8213,0.8605,0.8827,0.9293,0.9869,1.0124,1.0421,1.0641,0.9254,0.9044,0.8913,0.9009,0.8872,0.8682,0.8615,0.8418,0.8347,0.8377,0.818,0.8022,0.8153,0.8092,0.7988,0.7988,0.7988,0.7988,0.7988,0.7921,0.7896,0.7814,0.7604,0.7414,0.7251,0.7258,0.7265,0.7265,0.7421,0.7536,0.7611,0.7692,0.7767,0.7828,0.7678,0.7645,0.7699,0.7482,0.7516,0.7712,0.7712,0.7672,0.7617,0.7685,0.7577,0.7387,0.7387,0.7333,0.7265,0.7265,0.721,0.7098,0.7098,0.7098,0.7112,0.7238,0.7326,0.7434,0.7638,0.7868,0.7975,0.7901,0.8033,0.8117,0.795,0.804,0.8137,0.8038,0.8088,0.811,0.7929,0.7897,0.7821,0.7611,0.74,0.0,0.0,0.7448,0.755,0.7699,0.7841,0.7914,0.7982,0.7988,0.7988,0.7988,0.7988,0.7988,0.7988,0.7988,0.7988,0.7988,0.7988,0.7988,0.7988,0.7988,0.7988,0.7988,0.7988,0.7988,0.7988,0.7988,0.7988,0.7988,0.7988,0.7988,0.7988,0.7988,0.8277,0.8743,0.9057,0.9527,1.0061,1.0405,1.0586,1.0688,0.8893,0.8804,0.8885,0.8885,0.8845,0.8764,0.8764,0.854,0.8397,0.8472,0.8255,0.8126,0.8208,0.8113,0.7988,0.7988,0.7988,0.7988,0.7988,0.7988,0.7934,0.7868,0.7692,0.7489,0.7206,0.7326,0.7433,0.7421,0.7651,0.778,0.7814,0.788,0.7955,0.7982,0.7882,0.7828,0.7855,0.7678,0.7699,0.7862,0.7828,0.7662,0.7469,0.7711,0.7576,0.7261,0.7503,0.7522,0.7421,0.7421,0.7319,0.7146,0.7146,0.7125,0.7125,0.7326,0.7482,0.7597,0.7597,0.7814,0.7982,0.7948,0.7961,0.7982,0.7941,0.7961,0.7988,0.7988,0.7988,0.7955,0.7889,0.7746,0.7638,0.7604,0.0,0.0,0.0,0.7604,0.7692,0.7801,0.7894,0.7988,0.7988,0.7988,0.7988,0.7988,0.7988,0.7988,0.7988,0.7988,0.7988,0.7988,0.7988,0.7988,0.7988,0.7988,0.7988,0.7988,0.7988,0.7988,0.7988,0.7988,0.7988,0.7988,0.7988,0.7988,0.7988,0.7988,0.8348,0.8896,0.928,0.9716,1.0232,1.0585,1.0688,1.0688,0.903,0.8878,0.8885,0.8885,0.8871,0.8865,0.8865,0.8784,0.8628,0.8499,0.835,0.8201,0.8022,0.7995,0.7988,0.7988,0.7988,0.7988,0.7988,0.7988,0.7982,0.7975,0.7753,0.759,0.7563,0.7441,0.7441,0.7584,0.7604,0.7685,0.7814,0.7821,0.7902,0.7982,0.7882,0.7889,0.7955,0.7719,0.776,0.7961,0.7868,0.7227,0.6446,0.7421,0.7091,0.6261,0.7261,0.759,0.7584,0.7584,0.7482,0.7398,0.7398,0.7258,0.7125,0.7326,0.7482,0.7597,0.7597,0.7814,0.7955,0.7862,0.7887,0.7955,0.7862,0.7887,0.7988,0.7988,0.7988,0.7988,0.7975,0.7896,0.7753,0.7617,0.0,0.0,0.7453,0.7624,0.7801,0.7807,0.7894,0.7988,0.7988,0.7988,0.7988,0.7988,0.7988,0.7988,0.7988,0.7988,0.7988,0.7988,0.7988,0.7988,0.7988,0.7988,0.7988,0.7988,0.7988,0.7988,0.7988,0.7988,0.7988,0.7988,0.7988,0.7988,0.7988,0.7988,0.8519,0.9369,0.9384,0.9899,1.0672,1.0688,1.0688,1.0688,0.8852,0.8817,0.8851,0.8811,0.8817,0.8885,0.8885,0.8811,0.8689,0.8628,0.8418,0.8248,0.8187,0.8099,0.7988,0.7988,0.7988,0.7988,0.7988,0.7988,0.7948,0.7902,0.7787,0.7692,0.7604,0.7631,0.7672,0.7733,0.7828,0.7853,0.7901,0.7901,0.7934,0.7988,0.7928,0.7934,0.7982,0.7874,0.7543,0.6986,0.6933,0.6267,0.5367,0.5763,0.564,0.5312,0.5704,0.581,0.5754,0.5754,0.6105,0.652,0.652,0.6953,0.7434,0.7495,0.7617,0.7583,0.6912,0.7276,0.7909,0.7894,0.7948,0.7975,0.7914,0.7948,0.7988,0.7988,0.7988,0.7961,0.7916,0.7848,0.7794,0.774,0.0,0.7645,0.7767,0.7801,0.7848,0.7894,0.7955,0.7988,0.7988,0.7988,0.7988,0.7988,0.7988,0.7988,0.7988,0.7988,0.7988,0.7988,0.7988,0.7988,0.7988,0.7988,0.7988,0.7988,0.7988,0.7988,0.7988,0.7988,0.7988,0.7988,0.7988,0.7988,0.7988,0.8187,0.8722,0.9436,0.9593,1.0059,1.0688,1.0688,1.0688,1.0688,0.8695,0.8723,0.8764,0.8655,0.8723,0.8798,0.8798,0.871,0.8621,0.8581,0.8397,0.8255,0.8201,0.8106,0.7988,0.7988,0.7988,0.7988,0.7988,0.7988,0.7941,0.7889,0.7834,0.7787,0.774,0.7787,0.7834,0.7882,0.7941,0.7988,0.7988,0.7988,0.7988,0.7988,0.7988,0.7988,0.7988,0.764,0.7086,0.6387,0.6032,0.5277,0.4325,0.4676,0.4576,0.4325,0.4676,0.4736,0.4638,0.4638,0.5063,0.5556,0.5556,0.6085,0.6655,0.6614,0.6691,0.6646,0.5912,0.6252,0.6821,0.695,0.7235,0.7385,0.7086,0.698,0.698,0.698,0.698,0.6956,0.6862,0.6844,0.6832,0.6797,0.675,0.6864,0.7353,0.7377,0.7524,0.7925,0.7988,0.7988,0.7988,0.7988,0.7988,0.7988,0.7988,0.7988,0.7988,0.7988,0.7988,0.7988,0.7988,0.7988,0.7988,0.7988,0.7988,0.7988,0.7988,0.7988,0.7988,0.7988,0.7988,0.7988,0.7988,0.7988,0.8038,0.8287,0.8744,0.9361,0.9675,1.0134,1.0615,1.0672,1.0688,1.0688,0.8531,0.8479,0.8479,0.8479,0.8479,0.8479,0.8479,0.8479,0.8431,0.834,0.832,0.8214,0.8008,0.7988,0.7988,0.7988,0.7988,0.7988,0.7988,0.7988,0.7988,0.7988,0.7896,0.7882,0.7988,0.7889,0.7889,0.7988,0.7988,0.7988,0.7988,0.7988,0.7988,0.7988,0.7988,0.7988,0.7939,0.6836,0.6387,0.6287,0.5227,0.4124,0.3324,0.4375,0.4124,0.3324,0.4375,0.4772,0.4772,0.4772,0.467,0.4602,0.4602,0.4602,0.4582,0.4447,0.4482,0.4602,0.4602,0.4602,0.4622,0.4752,0.5577,0.6132,0.5027,0.4822,0.4822,0.4822,0.4822,0.4822,0.4822,0.4822,0.4748,0.4614,0.472,0.5142,0.6074,0.6311,0.6786,0.7839,0.7988,0.7988,0.7988,0.7988,0.7988,0.7988,0.7988,0.7988,0.7988,0.7988,0.7988,0.7988,0.7988,0.7988,0.7988,0.7988,0.7988,0.7988,0.7988,0.7988,0.7988,0.7988,0.7988,0.7988,0.7988,0.7988,0.8038,0.8287,0.8679,0.9152,0.9628,1.0063,1.0407,1.0631,1.0688,1.0688,0.8381,0.8411,0.8452,0.835,0.8418,0.8479,0.8479,0.8479,0.8431,0.834,0.832,0.8214,0.8008,0.7988,0.7988,0.7988,0.7988,0.7988,0.7988,0.7988,0.7988,0.7988,0.7948,0.7941,0.7988,0.7948,0.7941,0.7988,0.7988,0.7988,0.7988,0.7988,0.7988,0.7988,0.7988,0.7988,0.7939,0.6836,0.5982,0.5177,0.4124,0.3022,0.212,0.2421,0.2372,0.212,0.2421,0.2572,0.2572,0.2572,0.3012,0.3744,0.4487,0.4736,0.4732,0.4703,0.4716,0.4587,0.3844,0.4189,0.4744,0.4768,0.5027,0.5177,0.4876,0.4822,0.4822,0.4822,0.4822,0.4822,0.4822,0.4822,0.4764,0.474,0.4756,0.4914,0.5187,0.5259,0.5377,0.5727,0.5777,0.5777,0.5777,0.5777,0.6077,0.6836,0.759,0.7988,0.7988,0.7988,0.7988,0.7988,0.7988,0.7988,0.7988,0.7988,0.7988,0.7988,0.7988,0.7988,0.7988,0.7988,0.7988,0.7988,0.7988,0.7988,0.8038,0.8287,0.8744,0.9369,0.9675,1.0134,1.0623,1.0672,1.0688,1.0688,0.818,0.8248,0.8282,0.8194,0.8248,0.8309,0.8309,0.8309,0.8275,0.8187,0.818,0.8147,0.8002,0.7988,0.7988,0.7988,0.7988,0.7988,0.7988,0.7988,0.7988,0.7988,0.7988,0.7988,0.7988,0.7988,0.7988,0.7988,0.7988,0.7988,0.7988,0.7988,0.7988,0.7988,0.7988,0.7988,0.7889,0.6381,0.5377,0.4676,0.3173,0.217,0.1617,0.1617,0.1617,0.1617,0.1617,0.1617,0.1617,0.1617,0.2019,0.2672,0.3324,0.3525,0.3525,0.3525,0.3525,0.3374,0.2723,0.3022,0.3525,0.3525,0.3874,0.4074,0.3626,0.3525,0.3525,0.3525,0.3525,0.3525,0.3525,0.3525,0.3525,0.3525,0.3525,0.3673,0.4124,0.4175,0.4325,0.4776,0.4822,0.4822,0.4822,0.4822,0.5077,0.5732,0.6786,0.7391,0.7391,0.7789,0.7988,0.7988,0.7988,0.7988,0.7988,0.7988,0.7988,0.7988,0.7988,0.7988,0.7988,0.7988,0.7988,0.7988,0.7988,0.7988,0.8038,0.8287,0.8686,0.919,0.9615,1.0073,1.0427,1.0609,1.0688,1.0688,0.7988,0.7988,0.7988,0.7988,0.7988,0.7988,0.7988,0.7988,0.7988,0.7988,0.7988,0.7988,0.7988,0.7988,0.7988,0.7988,0.7988,0.7988,0.7988,0.7988,0.7988,0.7988,0.7988,0.7988,0.7988,0.7988,0.7988,0.7988,0.7988,0.7988,0.7988,0.7988,0.7988,0.7988,0.7988,0.7939,0.7739,0.5677,0.4726,0.4475,0.2421,0.1617,0.1617,0.1617,0.1617,0.1617,0.1617,0.1617,0.1617,0.1617,0.1617,0.1617,0.1617,0.1617,0.1617,0.1617,0.1617,0.1617,0.1617,0.1617,0.1617,0.1617,0.232,0.2823,0.1817,0.1617,0.1617,0.1617,0.1617,0.1617,0.1617,0.1617,0.1617,0.1617,0.1617,0.1918,0.2924,0.3073,0.3425,0.4375,0.4526,0.4526,0.4526,0.4622,0.4676,0.4676,0.5732,0.6387,0.6387,0.7434,0.7988,0.7988,0.7988,0.7988,0.7988,0.7988,0.7988,0.7988,0.7988,0.7988,0.7988,0.7988,0.7988,0.7988,0.7988,0.7988,0.8038,0.83,0.8499,0.8816,0.9495,0.9867,1.0084,1.0522,1.0688,1.0688,0.7988,0.7988,0.7988,0.7988,0.7988,0.7988,0.7988,0.7988,0.7988,0.7988,0.7988,0.7988,0.7988,0.7988,0.7988,0.7988,0.7988,0.7988,0.7988,0.7988,0.7988,0.7988,0.7988,0.7988,0.7988,0.7988,0.7988,0.7988,0.7988,0.7988,0.7988,0.7988,0.7988,0.7988,0.7988,0.754,0.6686,0.5377,0.4325,0.3425,0.212,0.1617,0.1617,0.1617,0.1617,0.1617,0.1617,0.1617,0.1617,0.1617,0.1617,0.1617,0.1617,0.1617,0.1617,0.1617,0.1617,0.1617,0.1617,0.1617,0.1617,0.1617,0.1768,0.1868,0.1667,0.1617,0.1617,0.1617,0.1617,0.1617,0.1617,0.1617,0.1617,0.1617,0.1617,0.1667,0.1918,0.1969,0.2019,0.2271,0.2269,0.2269,0.2269,0.3073,0.3525,0.3525,0.5331,0.6387,0.6387,0.7434,0.7988,0.7988,0.7988,0.7988,0.7988,0.7988,0.7988,0.7988,0.7988,0.7988,0.7988,0.7988,0.7988,0.7988,0.7988,0.7988,0.8002,0.8217,0.8508,0.8915,0.9451,0.9885,1.0257,1.057,1.0688,1.0688,0.7988,0.7988,0.7988,0.7988,0.7988,0.7988,0.7988,0.7988,0.7988,0.7988,0.7988,0.7988,0.7988,0.7988,0.7988,0.7988,0.7988,0.7988,0.7988,0.7988,0.7988,0.7988,0.7988,0.7988,0.7988,0.7988,0.7988,0.7988,0.7988,0.7988,0.7988,0.7988,0.7988,0.7988,0.749,0.6936,0.6287,0.4726,0.3723,0.3123,0.2019,0.1617,0.1617,0.1617,0.1617,0.1617,0.1617,0.1617,0.1617,0.1617,0.1617,0.1617,0.1617,0.1617,0.1617,0.1617,0.1617,0.1617,0.1617,0.1617,0.1617,0.1617,0.1617,0.1617,0.1617,0.1617,0.1617,0.1617,0.1617,0.1617,0.1617,0.1617,0.1617,0.1617,0.1617,0.1617,0.1617,0.1617,0.1617,0.1617,0.1617,0.1617,0.1617,0.212,0.2421,0.2421,0.3927,0.5081,0.5632,0.6637,0.749,0.7988,0.7988,0.7988,0.7988,0.7988,0.7988,0.7988,0.7988,0.7988,0.7988,0.7988,0.7988,0.7988,0.7988,0.7988,0.8002,0.8208,0.8453,0.8755,0.9236,0.9667,1.0091,1.0421,1.0586,1.0704,0.7988,0.7988,0.7988,0.7988,0.7988,0.7988,0.7988,0.7988,0.7988,0.7988,0.7988,0.7988,0.7988,0.7988,0.7988,0.7988,0.7988,0.7988,0.7988,0.7988,0.7988,0.7988,0.7988,0.7988,0.7988,0.7988,0.7988,0.7988,0.7988,0.7988,0.7988,0.7988,0.7889,0.769,0.6786,0.6187,0.5732,0.3977,0.3073,0.2871,0.1969,0.1617,0.1617,0.1617,0.1617,0.1617,0.1617,0.1617,0.1617,0.1617,0.1617,0.1617,0.1617,0.1617,0.1617,0.1617,0.1617,0.1617,0.1617,0.1617,0.1617,0.1617,0.1617,0.1617,0.1617,0.1617,0.1617,0.1617,0.1617,0.1617,0.1617,0.1617,0.1617,0.1617,0.1617,0.1617,0.1617,0.1617,0.1617,0.1617,0.1617,0.1617,0.1617,0.1617,0.1617,0.1617,0.2572,0.3572,0.4475,0.5532,0.6637,0.769,0.7739,0.7839,0.7988,0.7988,0.7988,0.7988,0.7988,0.7988,0.7988,0.7988,0.7988,0.7988,0.7988,0.8002,0.8092,0.8241,0.8391,0.8586,0.9065,0.9425,0.9761,1.0147,1.0476,1.072,0.7988,0.7988,0.7988,0.7988,0.7988,0.7988,0.7988,0.7988,0.7988,0.7988,0.7988,0.7988,0.7988,0.7988,0.7988,0.7988,0.7988,0.7988,0.7988,0.7988,0.7988,0.7988,0.7988,0.7988,0.7988,0.7988,0.7988,0.7988,0.7988,0.7988,0.7988,0.7988,0.749,0.6587,0.6487,0.5381,0.3626,0.3324,0.2672,0.1817,0.1667,0.1617,0.1617,0.1617,0.1617,0.1617,0.1617,0.1617,0.1617,0.1617,0.1617,0.1617,0.1617,0.1617,0.1617,0.1617,0.1617,0.1617,0.1617,0.1617,0.1617,0.1617,0.1617,0.1617,0.1617,0.1617,0.1617,0.1617,0.1617,0.1617,0.1617,0.1617,0.1617,0.1617,0.1617,0.1617,0.1617,0.1617,0.1617,0.1617,0.1617,0.1617,0.1617,0.1617,0.1617,0.1617,0.2572,0.3274,0.3425,0.4425,0.5527,0.6587,0.6637,0.7036,0.7988,0.7988,0.7988,0.7988,0.7988,0.7988,0.7988,0.7988,0.7988,0.7988,0.7988,0.8113,0.8248,0.8391,0.854,0.8696,0.9173,0.9416,0.9541,1.0091,1.0476,1.072,0.7988,0.7988,0.7988,0.7988,0.7988,0.7988,0.7988,0.7988,0.7988,0.7988,0.7988,0.7988,0.7988,0.7988,0.7988,0.7988,0.7988,0.7988,0.7988,0.7988,0.7988,0.7988,0.7988,0.7988,0.7988,0.7988,0.7988,0.7988,0.7988,0.7988,0.7988,0.7391,0.6836,0.6337,0.5131,0.4078,0.3173,0.2572,0.2019,0.1617,0.1617,0.1617,0.1617,0.1617,0.1617,0.1617,0.1617,0.1617,0.1617,0.1617,0.1617,0.1617,0.1617,0.1617,0.1617,0.1617,0.1617,0.1617,0.1617,0.1617,0.1617,0.1617,0.1617,0.1617,0.1617,0.1617,0.1617,0.1617,0.1617,0.1617,0.1617,0.1617,0.1617,0.1617,0.1617,0.1617,0.1617,0.1617,0.1617,0.1617,0.1617,0.1617,0.1617,0.1617,0.1617,0.1617,0.2019,0.2572,0.3173,0.3673,0.4375,0.5477,0.5527,0.6032,0.7086,0.7086,0.7385,0.7988,0.7988,0.7988,0.7988,0.7988,0.7988,0.7995,0.8133,0.8208,0.834,0.8513,0.8648,0.8723,0.8989,0.9217,0.9437,0.9871,1.0202,1.05]}]]